     2              OBSERVATION DATA    GPS                 RINEX VERSION / TYPE
ASRINEXO V2.9.7 UX USGS/MENLO_PARK 30-JAN-02 11:12          PGM / RUN BY / DATE
                                                            COMMENT
BIT 2 OF LLI (+4) FLAGS DATA COLLECTED UNDER "AS" CONDITION COMMENT
BIT 2 OF LLI (+4) FLAGS DATA COLLECTED UNDER "AS" CONDITION COMMENT
BIT 2 OF LLI (+4) FLAGS DATA COLLECTED UNDER "AS" CONDITION COMMENT
BIT 2 OF LLI (+4) FLAGS DATA COLLECTED UNDER "AS" CONDITION COMMENT
BIT 2 OF LLI (+4) FLAGS DATA COLLECTED UNDER "AS" CONDITION COMMENT
BIT 2 OF LLI (+4) FLAGS DATA COLLECTED UNDER "AS" CONDITION COMMENT
BIT 2 OF LLI (+4) FLAGS DATA COLLECTED UNDER "AS" CONDITION COMMENT
BIT 2 OF LLI (+4) FLAGS DATA COLLECTED UNDER "AS" CONDITION COMMENT
Original Marker Name: oldw Old_Woman_1935_USC&GS            COMMENT
Campaign Name: USGS Mojave 2002                             COMMENT
4-Character Station Name: OLDW                              COMMENT
6-Character Antenna Code: DMRCHT                            COMMENT
Vertical Measurement Point: BCR                             COMMENT
Vertical Offset to Rinex Ref. Point: 0.0348                 COMMENT
Radial Measurement Point: ECF                               COMMENT
Radial Offset to Rinex Ref. Point: 0.1897                   COMMENT
Antenna Height from Field Measurement: 0.5420 m             COMMENT
Additional Antenna Identification Info.:                    COMMENT
Turborogue and Ashtech Choke Ring                           COMMENT
Original XYZ: -2372193.3632 -4705960.7333 3582810.1552      COMMENT
New XYZ position is based on association with SCEC monument COMMENT
E1F2C9L4+0011. Position of that monument is believed to be  COMMENT
valid to within 1 m horizontally; vertical accuracy         COMMENT
should be no worse than 3-times this value.                 COMMENT
                                                            COMMENT
Revised Rinex header created by UCSD GPS archive for        COMMENT
GSAC on 27-Jun-2003 (2003:178) 15:56:18 GMT                 COMMENT
For assistance contact dagnew@ucsd.edu                      COMMENT
or anderson@python.ucsd.edu                                 COMMENT
                                                            COMMENT
OLD WOMAN 1935                                              MARKER NAME
GDH US GEOLOGICAL SURVEY                                    OBSERVER / AGENCY
LP00108.707 ASHTECH Z-XII3 CD00                             REC # / TYPE / VERS
CR519993703 DORNE-MARGOL. TYPE T                            ANT # / TYPE
 -2372180.5099 -4705937.5443  3582783.5174                  APPROX POSITION XYZ
        0.4729        0.0000        0.0000                  ANTENNA: DELTA H/E/N
     1     1     0                                          WAVELENGTH FACT L1/2
     5    C1    L1    L2    P1    P2                        # / TYPES OF OBSERV
    30                                                      INTERVAL
  2002     1    28     0     1   30.000000                  TIME OF FIRST OBS
  2002     1    28    16    49   30.000000                  TIME OF LAST OBS
                                                            END OF HEADER
 02  1 28  0  1 30.0000000  0  8 06 05 10 24 04 30 23 09
  22743482.042   -14882657.569 8 -10675651.34546  22743481.716    22743496.2714
  20363507.208   -25590508.229 9 -19164562.68648  20363506.488    20363516.8984
  21243317.178   -19977746.056 9 -15558253.48247  21243316.208    21243328.7794
  21751267.390   -17195154.505 9 -12967804.62447  21751267.041    21751279.4254
  24646772.437     -844876.379 7   -450938.61245  24646772.285    24646791.8884
  20640449.104   -23119111.032 9 -17983119.96147  20640449.225    20640459.7094
  24468565.594    -2604632.740 7  -2020547.83645  24468565.036    24468587.5704
  24915998.018     -658786.539 8   -504850.10745  24915997.583    24916019.1214
 02  1 28  0  2  0.0000000  0  8 06 05 10 24 04 30 23 09
  22730892.358   -14948815.974 8 -10727203.17646  22730892.031    22730906.5604
  20369645.960   -25558248.826 9 -19139425.49748  20369645.248    20369655.6564
  21232990.396   -20032013.167 9 -15600539.43547  21232989.428    21233001.9784
  21764368.270   -17126309.054 9 -12914158.87247  21764367.921    21764380.3424
  24665521.966     -746347.365 8   -374162.88445  24665521.924    24665541.4644
  20633077.033   -23157851.299 9 -18013307.10747  20633077.148    20633087.6124
  24448545.099    -2709838.966 7  -2102526.10745  24448544.505    24448566.9964
  24932965.970     -569620.784 8   -435370.68645  24932965.586    24932987.0794
 02  1 28  0  2 30.0000000  0  8 06 05 10 24 04 30 23 09
  22718311.661   -15014927.122 8 -10778718.18546  22718311.321    22718325.7874
  20375885.535   -25525459.628 9 -19113875.47748  20375884.838    20375895.2564
  21222764.273   -20085751.215 9 -15642413.12947  21222763.307    21222775.8494
  21777505.179   -17057274.315 9 -12860365.61447  21777504.847    21777517.3114
  24684263.789     -647858.907 7   -297418.75345  24684263.630    24684283.3434
  20625804.178   -23196070.078 9 -18043087.89747  20625804.303    20625814.7254
  24428523.632    -2815050.297 7  -2184508.36045  24428523.176    24428545.3954
  24949912.230     -480568.765 7   -365979.89245  24949911.895    24949933.5634
 02  1 28  0  3  0.0000000  0  8 06 05 10 24 04 30 23 09
  22705739.992   -15080990.894 8 -10830196.28346  22705739.664    22705754.0984
  20382225.763   -25492141.497 9 -19087913.30548  20382225.069    20382235.4914
  21212639.173   -20138958.650 9 -15683873.35447  21212638.206    21212650.7254
  21790677.662   -16988052.510 9 -12806426.59147  21790677.318    21790689.8244
  24702997.577     -549412.762 7   -220707.60345  24702997.431    24703017.2054
  20618630.825   -23233766.128 9 -18072461.37047  20618630.949    20618641.3304
  24408501.666    -2920264.407 7  -2266492.77945  24408501.087    24408523.1984
  24966836.375     -391633.377 7   -296679.97645  24966835.988    24966857.7304
 02  1 28  0  3 30.0000000  0  8 06 05 10 24 04 30 23 09
  22693177.408   -15147007.136 8 -10881637.33946  22693177.071    22693191.4904
  20388666.447   -25458295.510 9 -19061539.81548  20388665.750    20388676.1784
  21202615.332   -20191633.733 9 -15724918.76447  21202614.366    21202626.8664
  21803885.308   -16918646.101 9 -12752343.72447  21803884.974    21803897.5114
  24721722.976     -451010.719 7   -144030.79945  24721722.707    24721742.6804
  20611557.186   -23270938.122 9 -18101426.48747  20611557.316    20611567.6544
  24388479.505    -3025479.166 7  -2348477.68845  24388478.888    24388501.0064
  24983737.804     -302817.123 7   -227472.90245  24983737.567    24983759.3644
 02  1 28  0  4  0.0000000  0  8 06 05 10 24 04 30 23 09
  22680623.988   -15212975.294 8 -10933040.92346  22680623.651    22680638.0404
  20395207.468   -25423922.133 9 -19034755.37448  20395206.782    20395217.2084
  21192693.333   -20243773.688 9 -15765547.18847  21192692.374    21192704.8554
  21817127.623   -16849057.301 9 -12698118.73847  21817127.297    21817139.8494
  24740439.703     -352653.992 7    -67389.32045  24740439.460    24740459.6174
  20604583.616   -23307584.016 9 -18129981.66147  20604583.754    20604594.0624
  24368457.778    -3130691.647 7  -2430460.83645  24368457.209    24368479.2314
  25000616.138     -214122.644 7   -158360.71445  25000615.883    25000637.7684
 02  1 28  0  4 30.0000000  0  7 06 05 10 24 30 23 09
  22668079.954   -15278894.049 8 -10984406.02346  22668079.625    22668093.9374
  20401848.843   -25389021.367 9 -19007559.98148  20401848.154    20401858.5944
  21182873.719   -20295375.534 9 -15805756.30747  21182872.773    21182885.2274
  21830404.454   -16779287.317 9 -12643752.56247  21830404.126    21830416.6664
  20597710.634   -23343701.440 9 -18158125.03647  20597710.772    20597721.0494
  24348437.172    -3235898.504 7  -2512439.60045  24348436.589    24348458.5274
  25017470.954     -125551.652 7    -89344.75945  25017470.665    25017492.5994
 02  1 28  0  5  0.0000000  0  7 06 05 10 24 30 23 09
  22655545.202   -15344763.733 8 -11035732.87746  22655544.893    22655559.1374
  20408590.278   -25353594.908 9 -18979954.95648  20408589.587    20408600.0214
  21173156.783   -20346437.984 9 -15845545.11647  21173155.839    21173168.2604
  21843715.234   -16709338.973 9 -12589247.40947  21843714.901    21843727.4354
  20590938.352   -23379289.643 9 -18185856.03447  20590938.490    20590948.7584
  24328418.002    -3341097.853 8  -2594412.52745  24328417.318    24328439.3074
  25034301.650      -37107.491 7    -20427.64445  25034301.393    25034323.3144
 02  1 28  0  5 30.0000000  0  7 06 05 10 24 30 23 09
  22643019.854   -15410584.173 8 -11087021.36746  22643019.554    22643033.7784
  20415431.567   -25317643.793 9 -18951941.10648  20415430.851    20415441.2944
  21163542.778   -20396959.505 9 -15884912.42547  21163541.835    21163554.2034
  21857059.523   -16639214.560 9 -12534605.05747  21857059.193    21857071.7484
  20584267.022   -23414347.458 9 -18213173.74047  20584267.169    20584277.4254
  24308400.642    -3446287.663 7  -2676378.05045  24308400.026    24308421.6444
  25051107.544       51206.961 7     48388.41645  25051107.319    25051129.4634
 02  1 28  0  6  0.0000000  0  6 06 05 10 24 30 23
  22630504.284   -15476353.065 8 -11138269.68946  22630503.988    22630518.1964
  20422372.867   -25281166.955 9 -18923517.60548  20422372.176    20422382.6284
  21154032.455   -20446936.143 9 -15923855.14847  21154031.519    21154043.8514
  21870437.289   -16568914.170 9 -12479825.57647  21870436.942    21870449.5304
  20577697.255   -23448871.396 9 -18240075.43847  20577697.397    20577707.6434
  24288385.970    -3551463.409 7  -2758332.61245  24288385.361    24288406.8084
 02  1 28  0  6 30.0000000  0  6 06 05 10 24 30 23
  22617998.245   -15542071.663 8 -11189478.83346  22617997.986    22618012.1614
  20429413.718   -25244167.184 9 -18894686.62648  20429413.022    20429423.4834
  21144625.839   -20496367.715 9 -15962373.14547  21144624.901    21144637.2264
  21883847.814   -16498441.669 9 -12424911.98447  21883847.458    21883860.0744
  20571229.063   -23482861.615 9 -18266561.24847  20571229.194    20571239.4454
  24268374.120    -3656624.245 7  -2840275.58345  24268373.495    24268394.7744
 02  1 28  0  7  0.0000000  0  7 06 05 10 24 17 30 23
  22605500.933   -15607744.732 8 -11240652.49346  22605500.678    22605514.8574
  20436552.874   -25206650.552 9 -18865452.89648  20436552.189    20436562.6704
  21135322.346   -20545257.329 9 -16000468.84047  21135321.432    21135333.7274
  21897289.644   -16427804.538 9 -12369870.10447  21897289.282    21897301.9444
  25044333.941    -3288746.562 7  -2203413.73745  25044333.279    25044356.8854
  20564861.745   -23516321.831 9 -18292634.07347  20564861.892    20564872.1044
  24248364.660    -3761772.618 8  -2922208.84845  24248364.048    24248385.1724
 02  1 28  0  7 30.0000000  0  7 06 05 10 24 17 30 23
  22593013.864   -15673363.932 8 -11291784.18146  22593013.593    22593027.7654
  20443791.695   -25168610.288 9 -18835811.14148  20443791.008    20443801.5144
  21126123.884   -20593595.055 9 -16038134.49347  21126122.960    21126135.2514
  21910763.817   -16356997.201 9 -12314695.59847  21910763.454    21910776.1634
  25027387.384    -3377799.022 7  -2272804.76045  25027386.852    25027410.3024
  20558597.023   -23549242.935 9 -18318286.80547  20558597.169    20558607.3654
  24228359.519    -3866898.315 7  -3004124.47345  24228358.857    24228379.8004
 02  1 28  0  8  0.0000000  0  7 06 05 10 24 17 30 23
  22580537.057   -15738929.371 8 -11342873.97746  22580536.810    22580550.9274
  20451129.881   -25130047.816 9 -18805762.47348  20451129.188    20451139.7034
  21117030.699   -20641379.749 9 -16075369.21447  21117029.765    21117042.0454
  21924269.935   -16286022.173 9 -12259390.42547  21924269.594    21924282.3004
  25010466.458    -3466716.655 7  -2342090.74545  25010465.905    25010489.2704
  20552435.078   -23581623.909 9 -18343518.65747  20552435.225    20552445.4044
  24208359.068    -3971999.286 7  -3086020.82945  24208358.423    24208379.2274
 02  1 28  0  8 30.0000000  0  7 06 05 10 24 17 30 23
  22568070.573   -15804440.886 8 -11393921.75246  22568070.290    22568084.3784
  20458567.220   -25090964.366 9 -18775307.84648  20458566.529    20458577.0564
  21108043.008   -20688609.836 9 -16112171.77547  21108042.077    21108054.3384
  21937807.579   -16214881.509 9 -12203956.18447  21937807.232    21937819.9414
  24993571.372    -3555498.930 7  -2411271.27145  24993570.792    24993594.0144
  20546376.109   -23613463.651 9 -18368328.77047  20546376.250    20546386.4154
  24188363.705    -4077073.308 8  -3167896.21245  24188363.025    24188383.8184
 02  1 28  0  9  0.0000000  0  7 06 05 10 24 17 30 23
  22555614.336   -15869898.545 8 -11444927.56446  22555614.034    22555628.0354
  20466103.442   -25051361.295 9 -18744448.32148  20466102.752    20466113.2834
  21099161.128   -20735283.992 9 -16148541.14847  21099160.196    21099172.3994
  21951376.098   -16143578.521 9 -12148395.45747  21951375.779    21951388.4584
  24976702.070    -3644145.640 7  -2480346.16445  24976701.400    24976724.7414
  20540420.324   -23644761.308 9 -18392716.48147  20540420.473    20540430.6124
  24168373.923    -4182118.262 7  -3249748.94445  24168373.214    24168393.9314
 02  1 28  0  9 30.0000000  0  7 06 05 10 24 17 30 23
  22543168.498   -15935301.671 8 -11495890.88246  22543168.180    22543182.1074
  20473738.361   -25011239.560 9 -18713184.64448  20473737.666    20473748.2134
  21090385.485   -20781399.857 9 -16184475.49147  21090384.561    21090396.7144
  21964975.282   -16072114.684 9 -12092709.39047  21964974.954    21964987.6194
  24959858.694    -3732655.936 7  -2549314.76845  24959858.011    24959881.1494
  20534567.987   -23675515.328 9 -18416680.58047  20534568.144    20534578.2624
  24148390.184    -4287131.505 7  -3331576.98545  24148389.498    24148410.1274
 02  1 28  0 10  0.0000000  0  7 06 05 10 24 17 30 23
  22530733.125   -16000649.429 8 -11546811.05446  22530732.808    22530746.6804
  20481471.823   -24970600.008 9 -18681517.47548  20481471.123    20481481.6754
  21081716.443   -20826955.608 9 -16219973.38547  21081715.512    21081727.6214
  21978604.653   -16000491.959 9 -12036899.51647  21978604.339    21978617.0054
  24943041.545    -3821028.607 7  -2618176.16745  24943040.962    24943063.8694
  20528819.381   -23705724.030 9 -18440219.75647  20528819.534    20528829.6554
  24128413.033    -4392110.039 8  -3413378.00745  24128412.439    24128432.7304
 02  1 28  0 10 30.0000000  0  7 06 05 10 24 17 30 23
  22518308.284   -16065941.666 8 -11597687.96146  22518307.970    22518321.8164
  20489303.525   -24929444.177 9 -18649448.00548  20489302.831    20489313.3904
  21073154.269   -20871949.745 9 -16255033.65847  21073153.350    21073165.4084
  21992263.909   -15928712.250 9 -11980967.31047  21992263.593    21992276.2794
  24926250.719    -3909263.218 7  -2686930.00945  24926250.097    24926273.1444
  20523174.779   -23735386.394 9 -18463333.21047  20523174.942    20523185.0444
  24108442.942    -4497051.575 7  -3495150.18645  24108442.313    24108462.5144
 02  1 28  0 11  0.0000000  0  7 06 05 10 24 17 30 23
  22505894.063   -16131177.870 8 -11648521.21546  22505893.764    22505907.5864
  20497233.237   -24887773.176 9 -18616977.10648  20497232.541    20497243.1324
  21064699.348   -20916380.361 9 -16289654.82447  21064698.433    21064710.4564
  22005952.594   -15856777.903 9 -11924914.61347  22005952.286    22005964.9714
  24909486.295    -3997358.964 7  -2755575.63245  24909485.713    24909508.6684
  20517634.334   -23764501.223 9 -18486020.01747  20517634.487    20517644.5674
  24088480.367    -4601953.675 8  -3576891.66845  24088479.773    24088499.7794
 02  1 28  0 11 30.0000000  0  7 06 05 10 24 17 30 23
  22493490.641   -16196357.614 8 -11699310.47246  22493490.351    22493504.1274
  20505260.792   -24845587.949 9 -18584105.51548  20505260.114    20505270.7114
  21056351.983   -20960245.653 9 -16323835.47747  21056351.062    21056363.0514
  22019670.348   -15784690.797 9 -11868742.88147  22019670.029    22019682.7184
  24892748.453    -4085315.104 7  -2824112.48245  24892747.900    24892770.6414
  20512198.384   -23793067.080 9 -18508279.05847  20512198.541    20512208.5874
  24068525.843    -4706813.550 7  -3658600.25745  24068525.277    24068545.1424
 02  1 28  0 12  0.0000000  0  7 06 05 10 24 17 30 23
  22481098.126   -16261479.990 8 -11750055.02446  22481097.810    22481111.5574
  20513386.063   -24802889.369 9 -18550833.90548  20513385.389    20513395.9974
  21048112.628   -21003543.476 9 -16357573.95047  21048111.706    21048123.6764
  22033416.785   -15712453.029 9 -11812453.75147  22033416.463    22033429.1434
  24876037.370    -4173130.520 7  -2892539.69545  24876036.929    24876059.5094
  20506867.215   -23821082.371 9 -18530109.08847  20506867.371    20506877.3974
  24048579.840    -4811628.424 8  -3740273.79145  24048579.346    24048599.0694
 02  1 28  0 12 30.0000000  0  7 06 05 10 24 17 30 23
  22468716.756   -16326544.043 8 -11800754.13746  22468716.451    22468730.1254
  20521608.913   -24759678.043 9 -18517162.75348  20521608.226    20521618.8494
  21039981.569   -21046272.043 9 -16390868.85047  21039980.645    21039992.5824
  22047191.625   -15640065.889 9 -11756048.23447  22047191.287    22047203.9814
  24859353.375    -4260804.046 7  -2960856.33745  24859352.809    24859375.4014
  20501641.102   -23848545.436 9 -18551508.81248  20501641.249    20501651.2594
  24028643.018    -4916395.342 8  -3821909.96145  24028642.528    24028662.1914
 02  1 28  0 13  0.0000000  0  7 06 05 10 24 17 30 23
  22456346.492   -16391549.555 8 -11851407.62846  22456346.225    22456359.8234
  20529929.045   -24715955.529 9 -18483093.27148  20529928.356    20529938.9824
  21031959.128   -21088429.793 9 -16423718.95247  21031958.209    21031970.1164
  22060994.403   -15567531.832 9 -11699528.23047  22060994.052    22061006.7964
  24842696.407    -4348335.268 7  -3029062.12445  24842695.830    24842718.2984
  20496520.269   -23875455.286 9 -18572477.46048  20496520.414    20496530.4074
  24008715.722    -5021111.952 7  -3903506.94945  24008715.263    24008734.8004
 02  1 28  0 13 30.0000000  0  7 06 05 10 24 17 30 23
  22443987.539   -16456495.803 8 -11902014.93846  22443987.261    22444000.8414
  20538346.241   -24671722.830 9 -18448626.24348  20538345.569    20538356.1794
  21024045.702   -21130014.708 9 -16456122.68847  21024044.797    21024056.6734
  22074824.851   -15494852.348 8 -11642894.90947  22074824.507    22074837.2884
  24826066.693    -4435723.321 7  -3097156.34445  24826066.123    24826088.4444
  20491504.978   -23901810.477 9 -18593013.90948  20491505.126    20491515.1124
  23988798.565    -5125775.390 7  -3985062.50845  23988798.092    23988817.6844
 02  1 28  0 14  0.0000000  0  7 06 05 10 24 17 30 23
  22431639.919   -16521382.384 8 -11952575.76146  22431639.629    22431653.1844
  20546860.281   -24626981.389 9 -18413762.79348  20546859.615    20546870.2274
  21016241.592   -21171025.296 9 -16488078.89847  21016240.680    21016252.5614
  22088682.502   -15422029.934 8 -11586150.21647  22088682.164    22088694.9584
  24809464.400    -4522967.411 7  -3165138.39245  24809463.796    24809486.0604
  20486595.434   -23927609.988 9 -18613117.35748  20486595.585    20486605.5554
  23968892.009    -5230383.196 7  -4066574.74645  23968891.483    23968910.9874
 02  1 28  0 14 30.0000000  0  7 06 05 10 24 17 30 23
  22419303.862   -16586208.127 8 -12003089.17046  22419303.599    22419317.1014
  20555470.999   -24581731.780 9 -18378503.37048  20555470.324    20555480.9394
  21008547.146   -21211459.482 9 -16519585.96347  21008546.226    21008558.0944
  22102567.106   -15349065.998 9 -11529295.24647  22102566.791    22102579.5724
  24792889.747    -4610066.307 7  -3233007.29145  24792889.131    24792911.4224
  20481791.972   -23952852.012 9 -18632786.40548  20481792.120    20481802.1044
  23948996.625    -5334932.271 7  -4148041.22845  23948996.066    23949015.5024
 02  1 28  0 15  0.0000000  0  7 06 05 10 24 17 30 23
  22406979.389   -16650972.848 8 -12053555.03446  22406979.112    22406992.6134
  20564178.101   -24535975.650 9 -18342849.25448  20564177.436    20564188.0414
  21000962.630   -21251315.990 9 -16550642.89147  21000961.717    21000973.5724
  22116478.221   -15275962.871 9 -11472331.81647  22116477.901    22116490.6904
  24776342.798    -4697019.572 7  -3300762.72045  24776342.246    24776364.3604
  20477094.756   -23977535.760 9 -18652020.43148  20477094.912    20477104.8914
  23929112.933    -5439420.247 8  -4229460.10245  23929112.381    23929131.8084
 02  1 28  0 15 30.0000000  0  7 06 05 10 24 17 30 23
  22394666.822   -16715675.109 8 -12103972.21746  22394666.555    22394680.0504
  20572981.494   -24489713.626 9 -18306800.93848  20572980.812    20572991.4274
  20993488.474   -21290592.423 9 -16581247.81147  20993487.551    20993499.3984
  22130415.636   -15202721.583 9 -11415260.73447  22130415.322    22130428.1214
  24759823.846    -4783825.611 7  -3368403.41745  24759823.302    24759845.2884
  20472504.167   -24001659.191 9 -18670817.85048  20472504.330    20472514.2904
  23909241.531    -5543843.719 7  -4310828.73045  23909240.957    23909260.3774
 02  1 28  0 16  0.0000000  0  7 06 05 10 24 17 30 23
  22382366.186   -16780314.733 8 -12154340.60346  22382365.891    22382379.3814
  20581880.783   -24442947.466 9 -18270359.78848  20581880.111    20581890.7304
  20986124.890   -21329287.878 9 -16611400.02447  20986123.969    20986135.7944
  22144378.874   -15129344.519 8 -11358083.85447  22144378.546    22144391.3474
  24743332.934    -4870484.411 7  -3435929.38045  24743332.288    24743354.2134
  20468020.298   -24025221.855 9 -18689178.30448  20468020.464    20468030.3984
  23889382.771    -5648200.877 7  -4392145.69445  23889382.126    23889401.6214
 02  1 28  0 16 30.0000000  0  7 06 05 10 24 17 30 23
  22370077.592   -16844890.925 8 -12204659.56046  22370077.298    22370090.7984
  20590875.865   -24395678.035 9 -18233526.47948  20590875.204    20590885.8204
  20978872.210   -21367400.650 9 -16641098.20147  20978871.290    20978883.1074
  22158367.457   -15055834.057 8 -11300803.02347  22158367.141    22158379.9134
  24726870.228    -4956995.149 7  -3503339.96645  24726869.605    24726891.4884
  20463643.395   -24048222.339 9 -18707100.69648  20463643.554    20463653.4804
  23869537.202    -5752488.609 8  -4473408.55545  23869536.574    23869555.9474
 02  1 28  0 17  0.0000000  0  7 06 05 10 24 17 30 23
  22357801.211   -16909402.891 8 -12254928.46846  22357800.937    22357814.3964
  20599966.495   -24347906.466 9 -18196301.89448  20599965.820    20599976.4554
  20971730.739   -21404928.848 9 -16670340.86347  20971729.814    20971741.6194
  22172381.298   -14982191.090 8 -11243418.94447  22172380.970    22172393.7514
  24710435.936    -5043356.514 8  -3570634.16445  24710435.282    24710456.9244
  20459373.751   -24070659.312 9 -18724583.99048  20459373.920    20459383.8144
  23849705.394    -5856704.156 8  -4554615.19545  23849704.774    23849724.0154
 02  1 28  0 17 30.0000000  0  7 06 05 10 24 17 30 23
  22345537.183   -16973850.080 8 -12305146.89646  22345536.907    22345550.3454
  20609152.376   -24299634.387 9 -18158687.30148  20609151.711    20609162.3454
  20964700.812   -21441870.955 9 -16699126.83247  20964699.890    20964711.6864
  22186419.899   -14908417.930 8 -11185933.41947  22186419.581    22186432.3894
  24694030.138    -5129568.263 7  -3637811.77145  24694029.550    24694051.0274
  20455211.517   -24092531.792 9 -18741627.42148  20455211.672    20455221.5524
  23829887.802    -5960844.982 7  -4635763.61145  23829887.253    23829906.3184
 02  1 28  0 18  0.0000000  0  7 06 05 10 24 17 30 23
  22333285.700   -17038231.495 8 -12355314.08246  22333285.428    22333298.8194
  20618433.309   -24250862.759 9 -18120683.45148  20618432.636    20618443.2644
  20957782.710   -21478225.389 9 -16727454.87747  20957781.790    20957793.5734
  22200482.948   -14834516.249 8 -11128347.73947  22200482.615    22200495.4344
  24677653.015    -5215629.201 7  -3704871.85945  24677652.437    24677673.8314
  20451156.924   -24113838.428 9 -18758229.93848  20451157.099    20451166.9624
  23810085.064    -6064908.105 8  -4716851.46745  23810084.512    23810103.4944
 02  1 28  0 18 30.0000000  0  7 06 05 10 24 17 30 23
  22321046.890   -17102546.365 8 -12405429.40446  22321046.611    22321059.9414
  20627809.080   -24201592.776 9 -18082291.26948  20627808.405    20627819.0394
  20950976.742   -21513990.585 9 -16755323.77247  20950975.821    20950987.5724
  22214569.999   -14760488.509 8 -11070663.83847  22214569.663    22214582.4974
  24661304.725    -5301538.770 7  -3771813.99645  24661304.145    24661325.3824
  20447210.240   -24134578.130 9 -18774390.69048  20447210.401    20447220.2504
  23790297.582    -6168890.845 8  -4797876.71745  23790296.991    23790315.9624
 02  1 28  0 19  0.0000000  0  7 06 05 10 24 17 30 23
  22308820.880   -17166794.032 8 -12455492.36846  22308820.595    22308833.8734
  20637279.410   -24151825.916 9 -18043511.91548  20637278.749    20637289.3824
  20944283.186   -21549165.189 9 -16782732.46447  20944282.265    20944293.9844
  22228680.757   -14686336.126 8 -11012882.81547  22228680.425    22228693.2734
  24644985.397    -5387296.156 7  -3838637.54145  24644984.982    24645005.9384
  20443371.623   -24154749.959 9 -18790108.94548  20443371.778    20443381.6184
  23770525.921    -6272790.506 8  -4878837.21745  23770525.338    23770544.1084
 02  1 28  0 19 30.0000000  0  7 06 05 10 24 17 30 23
  22296607.799   -17230973.710 8 -12505502.34646  22296607.530    22296620.7224
  20646844.082   -24101563.271 9 -18004346.23348  20646843.418    20646854.0684
  20937702.357   -21583747.293 9 -16809679.47147  20937701.441    20937713.1414
  22242814.968   -14612060.628 8 -10955005.86047  22242814.640    22242827.4954
  24628695.205    -5472900.243 7  -3905341.63945  24628694.761    24628715.5614
  20439641.304   -24174352.641 9 -18805383.71248  20439641.461    20439651.2914
  23750770.656    -6376604.048 8  -4959730.59645  23750769.995    23750788.7594
 02  1 28  0 20  0.0000000  0  7 06 05 10 24 17 30 23
  22284407.738   -17295084.807 8 -12555458.89347  22284407.476    22284420.6154
  20656502.831   -24050806.304 9 -17964795.36848  20656502.171    20656512.8274
  20931234.487   -21617735.823 9 -16836163.95347  20931233.579    20931245.2574
  22256972.225   -14537663.750 8 -10897034.31947  22256971.909    22256984.7844
  24612434.239    -5558350.696 7  -3971926.00645  24612433.718    24612454.4974
  20436019.522   -24193385.141 9 -18820214.18148  20436019.678    20436029.4944
  23731032.216    -6480329.105 8  -5040555.02445  23731031.580    23731050.3044
 02  1 28  0 20 30.0000000  0  7 06 05 10 24 17 30 23
  22272220.873   -17359126.496 8 -12605361.35547  22272220.623    22272233.7284
  20666255.372   -23999556.448 9 -17924860.43348  20666254.720    20666265.3914
  20924879.855   -21651129.273 9 -16862184.74047  20924878.938    20924890.6004
  22271152.276   -14463147.373 8 -10838969.66247  22271151.963    22271164.8754
  24596202.636    -5643646.649 7  -4038390.00745  24596202.075    24596222.7864
  20432506.387   -24211846.475 9 -18834599.58648  20432506.530    20432516.3454
  23711311.148    -6583962.833 8  -5121308.27445  23711310.501    23711329.1484
 02  1 28  0 21  0.0000000  0  7 06 05 10 24 17 30 23
  22260047.423   -17423097.735 8 -12655208.92047  22260047.160    22260060.2244
  20676101.491   -23947814.749 9 -17884542.24548  20676100.833    20676111.5194
  20918638.730   -21683926.241 9 -16887740.73147  20918637.809    20918649.4674
  22285354.719   -14388513.137 8 -10780813.18147  22285354.420    22285367.3504
  24580000.643    -5728787.056 7  -4104732.79445  24580000.091    24580020.8444
  20429102.202   -24229735.308 9 -18848538.89248  20429102.357    20429112.1624
  23691608.034    -6687502.232 8  -5201988.00845  23691607.342    23691625.9404
 02  1 28  0 21 30.0000000  0  7 06 05 10 24 17 30 23
  22247887.463   -17486998.212 8 -12705001.34647  22247887.198    22247900.2154
  20686040.875   -23895583.013 9 -17843842.20948  20686040.212    20686050.9144
  20912511.364   -21716125.318 9 -16912830.83047  20912510.440    20912522.1004
  22299579.147   -14313763.356 8 -10722566.65947  22299578.843    22299591.8314
  24563828.346    -5813771.609 7  -4170954.12945  24563827.757    24563848.4194
  20425807.045   -24247051.106 9 -18862031.67448  20425807.198    20425817.0234
  23671923.293    -6790945.043 8  -5282592.46645  23671922.590    23671941.0864
 02  1 28  0 22  0.0000000  0  7 06 05 10 24 17 30 23
  22235741.226   -17550826.723 8 -12754737.70247  22235740.937    22235753.9174
  20696073.305   -23842862.212 9 -17802761.08248  20696072.647    20696083.3544
  20906498.082   -21747724.975 9 -16937453.85047  20906497.163    20906508.8124
  22313825.369   -14238899.250 8 -10664231.05047  22313825.050    22313838.0624
  24547685.920    -5898599.218 7  -4237053.18045  24547685.331    24547705.8524
  20422621.200   -24263792.497 9 -18875076.87448  20422621.364    20422631.1744
  23652257.550    -6894288.136 8  -5363119.21145  23652256.904    23652275.1994
 02  1 28  0 22 30.0000000  0  7 06 05 10 24 17 30 23
  22223608.808   -17614582.235 8 -12804417.18047  22223608.526    22223621.4864
  20706198.523   -23789653.763 9 -17761299.97348  20706197.877    20706208.5814
  20900599.094   -21778723.895 9 -16961608.76447  20900598.187    20900609.8174
  22328092.926   -14163922.818 8 -10605807.91047  22328092.623    22328105.6724
  24531573.480    -5983268.948 7  -4303029.20645  24531572.996    24531593.3594
  20419544.869   -24279958.481 9 -18887673.70348  20419545.043    20419554.8474
  23632611.230    -6997528.644 8  -5443565.99145  23632610.595    23632628.8614
 02  1 28  0 23  0.0000000  0  7 06 05 10 24 17 30 23
  22211490.394   -17678264.413 8 -12854039.50447  22211490.106    22211503.0494
  20716416.263   -23735959.319 9 -17719460.16248  20716415.624    20716426.3234
  20894814.677   -21809120.876 9 -16985294.63347  20894813.772    20894825.3824
  22342381.517   -14088835.914 8 -10547298.68547  22342381.211    22342394.2904
  24515491.154    -6067780.603 7  -4368882.06145  24515490.600    24515510.9724
  20416578.193   -24295548.325 9 -18899821.58948  20416578.367    20416588.1724
  23612984.938    -7100664.160 8  -5523930.95045  23612984.312    23613002.4954
 02  1 28  0 23 30.0000000  0  7 06 05 10 24 17 30 23
  22199386.114   -17741872.091 8 -12903603.78847  22199385.836    22199398.7624
  20726726.193   -23681780.117 9 -17677242.62448  20726725.556    20726736.2824
  20889145.077   -21838914.538 9 -17008510.38847  20889144.167    20889155.7404
  22356690.845   -14013639.980 8 -10488704.51546  22356690.535    22356703.6374
  24499439.025    -6152133.064 8  -4434610.84545  24499438.473    24499458.9404
  20413721.342   -24310560.993 9 -18911519.72948  20413721.505    20413731.3004
  23593379.171    -7203691.643 8  -5604211.71845  23593378.584    23593396.6354
 02  1 28  0 24  0.0000000  0  7 06 05 10 24 17 30 23
  22187296.157   -17805404.511 8 -12953109.42247  22187295.875    22187308.7784
  20737128.127   -23627117.722 9 -17634648.56748  20737127.475    20737138.2094
  20883590.483   -21868103.795 9 -17031255.17647  20883589.562    20883601.1284
  22371020.569   -13938336.978 8 -10430026.90246  22371020.265    22371033.4014
  24483417.374    -6236325.674 8  -4500215.09545  24483416.784    24483437.2434
  20410974.525   -24324995.508 9 -18922767.36048  20410974.696    20410984.4614
  23573794.484    -7306608.487 8  -5684406.25245  23573793.953    23573811.8604
 02  1 28  0 24 30.0000000  0  7 06 05 10 24 17 30 23
  22175220.778   -17868860.456 8 -13002555.46347  22175220.494    22175233.3694
  20747621.752   -23571973.514 9 -17591679.07348  20747621.111    20747631.8224
  20878151.216   -21896686.861 9 -17053527.61147  20878150.297    20878161.8624
  22385370.416   -13862928.274 8 -10371266.93146  22385370.091    22385383.2854
  24467426.270    -6320357.544 7  -4565694.08945  24467425.694    24467446.0414
  20408337.877   -24338850.922 9 -18933563.74548  20408338.042    20408347.8054
  23554231.372    -7409411.661 8  -5764512.20445  23554230.846    23554248.7554
 02  1 28  0 25  0.0000000  0  7 06 05 10 24 17 30 23
  22163160.039   -17932239.542 8 -13051941.61247  22163159.754    22163172.5764
  20758206.689   -23516349.317 9 -17548335.56248  20758206.033    20758216.7344
  20872827.478   -21924662.995 9 -17075327.11047  20872826.563    20872838.1054
  22399739.985   -13787415.823 8 -10312426.11346  22399739.673    22399752.8504
  24451465.923    -6404228.281 8  -4631047.53345  24451465.244    24451485.6014
  20405811.555   -24352126.684 9 -18943908.45148  20405811.721    20405821.4814
  23534690.384    -7512098.923 8  -5844527.83845  23534689.825    23534707.5824
 02  1 28  0 25 30.0000000  0  7 06 05 10 24 17 30 23
  22151114.028   -17995541.056 8 -13101267.31347  22151113.744    22151126.5284
  20768882.693   -23460246.734 9 -17504619.28248  20768882.032    20768892.7284
  20867619.382   -21952031.348 9 -17096653.02047  20867618.458    20867629.9714
  22414128.947   -13711801.421 8 -10253505.85046  22414128.652    22414141.8434
  24435536.331    -6487937.334 8  -4696274.98545  24435535.681    24435556.0144
  20403395.671   -24364822.055 9 -18953800.90448  20403395.833    20403405.5824
  23515171.933    -7614667.520 8  -5924451.00845  23515171.366    23515189.0394
 02  1 28  0 26  0.0000000  0  7 06 05 10 24 17 30 23
  22139082.994   -18058764.016 8 -13150531.81047  22139082.702    22139095.4414
  20779649.381   -23403667.392 9 -17460531.50148  20779648.709    20779659.4144
  20862527.176   -21978790.718 9 -17117504.39647  20862526.264    20862537.7284
  22428537.013   -13636086.889 8 -10194507.56246  22428536.747    22428549.9024
  24419637.655    -6571483.918 8  -4761375.84445  24419637.027    24419657.1314
  20401090.423   -24376936.203 9 -18963240.45348  20401090.579    20401100.3004
  23495676.618    -7717114.598 8  -6004279.47645  23495676.023    23495693.6064
 02  1 28  0 26 30.0000000  0  7 06 05 10 24 17 30 23
  22127067.110   -18121907.486 8 -13199734.35847  22127066.801    22127079.5134
  20790506.529   -23346612.654 9 -17416073.28648  20790505.872    20790516.5784
  20857551.111   -22004939.676 9 -17137880.13047  20857550.219    20857561.6434
  22442963.795   -13560273.955 8 -10135432.60046  22442963.499    22442976.6644
  24403770.001    -6654867.362 8  -4826349.58445  24403769.423    24403789.3114
  20398895.900   -24388468.299 9 -18972226.45548  20398896.048    20398905.7614
  23476204.997    -7819437.358 8  -6084011.07545  23476204.352    23476221.9374
 02  1 28  0 27  0.0000000  0  7 06 05 10 24 17 30 23
  22115066.438   -18184970.738 8 -13248874.40547  22115066.119    22115078.8334
  20801453.792   -23289084.223 9 -17371245.96248  20801453.144    20801463.8614
  20852691.423   -22030477.297 9 -17157779.49947  20852690.523    20852701.9284
  22457409.002   -13484364.073 8 -10076282.08846  22457408.689    22457421.8784
  24387933.548    -6738086.992 8  -4891195.66845  24387932.826    24387952.8124
  20396812.286   -24399417.635 9 -18980758.35948  20396812.441    20396822.1554
  23456757.525    -7921633.088 8  -6163643.69645  23456756.856    23456774.2864
 02  1 28  0 27 30.0000000  0  7 06 05 10 24 17 30 23
  22103081.232   -18247952.600 8 -13297951.03547  22103080.906    22103093.6244
  20812490.989   -23231083.479 9 -17326050.59848  20812490.343    20812501.0884
  20847948.219   -22055402.672 9 -17177201.79347  20847947.327    20847958.7134
  22471872.280   -13408358.969 8 -10017057.38746  22471871.977    22471885.1794
  24372128.439    -6821142.070 8  -4955913.52445  24372127.768    24372147.6624
  20394839.688   -24409783.402 9 -18988835.53248  20394839.856    20394849.5634
  23437334.722    -8023698.990 8  -6243175.16745  23437334.062    23437351.3914
 02  1 28  0 28  0.0000000  0  7 06 05 10 24 17 30 23
  22091111.684   -18310852.396 8 -13346963.71147  22091111.372    22091124.0624
  20823617.704   -23172612.287 9 -17280488.65347  20823617.050    20823627.8074
  20843321.714   -22079714.734 9 -17196146.18747  20843320.809    20843332.1904
  22486353.421   -13332260.231 8  -9957759.71546  22486353.122    22486366.3504
  24356354.717    -6904032.054 8  -5020502.74545  24356354.067    24356373.8744
  20392978.267   -24419565.014 9 -18996457.51848  20392978.435    20392988.1554
  23417937.127    -8125632.513 8  -6322603.48945  23417936.431    23417953.6024
 02  1 28  0 28 30.0000000  0  7 06 05 10 24 17 30 23
  22079157.978   -18373668.854 8 -13395911.44547  22079157.697    22079170.3224
  20834833.703   -23113671.915 9 -17234561.11547  20834833.055    20834843.8154
  20838812.210   -22103412.010 9 -17214611.52447  20838811.321    20838822.6834
  22500852.065   -13256069.495 8  -9898390.36446  22500851.774    22500865.0034
  24340612.620    -6986756.066 8  -5084962.63745  24340612.035    24340631.6394
  20391228.159   -24428761.585 9 -19003623.62848  20391228.336    20391238.0414
  23398565.306    -8227430.503 8  -6401926.21945  23398564.551    23398581.6584
 02  1 28  0 29  0.0000000  0  7 06 05 10 24 17 30 23
  22067220.204   -18436401.751 8 -13444794.07347  22067219.922    22067232.5174
  20846138.590   -23054264.372 9 -17188269.55047  20846137.929    20846148.7144
  20834419.764   -22126494.177 9 -17232597.56247  20834418.862    20834430.2124
  22515367.800   -13179788.962 8  -9838951.03546  22515367.495    22515380.7294
  24324902.116    -7069313.961 8  -5149293.08645  24324901.572    24324920.9124
  20389589.420   -24437372.912 9 -19010333.70648  20389589.601    20389599.2974
  23379219.663    -8329090.885 8  -6481141.74145  23379218.934    23379235.9324
 02  1 28  0 29 30.0000000  0  7 06 05 10 24 17 30 23
  22055298.557   -18499049.666 8 -13493610.49047  22055298.275    22055310.8554
  20857532.144   -22994390.927 9 -17141614.94047  20857531.491    20857542.2954
  20830144.649   -22148959.767 9 -17250103.15547  20830143.752    20830155.1024
  22529900.438   -13103419.552 8  -9779442.45546  22529900.124    22529913.3794
  24309223.455    -7151704.578 8  -5213493.19245  24309222.906    24309242.0604
  20388062.315   -24445397.702 9 -19016586.74248  20388062.488    20388072.1754
  23359900.873    -8430610.294 8  -6560247.41045  23359900.228    23359917.0904
 02  1 28  0 30  0.0000000  0  7 06 05 10 24 17 30 23
  22043393.233   -18561611.776 8 -13542360.03747  22043392.947    22043405.5374
  20869013.931   -22934053.655 9 -17094598.91347  20869013.283    20869024.1084
  20825986.931   -22170808.303 9 -17267127.92747  20825986.050    20825997.3884
  22544449.649   -13026963.137 8  -9719866.08346  22544449.352    22544462.5984
  24293576.684    -7233927.467 8  -5277562.61645  24293576.108    24293595.2274
  20386646.848   -24452835.782 9 -19022382.60048  20386647.018    20386656.6854
  23340609.331    -8531986.466 8  -6639241.49845  23340608.713    23340625.5004
 02  1 28  0 30 30.0000000  0  7 06 05 10 24 17 30 23
  22031504.482   -18624086.672 8 -13591041.62947  22031504.217    22031516.8174
  20880583.764   -22873253.889 9 -17047222.49847  20880583.113    20880593.9684
  20821946.968   -22192038.106 9 -17283670.56747  20821946.087    20821957.4174
  22559015.196   -12950420.969 8  -9660222.88946  22559014.859    22559028.1624
  24277961.984    -7315981.734 8  -5341500.66145  24277961.388    24277980.5174
  20385343.285   -24459685.981 9 -19027720.37248  20385343.461    20385353.1114
  23321345.660    -8633216.126 8  -6718121.42345  23321345.010    23321361.7794
 02  1 28  0 31  0.0000000  0  7 06 05 10 24 17 30 23
  22019632.441   -18686473.902 8 -13639654.92547  22019632.176    22019644.7864
  20892241.243   -22811993.522 9 -16999487.17647  20892240.603    20892251.4564
  20818024.830   -22212648.834 9 -17299730.81247  20818023.942    20818035.2604
  22573596.613   -12873795.280 8  -9600514.61846  22573596.284    22573609.5874
  24262379.382    -7397867.049 8  -5405307.03745  24262378.746    24262397.8634
  20384151.560   -24465948.250 9 -19032600.01448  20384151.735    20384161.3704
  23302110.396    -8734296.738 8  -6796885.22945  23302109.736    23302126.4734
 02  1 28  0 31 30.0000000  0  7 06 05 10 24 17 30 23
  22007777.360   -18748772.223 8 -13688198.94247  22007777.113    22007789.6854
  20903986.123   -22750273.850 9 -16951393.95147  20903985.472    20903996.3524
  20814220.748   -22232639.194 9 -17315307.65947  20814219.865    20814231.1644
  22588193.656   -12797087.390 8  -9540742.28146  22588193.329    22588206.6724
  24246829.128    -7479582.563 8  -5468981.12145  24246828.501    24246847.4654
  20383071.866   -24471621.775 9 -19037020.90248  20383072.043    20383081.6874
  23282904.057    -8835225.295 8  -6875530.56245  23282903.392    23282920.0804
 02  1 28  0 32  0.0000000  0  7 06 05 10 24 17 30 23
  21995939.349   -18810981.030 8 -13736673.20147  21995939.098    21995951.6334
  20915817.952   -22688097.277 9 -16902944.69847  20915817.301    20915828.1864
  20810534.759   -22252009.017 9 -17330400.97047  20810533.867    20810545.1764
  22602806.067   -12720298.756 8  -9480907.03546  22602805.773    22602819.1314
  24231311.240    -7561127.940 8  -5532522.63645  24231310.673    24231329.5654
  20382104.255   -24476706.388 9 -19040982.89248  20382104.433    20382114.0634
  23263727.075    -8935999.581 8  -6954055.69045  23263726.428    23263743.0374
 02  1 28  0 32 30.0000000  0  7 06 05 10 24 17 30 23
  21984118.653   -18873098.941 8 -13785076.63447  21984118.402    21984130.8554
  20927736.472   -22625465.183 9 -16854140.49647  20927735.840    20927746.7214
  20806967.058   -22270757.231 9 -17345009.91247  20806966.167    20806977.4614
  22617433.545   -12643430.940 8  -9421010.09146  22617433.267    22617446.6554
  24215825.914    -7642502.518 8  -5595931.07145  24215825.283    24215844.1954
  20381248.833   -24481201.439 9 -19044485.49048  20381249.005    20381258.6354
  23244580.005    -9036616.683 8  -7032458.35945  23244579.363    23244595.9084
 02  1 28  0 33  0.0000000  0  7 06 05 10 24 17 30 23
  21972315.342   -18935125.334 8 -13833408.76447  21972315.083    21972327.4924
  20939741.290   -22562379.504 9 -16804982.85447  20939740.649    20939751.5434
  20803517.692   -22288883.505 9 -17359134.22547  20803516.795    20803528.0934
  22632075.744   -12566485.791 8  -9361052.88746  22632075.420    22632088.8874
  24200373.144    -7723705.941 8  -5659206.14145  24200372.502    24200391.3624
  20380505.714   -24485106.573 9 -19047528.41348  20380505.889    20380515.4914
  23225463.370    -9137073.954 8  -7110736.47145  23225462.738    23225479.2814
 02  1 28  0 33 30.0000000  0  7 06 05 10 24 17 30 23
  21960529.654   -18997059.021 8 -13881668.65047  21960529.412    21960541.7594
  20951832.101   -22498842.034 9 -16755473.16547  20951831.459    20951842.3584
  20800186.886   -22306386.639 9 -17372772.97047  20800185.991    20800197.2804
  22646732.361   -12489464.873 8  -9301036.64846  22646732.084    22646745.5534
  24184953.131    -7804737.249 8  -5722347.11945  24184952.486    24184971.2474
  20379874.905   -24488421.269 9 -19050111.25148  20379875.066    20379884.6544
  23206377.686    -9237368.577 8  -7188887.85346  23206377.070    23206393.5834
 02  1 28  0 34  0.0000000  0  7 06 05 10 24 17 30 23
  21948761.791   -19058899.124 9 -13929855.62547  21948761.549    21948773.8734
  20964008.532   -22434854.587 9 -16705612.85247  20964007.889    20964018.7864
  20796974.825   -22323265.848 9 -17385925.54547  20796973.925    20796985.2134
  22661403.110   -12412369.617 8  -9240962.48046  22661402.817    22661416.3664
  24169565.947    -7885596.111 8  -5785353.72145  24169565.348    24169584.0644
  20379356.576   -24491145.016 9 -19052233.61648  20379356.735    20379366.3124
  23187323.455    -9337497.798 8  -7266910.36146  23187322.851    23187339.3224
 02  1 28  0 34 30.0000000  0  7 06 05 10 24 17 30 23
  21937011.942   -19120644.494 8 -13977968.77847  21937011.713    21937023.9984
  20976270.202   -22370419.138 9 -16655403.44447  20976269.561    20976280.4594
  20793881.544   -22339521.039 9 -17398591.87147  20793880.646    20793891.9194
  22676087.730   -12335201.524 8  -9180831.57046  22676087.452    22676101.0434
  24154211.692    -7966282.005 8  -5848225.56745  24154211.028    24154229.6734
  20378950.736   -24493277.635 9 -19053895.36148  20378950.896    20378960.4694
  23168301.283    -9437458.891 8  -7344801.85346  23168300.639    23168317.0524
 02  1 28  0 35  0.0000000  0  7 06 05 10 24 17 30 23
  21925280.304   -19182294.174 9 -14026007.36447  21925280.065    21925292.3254
  20988616.809   -22305537.378 9 -16604846.26347  20988616.173    20988627.0664
  20790907.156   -22355151.318 9 -17410771.25347  20790906.265    20790917.4934
  22690785.993   -12257962.057 8  -9120645.03146  22690785.706    22690799.3014
  24138890.490    -8046794.229 8  -5910962.08345  24138889.845    24138908.4074
  20378657.453   -24494818.692 9 -19055096.15248  20378657.609    20378667.1784
  23149311.617    -9537249.090 8  -7422560.18246  23149310.936    23149327.3474
 02  1 28  0 35 30.0000000  0  7 06 05 10 24 17 30 23
  21913567.011   -19243847.578 9 -14073970.93247  21913566.753    21913578.9874
  21001047.964   -22240211.483 9 -16553943.00247  21001047.337    21001058.2174
  20788051.810   -22370156.100 9 -17422463.23347  20788050.922    20788062.1184
  22705497.374   -12180653.542 8  -9060404.67746  22705497.091    22705510.6674
  24123602.385    -8127132.718 8  -5973563.23545  24123601.769    24123620.2494
  20378476.713   -24495768.258 9 -19055836.04348  20378476.874    20378486.4374
  23130354.879    -9636865.941 8  -7500183.44246  23130354.249    23130370.6204
 02  1 28  0 36  0.0000000  0  7 06 05 10 24 17 30 23
  21901872.320   -19305303.090 9 -14121858.22447  21901872.070    21901884.2704
  21013563.331   -22174442.928 9 -16502694.81147  21013562.703    21013573.5874
  20785315.632   -22384534.630 9 -17433667.22447  20785314.746    20785325.9384
  22720221.788   -12103276.602 8  -9000111.01246  22720221.498    22720235.0604
  24108347.591    -8207296.169 8  -6036028.00045  24108347.029    24108365.3594
  20378408.710   -24496125.318 9 -19056114.23748  20378408.881    20378418.4384
  23111431.736    -9736306.471 8  -7577669.28946  23111431.150    23111447.4594
 02  1 28  0 36 30.0000000  0  7 06 05 10 24 17 30 23
  21890196.366   -19366660.062 9 -14169668.73247  21890196.123    21890208.2664
  21026162.488   -22108233.973 9 -16451103.45447  21026161.851    21026172.7504
  20782698.694   -22398286.595 9 -17444382.97947  20782697.808    20782708.9824
  22734958.844   -12025833.084 8  -8939765.47546  22734958.526    22734972.1104
  24093126.106    -8287284.641 8  -6098356.39645  24093125.487    24093143.7874
  20378453.448   -24495890.098 9 -19055930.91648  20378453.630    20378463.1784
  23092542.611    -9835568.156 8  -7655015.77046  23092542.026    23092558.2494
 02  1 28  0 37  0.0000000  0  7 06 05 10 24 17 30 23
  21878539.405   -19427917.334 9 -14217401.54947  21878539.153    21878551.2604
  21038845.149   -22041586.366 9 -16399170.28847  21038844.511    21038855.4144
  20780201.066   -22411411.383 9 -17454610.02447  20780200.187    20780211.3384
  22749708.291   -11948324.482 8  -8879369.22146  22749707.965    22749721.5614
  24077938.005    -8367097.368 8  -6160547.88245  24077937.381    24077955.6384
  20378611.000   -24495062.060 9 -19055285.66048  20378611.171    20378620.7274
  23073688.109    -9934648.243 8  -7732220.73946  23073687.539    23073703.6804
 02  1 28  0 37 30.0000000  0  7 06 05 10 24 17 30 23
  21866901.660   -19489073.610 9 -14265055.67147  21866901.399    21866913.4494
  21051610.978   -21974501.578 9 -16346896.46547  21051610.333    21051621.2554
  20777822.939   -22423908.236 9 -17464347.77347  20777822.053    20777833.1904
  22764469.879   -11870751.920 8  -8818923.12746  22764469.565    22764483.1734
  24062783.538    -8446733.717 8  -6222601.91245  24062782.852    24062801.0564
  20378881.385   -24493640.859 9 -19054178.20148  20378881.554    20378891.1044
  23054868.669   -10033543.679 8  -7809281.82546  23054868.107    23054884.2454
 02  1 28  0 38  0.0000000  0  7 06 05 10 24 17 30 23
  21855283.240   -19550128.231 9 -14312630.58447  21855282.993    21855294.9944
  21064459.511   -21906982.234 9 -16294284.02247  21064458.869    21064469.8224
  20775564.300   -22435777.154 9 -17473596.21547  20775563.427    20775574.5564
  22779243.271   -11793117.412 8  -8758428.76246  22779242.938    22779256.5574
  24047662.658    -8526193.350 8  -6284518.23745  24047662.061    24047680.1124
  20379264.650   -24491626.633 9 -19052608.64248  20379264.829    20379274.3664
  23036084.836   -10132252.055 8  -7886197.13346  23036084.311    23036100.3564
 02  1 28  0 38 30.0000000  0  7 06 05 10 24 17 30 23
  21843684.523   -19611079.470 9 -14360124.93647  21843684.282    21843696.2644
  21077390.481   -21839029.734 9 -16241334.06147  21077389.837    21077400.8084
  20773425.307   -22447017.275 9 -17482354.69347  20773424.428    20773435.5624
  22794028.240   -11715422.126 8  -8697887.03646  22794027.913    22794041.5434
  24032575.568    -8605475.594 8  -6346296.34745  24032574.965    24032592.9144
  20379760.887   -24489018.771 9 -19050576.51148  20379761.065    20379770.5984
  23017337.186   -10230770.323 8  -7962964.30546  23017336.650    23017352.6184
 02  1 28  0 39  0.0000000  0  7 06 05 10 24 17 30 23
  21832105.570   -19671926.761 9 -14407538.28547  21832105.308    21832117.2884
  21090403.408   -21770646.427 9 -16188048.40547  21090402.768    21090413.7594
  20771405.999   -22457628.541 9 -17490623.15047  20771405.126    20771416.2364
  22808824.436   -11637667.812 8  -8637299.31846  22808824.090    22808837.7564
  24017522.249    -8684580.242 8  -6407936.05645  24017521.636    24017539.4524
  20380370.020   -24485817.597 9 -19048082.05848  20380370.193    20380379.7094
  22998626.190   -10329096.254 8  -8039581.59246  22998625.613    22998641.5444
 02  1 28  0 39 30.0000000  0  7 06 05 10 24 17 30 23
  21820546.647   -19732668.771 9 -14454869.60347  21820546.400    21820558.3714
  21103497.971   -21701833.966 9 -16134428.34147  21103497.333    21103508.3254
  20769506.469   -22467610.341 9 -17498401.11547  20769505.581    20769516.6764
  22823631.701   -11559855.379 8  -8576666.30946  22823631.339    22823645.0214
  24002502.916    -8763506.425 8  -6469436.69745  24002502.294    24002520.0224
  20381092.198   -24482022.492 9 -19045124.80448  20381092.363    20381101.8754
  22979952.378   -10427226.568 8  -8116046.45546  22979951.821    22979967.5864
 02  1 28  0 40  0.0000000  0  7 06 05 10 24 17 30 23
  21809007.873   -19793304.926 9 -14502118.44347  21809007.628    21809019.5754
  21116673.787   -21632594.817 9 -16080475.79747  21116673.161    21116684.1474
  20767726.768   -22476962.431 9 -17505688.40447  20767725.873    20767736.9474
  22838449.632   -11481986.844 8  -8515989.58346  22838449.290    22838462.9684
  23987517.563    -8842254.062 8  -6530798.22445  23987516.948    23987534.5834
  20381927.338   -24477633.723 9 -19041704.95348  20381927.505    20381936.9934
  22961316.215   -10525159.123 8  -8192357.20946  22961315.652    22961331.3434
 02  1 28  0 40 30.0000000  0  7 06 05 10 24 17 30 23
  21797489.551   -19853833.621 9 -14549283.53947  21797489.302    21797501.2194
  21129930.508   -21562930.465 9 -16026191.92347  21129929.874    21129940.8544
  20766066.959   -22485684.514 9 -17512484.77547  20766066.072    20766077.1194
  22853278.052   -11404063.214 8  -8455269.92046  22853277.715    22853291.3784
  23972566.337    -8920822.378 8  -6592020.00945  23972565.699    23972583.2514
  20382875.470   -24472651.146 9 -19037822.39648  20382875.639    20382885.1154
  22942718.264   -10622890.916 8  -8268511.53246  22942717.708    22942733.2644
 02  1 28  0 41  0.0000000  0  7 06 05 10 24 17 30 23
  21785991.843   -19914254.004 9 -14596364.23747  21785991.592    21786003.4734
  21143267.673   -21492843.247 9 -15971578.54847  21143267.041    21143278.0274
  20764527.059   -22493776.464 9 -17518790.13947  20764526.188    20764537.2004
  22868116.557   -11326086.416 8  -8394508.83046  22868116.213    22868129.9644
  23957649.242    -8999211.063 8  -6653101.81145  23957648.625    23957666.0524
  20383936.594   -24467074.678 9 -19033477.06948  20383936.774    20383946.2484
  22924159.001   -10720419.329 8  -8344507.36946  22924158.476    22924173.8894
 02  1 28  0 41 30.0000000  0  7 06 05 10 24 17 30 23
  21774515.023   -19974564.523 9 -14643359.32747  21774514.777    21774526.6254
  21156685.026   -21422334.768 9 -15916636.92047  21156684.392    21156695.3774
  20763107.268   -22501237.370 9 -17524603.78147  20763106.381    20763117.3624
  22882965.062   -11248057.162 8  -8333706.87846  22882964.753    22882978.5664
  23942766.441    -9077419.386 8  -6714043.07445  23942765.898    23942783.2244
  20385110.783   -24460904.005 9 -19028668.72348  20385110.971    20385120.4544
  22905639.023   -10817741.448 8  -8420342.47546  22905638.466    22905653.7734
 02  1 28  0 42  0.0000000  0  7 06 05 10 24 17 30 23
  21763059.223   -20034764.607 9 -14690268.36747  21763058.968    21763070.8094
  21170182.074   -21351407.576 9 -15861369.01547  21170181.428    21170192.4174
  20761807.435   -22508067.747 9 -17529926.10147  20761806.560    20761817.4984
  22897823.110   -11169977.783 8  -8272865.85946  22897822.777    22897836.6114
  23927918.026    -9155447.280 8  -6774843.74545  23927917.458    23927934.7694
  20386398.018   -24454139.431 9 -19023397.59248  20386398.210    20386407.6904
  22887158.704   -10914855.062 8  -8496015.10646  22887158.130    22887173.3434
 02  1 28  0 42 30.0000000  0  7 06 05 10 24 17 30 23
  21751624.747   -20094852.422 9 -14737089.92547  21751624.494    21751636.3284
  21183758.532   -21280062.929 9 -15805775.82647  21183757.879    21183768.8854
  20760627.847   -22514266.371 9 -17534756.15047  20760626.957    20760637.8774
  22912690.604   -11091848.784 8  -8211986.16446  22912690.265    22912704.0874
  23913104.148    -9233293.469 8  -6835502.81945  23913103.603    23913120.8034
  20387798.381   -24446780.415 9 -19017663.26448  20387798.561    20387808.0464
  22868718.698   -11011756.719 8  -8571522.60046  22868718.146    22868733.2494
 02  1 28  0 43  0.0000000  0  7 06 05 10 24 17 30 23
  21740211.760   -20154827.626 9 -14783823.73047  21740211.505    21740223.3434
  21197413.867   -21208303.751 9 -15749859.62747  21197413.226    21197424.2344
  20759568.288   -22519834.194 9 -17539094.66547  20759567.401    20759578.3034
  22927567.142   -11013672.239 8  -8151069.42146  22927566.816    22927580.6624
  23898324.755    -9310958.588 8  -6896020.80645  23898324.285    23898341.2594
  20389311.707   -24438827.794 9 -19011466.38148  20389311.883    20389321.3754
  22850319.401   -11108444.545 8  -8646863.44846  22850318.814    22850333.7814
 02  1 28  0 43 30.0000000  0  7 06 05 10 24 17 30 23
  21728820.559   -20214688.227 9 -14830468.24147  21728820.311    21728832.1394
  21211147.798   -21136131.574 9 -15693621.61047  21211147.148    21211158.1774
  20758628.941   -22524770.346 9 -17542940.97347  20758628.061    20758638.9394
  22942452.564   -10935448.802 8  -8090116.14146  22942452.280    22942466.1184
  23883580.107    -9388441.197 8  -6956396.58645  23883579.572    23883596.5414
  20390938.082   -24430280.922 9 -19004806.45248  20390938.257    20390947.7484
  22831961.460   -11204915.158 8  -8722035.07146  22831960.843    22831975.7324
 02  1 28  0 44  0.0000000  0  7 06 05 10 24 17 30 23
  21717451.265   -20274433.870 9 -14877023.17547  21717451.002    21717462.7814
  21224959.805   -21063549.081 9 -15637063.86447  21224959.176    21224970.2004
  20757809.685   -22529075.418 9 -17546295.52547  20757808.798    20757819.6624
  22957346.631   -10857180.383 8  -8029127.81146  22957346.340    22957360.1474
  23868870.115    -9465741.795 8  -7016630.54145  23868869.546    23868886.4864
  20392677.413   -24421140.390 9 -18997683.92748  20392677.603    20392687.0844
  22813645.207   -11301166.590 8  -8797035.90946  22813644.593    22813659.3324
 02  1 28  0 44 30.0000000  0  7 06 05 10 24 17 30 23
  21706104.147   -20334063.069 9 -14923487.36947  21706103.877    21706115.6294
  21238849.570   -20990557.991 9 -15580187.73347  21238848.941    21238859.9724
  20757110.604   -22532748.911 9 -17549157.93747  20757109.722    20757120.5544
  22972248.931   -10778868.377 8  -7968105.51546  22972248.653    22972262.4844
  23854194.856    -9542859.633 8  -7076722.07945  23854194.285    23854211.1784
  20394529.750   -24411406.235 9 -18990098.83848  20394529.931    20394539.4044
  22795371.251   -11397195.795 8  -8871863.58746  22795370.653    22795385.2814
 02  1 28  0 45  0.0000000  0  7 06 05 10 24 17 30 23
  21694779.433   -20393574.536 9 -14969859.82347  21694779.157    21694790.8534
  21252816.697   -20917160.314 9 -15522994.78547  21252816.062    21252827.1124
  20756531.798   -22535790.518 9 -17551527.97347  20756530.923    20756541.7304
  22987159.371   -10700513.907 8  -7907050.12846  22987159.090    22987172.8954
  23839554.461    -9619794.125 8  -7136670.74945  23839553.951    23839570.8074
  20396495.055   -24401078.452 9 -18982051.18348  20396495.240    20396504.6724
  22777140.122   -11493000.018 8  -8946515.95746  22777139.485    22777154.0424
 02  1 28  0 45 30.0000000  0  7 06 05 10 24 17 30 23
  21683477.215   -20452967.424 9 -15016139.88047  21683476.961    21683488.6394
  21266860.737   -20843358.533 9 -15465486.94747  21266860.099    21266871.1594
  20756073.138   -22538200.685 9 -17553405.97247  20756072.260    20756083.0474
  23002077.641   -10622118.167 8  -7845962.57646  23002077.373    23002091.1434
  23824949.024    -9696545.148 8  -7196476.45445  23824948.552    23824965.3454
  20398573.286   -24390157.313 9 -18973541.17248  20398573.461    20398582.8774
  22758952.284   -11588576.864 8  -9020991.15746  22758951.676    22758966.1244
 02  1 28  0 46  0.0000000  0  7 06 05 10 24 17 30 23
  21672197.858   -20512240.195 9 -15062326.33947  21672197.610    21672209.2784
  21280981.295   -20769154.631 9 -15407665.77347  21280980.674    21280991.7474
  20755734.715   -22539978.962 9 -17554791.58747  20755733.834    20755744.6034
  23017003.402   -10543682.944 8  -7784844.26646  23017003.130    23017016.9164
  23810378.622    -9773112.004 8  -7256138.66145  23810378.179    23810394.8694
  20400764.373   -24378642.857 9 -18964568.83948  20400764.555    20400773.9434
  22740808.249   -11683923.462 8  -9095286.95946  22740807.637    22740822.0134
 02  1 28  0 46 30.0000000  0  7 06 05 10 24 17 30 23
  21660941.572   -20571391.906 9 -15108418.46747  21660941.323    21660952.9474
  21295177.968   -20694550.686 9 -15349532.87847  21295177.335    21295188.4374
  20755516.454   -22541125.649 9 -17555685.05447  20755515.566    20755526.3534
  23031936.471   -10465209.356 8  -7723696.06546  23031936.202    23031949.9594
  23795843.333    -9849494.482 8  -7315657.19246  23795842.891    23795859.4884
  20403068.316   -24366535.574 9 -18955134.56548  20403068.490    20403077.8804
  22722708.458   -11779037.336 8  -9169401.41846  22722707.847    22722722.1714
 02  1 28  0 47  0.0000000  0  7 06 05 10 24 17 30 23
  21649708.622   -20630421.005 9 -15154415.05747  21649708.369    21649719.9584
  21309450.362   -20619548.802 9 -15291089.90647  21309449.735    21309460.8554
  20755418.459   -22541640.533 9 -17556086.20847  20755417.573    20755428.3404
  23046876.692   -10386698.273 8  -7662518.62846  23046876.399    23046890.1574
  23781343.241    -9925691.812 8  -7375031.44846  23781342.830    23781359.3654
  20405485.053   -24353835.343 9 -18945238.25148  20405485.237    20405494.6164
  22704653.563   -11873915.427 8  -9243332.15746  22704652.946    22704667.2484
 02  1 28  0 47 30.0000000  0  7 06 05 10 24 17 30 23
  21638499.158   -20689326.757 9 -15200315.52447  21638498.919    21638510.4724
  21323797.939   -20544151.810 9 -15232339.05547  21323797.302    21323808.4544
  20755440.523   -22541524.267 9 -17555995.55147  20755439.638    20755450.4054
  23061823.716   -10308151.436 8  -7601313.35146  23061823.412    23061837.1674
  23766878.355   -10001704.356 8  -7434261.73146  23766877.843    23766894.3494
  20408014.473   -24340542.883 9 -18934880.46248  20408014.676    20408024.0454
  22686643.918   -11968555.698 8  -9317077.58846  22686643.314    22686657.5564
 02  1 28  0 48  0.0000000  0  7 06 05 10 24 17 30 23
  21627313.408   -20748107.953 9 -15246118.94147  21627313.153    21627324.6844
  21338220.373   -20468361.609 9 -15173281.80747  21338219.748    21338230.9034
  20755582.704   -22540776.867 9 -17555413.10247  20755581.810    20755592.5824
  23076777.218   -10229570.328 8  -7540081.36146  23076776.950    23076790.6734
  23752448.706   -10077531.557 8  -7493347.56746  23752448.223    23752464.5854
  20410656.534   -24326658.551 9 -18924061.47548  20410656.727    20410666.1144
  22668680.033   -12062955.602 8  -9390635.72046  22668679.440    22668693.6094
 02  1 28  0 48 30.0000000  0  7 06 05 10 24 17 30 23
  21616151.654   -20806762.805 9 -15291823.90147  21616151.410    21616162.9414
  21352717.281   -20392180.087 9 -15113919.63147  21352716.652    21352727.8334
  20755845.101   -22539397.902 9 -17554338.52747  20755844.208    20755854.9754
  23091736.991   -10150956.231 8  -7478823.66146  23091736.683    23091750.4494
  23738054.458   -10153172.756 8  -7552288.48746  23738053.978    23738070.2544
  20413411.227   -24312182.358 9 -18912781.29748  20413411.429    20413420.8184
  22650762.432   -12157112.150 8  -9464004.23946  22650761.814    22650775.9434
 02  1 28  0 49  0.0000000  0  7 06 05 10 24 17 30 23
  21605014.181   -20865289.966 9 -15337429.36247  21605013.940    21605025.4674
  21367288.259   -20315609.180 9 -15054254.03747  21367287.644    21367298.8354
  20756227.532   -22537387.930 9 -17552772.25147  20756226.643    20756237.4044
  23106702.827   -10072310.159 8  -7417541.05646  23106702.582    23106716.3774
  23723695.686   -10228627.346 8  -7611083.99546  23723695.188    23723711.3874
  20416278.577   -24297114.249 9 -18901039.88548  20416278.784    20416288.1644
  22632891.717   -12251022.344 8  -9537180.78546  22632891.116    22632905.1514
 02  1 28  0 49 30.0000000  0  7 06 05 10 24 17 30 23
  21593901.164   -20923688.870 9 -15382934.88347  21593900.904    21593912.4184
  21381932.744   -20238651.911 9 -14994287.38947  21381932.116    21381943.3394
  20756729.964   -22534747.385 9 -17550714.62647  20756729.066    20756739.8274
  23121674.506    -9993633.634 8  -7356234.70246  23121674.228    23121688.0704
  23709372.368   -10303895.543 8  -7669734.26246  23709371.824    23709387.9854
  20419258.365   -24281455.295 9 -18888838.07848  20419258.572    20419267.9404
  22615068.308   -12344684.077 8  -9610163.73546  22615067.725    22615081.6764
 02  1 28  0 50  0.0000000  0  7 06 05 10 24 17 30 23
  21582812.845   -20981957.703 9 -15428339.04747  21582812.600    21582824.0804
  21396650.514   -20161309.648 9 -14934020.74347  21396649.897    21396661.1514
  20757352.507   -22531475.659 9 -17548165.16947  20757351.615    20757362.3714
  23136651.783    -9914927.482 8  -7294905.27646  23136651.510    23136665.3534
  23695084.693   -10378976.577 8  -7728238.69346  23695084.155    23695100.2834
  20422350.602   -24265205.438 9 -18876175.82548  20422350.821    20422360.1754
  22597292.763   -12438094.225 8  -9682950.65046  22597292.181    22597306.0704
 02  1 28  0 50 30.0000000  0  7 06 05 10 24 17 30 23
  21571749.511   -21040095.441 9 -15473641.05547  21571749.269    21571760.7064
  21411441.052   -20083585.120 9 -14873456.22947  21411440.428    21411451.7234
  20758095.008   -22527573.438 9 -17545124.41847  20758094.121    20758104.8804
  23151634.493    -9836192.847 8  -7233553.64246  23151634.247    23151648.0744
  23680832.663   -10453870.243 8  -7786597.12346  23680832.132    23680848.2014
  20425555.169   -24248365.192 9 -18863053.53048  20425555.382    20425564.7234
  22579565.563   -12531250.475 8  -9755539.71646  22579564.993    22579578.8094
 02  1 28  0 51  0.0000000  0  7 06 05 10 24 17 30 23
  21560711.340   -21098101.111 9 -15518840.15047  21560711.090    21560722.4954
  21426303.811   -20005480.820 9 -14812595.79747  21426303.199    21426314.4924
  20758957.345   -22523041.488 9 -17541592.97647  20758956.464    20758967.2214
  23166622.358    -9757431.475 8  -7172181.19046  23166622.051    23166635.9334
  23666616.306   -10528576.575 8  -7844809.58746  23666615.773    23666631.8134
  20428871.972   -24230935.310 9 -18849471.78148  20428872.176    20428881.5304
  22561887.102   -12624150.388 8  -9827929.05146  22561886.561    22561900.2864
 02  1 28  0 51 30.0000000  0  7 06 05 10 24 17 30 23
  21549698.597   -21155973.060 9 -15563935.05047  21549698.334    21549709.7184
  21441238.527   -19926998.630 9 -14751440.90147  21441237.920    21441249.2284
  20759939.583   -22517879.552 9 -17537570.63747  20759938.694    20759949.4544
  23181615.065    -9678644.538 8  -7110788.81146  23181614.722    23181628.6324
  23652435.763   -10603094.840 8  -7902875.50746  23652435.250    23652451.2024
  20432300.895   -24212915.985 9 -18835430.72848  20432301.092    20432310.4574
  22544257.994   -12716791.215 8  -9900116.49146  22544257.436    22544271.1344
 02  1 28  0 52  0.0000000  0  7 06 05 10 24 17 30 23
  21538711.495   -21213710.247 9 -15608924.93547  21538711.221    21538722.5704
  21456244.598   -19848141.282 9 -14689993.66947  21456243.981    21456255.3324
  20761041.509   -22512088.536 9 -17533058.10647  20761040.621    20761051.3844
  23196612.341    -9599833.475 8  -7049377.62446  23196612.029    23196625.9474
  23638290.976   -10677425.132 8  -7960794.95846  23638290.442    23638306.3404
  20435841.818   -24194308.144 9 -18820931.08948  20435842.011    20435851.3854
  22526678.613   -12809170.553 8  -9972100.18246  22526678.036    22526691.7524
 02  1 28  0 52 30.0000000  0  7 06 05 10 24 17 30 23
  21527750.296   -21271311.113 9 -15653808.59947  21527750.029    21527761.3214
  21471321.718   -19768910.711 9 -14628255.61747  21471321.104    21471332.4884
  20762263.163   -22505668.296 9 -17528055.27347  20762262.285    20762273.0644
  23211614.089    -9520998.823 8  -6987948.06746  23211613.774    23211627.7174
  23624182.132   -10751566.664 8  -8018567.31946  23624181.550    23624197.3874
  20439494.758   -24175111.622 9 -18805972.73648  20439494.952    20439504.3344
  22509149.528   -12901285.482 8 -10043877.83646  22509148.961    22509162.6524
 02  1 28  0 53  0.0000000  0  7 06 05 10 24 17 30 23
  21516815.229   -21328774.626 9 -15698585.23747  21516814.979    21516826.2124
  21486469.389   -19689309.527 9 -14566228.77447  21486468.767    21486480.1574
  20763604.434   -22498619.582 9 -17522562.72747  20763603.557    20763614.3414
  23226620.091    -9442141.916 8  -6926501.17646  23226619.746    23226633.7664
  23610109.190   -10825519.484 8  -8076192.65446  23610108.602    23610124.4164
  20443259.510   -24155327.539 9 -18790556.54748  20443259.696    20443269.0854
  22491671.219   -12993133.659 8 -10115447.63846  22491670.641    22491684.3184
 02  1 28  0 53 30.0000000  0  7 06 05 10 24 17 30 23
  21505906.583   -21386099.481 9 -15743253.82947  21505906.331    21505917.5344
  21501687.136   -19609339.965 9 -14503914.88247  21501686.522    21501697.8804
  20765065.257   -22490942.661 9 -17516580.66947  20765064.385    20765075.1504
  23241630.016    -9363264.514 8  -6865038.28846  23241629.704    23241643.6374
  23596072.210   -10899283.234 8  -8133670.65646  23596071.590    23596087.3834
  20447136.029   -24134956.287 9 -18774682.82448  20447136.222    20447145.5964
  22474244.150   -13084712.621 8 -10186807.66046  22474243.585    22474257.2174
 02  1 28  0 54  0.0000000  0  7 06 05 10 24 17 30 23
  21495024.603   -21443284.117 9 -15787813.16047  21495024.345    21495035.5004
  21516974.586   -19529004.214 9 -14441315.65047  21516973.969    21516985.3154
  20766645.600   -22482637.748 9 -17510109.26647  20766644.721    20766655.4764
  23256643.653    -9284367.518 8  -6803560.14446  23256643.291    23256657.2344
  23582071.350   -10972857.438 8  -8191000.96346  23582070.723    23582086.3744
  20451124.161   -24113998.306 9 -18758351.91348  20451124.351    20451133.7374
  22456868.856   -13176019.463 8 -10257955.64246  22456868.294    22456881.8874
 02  1 28  0 54 30.0000000  0  7 06 05 10 24 17 30 23
  21484169.507   -21500327.361 9 -15832262.30947  21484169.249    21484180.3824
  21532331.276   -19448304.534 9 -14378432.83647  21532330.647    21532341.9994
  20768345.222   -22473705.859 9 -17503149.31047  20768344.354    20768355.0924
  23271660.834    -9205452.035 8  -6742067.57846  23271660.495    23271674.3904
  23568106.523   -11046241.875 8  -8248183.40246  23568105.931    23568121.5204
  20455223.823   -24092454.397 9 -18741564.43548  20455224.003    20455233.4064
  22439545.850   -13267051.673 8 -10328889.62246  22439545.277    22439558.8364
 02  1 28  0 55  0.0000000  0  7 06 05 10 24 17 30 23
  21473341.593   -21557227.902 9 -15876600.26547  21473341.335    21473352.4384
  21547756.754   -19367243.341 9 -14315268.32047  21547756.129    21547767.4734
  20770164.058   -22464147.510 9 -17495701.20747  20770163.195    20770173.9344
  23286681.253    -9126519.234 8  -6680561.53346  23286680.956    23286694.7914
  23554177.848   -11119436.518 8  -8305217.95246  23554177.233    23554192.8084
  20459434.840   -24070325.162 9 -18724320.86148  20459435.038    20459444.4604
  22422275.507   -13357807.010 8 -10399607.85746  22422274.913    22422288.4624
 02  1 28  0 55 30.0000000  0  7 06 05 10 24 17 30 23
  21462541.111   -21613984.281 9 -15920825.88947  21462540.872    21462551.9464
  21563250.667   -19285822.642 9 -14251823.67747  21563250.043    21563261.3864
  20772102.199   -22453962.443 9 -17487764.74847  20772101.334    20772112.0464
  23301704.756    -9047570.193 8  -6619042.84146  23301704.436    23301718.3634
  23540285.374   -11192440.743 8  -8362104.13446  23540284.780    23540300.3044
  20463757.168   -24047611.051 9 -18706621.54248  20463757.366    20463766.7964
  22405058.423   -13448282.507 8 -10470108.04246  22405057.841    22405071.3224
 02  1 28  0 56  0.0000000  0  7 06 05 10 24 17 30 23
  21451768.231   -21670595.710 9 -15964938.56847  21451767.990    21451779.0224
  21578812.388   -19204045.503 9 -14188101.28847  21578811.759    21578823.1084
  20774159.274   -22443152.071 9 -17479341.03947  20774158.419    20774169.1164
  23316731.124    -8968606.189 8  -6557512.49646  23316730.823    23316744.7064
  23526429.157   -11265254.648 8  -8418842.01346  23526428.553    23526444.0124
  20468190.590   -24024313.203 9 -18688467.36448  20468190.786    20468200.2184
  22387895.000   -13538475.993 8 -10540388.47046  22387894.414    22387907.8594
 02  1 28  0 56 30.0000000  0  7 06 05 10 24 17 30 23
  21441023.338   -21727060.117 9 -16008936.68547  21441023.079    21441034.0854
  21594441.579   -19121913.806 9 -14124102.62547  21594440.940    21594452.2944
  20776335.368   -22431716.554 9 -17470430.20347  20776334.503    20776345.1694
  23331760.181    -8889628.018 8  -6495971.10046  23331759.889    23331773.7724
  23512609.260   -11337877.521 8  -8475431.04846  23512608.660    23512624.0424
  20472735.046   -24000431.878 9 -18669858.52548  20472735.250    20472744.6424
  22370785.820   -13628384.430 8 -10610446.78746  22370785.258    22370798.6764
 02  1 28  0 57  0.0000000  0  7 06 05 10 24 17 30 23
  21430306.573   -21783376.512 9 -16052819.47447  21430306.318    21430317.3214
  21610137.701   -19039430.308 9 -14059829.82747  21610137.083    21610148.4314
  20778630.309   -22419656.506 9 -17461032.72047  20778629.444    20778640.0974
  23346791.636    -8810637.232 8  -6434419.87846  23346791.333    23346805.2574
  23498825.721   -11410309.475 8  -8531871.30646  23498825.152    23498840.4864
  20477390.311   -23975968.143 9 -18650795.86348  20477390.508    20477399.9034
  22353731.271   -13718005.742 8 -10680281.37246  22353730.704    22353744.0764
 02  1 28  0 57 30.0000000  0  7 06 05 10 24 17 30 23
  21419618.233   -21839543.523 9 -16096585.86347  21419617.987    21419628.9654
  21625900.367   -18956597.209 9 -13995284.61147  21625899.741    21625911.0884
  20781043.931   -22406972.670 9 -17451149.16647  20781043.063    20781053.6874
  23361825.343    -8731634.668 8  -6372859.48146  23361825.045    23361839.0024
  23485078.543   -11482550.164 8  -8588162.53446  23485077.940    23485093.3124
  20482156.242   -23950922.820 9 -18631280.01748  20482156.438    20482165.8374
  22336731.870   -13807337.349 8 -10749890.21646  22336731.263    22336744.6404
 02  1 28  0 58  0.0000000  0  7 06 05 10 24 17 30 23
  21408958.602   -21895559.683 9 -16140234.70747  21408958.367    21408969.3194
  21641729.098   -18873416.904 9 -13930468.84147  21641728.493    21641739.8514
  20783576.140   -22393665.600 9 -17440779.97247  20783575.280    20783585.8784
  23376861.092    -8652621.442 8  -6311290.76646  23376860.786    23376874.8054
  23471367.817   -11554599.273 8  -8644304.47446  23471367.171    23471382.6164
  20487032.773   -23925296.446 9 -18611311.40348  20487032.972    20487042.3544
  22319788.080   -13896376.557 8 -10819271.21646  22319787.463    22319800.8204
 02  1 28  0 58 30.0000000  0  7 06 05 10 24 17 30 23
  21398327.937   -21951423.666 9 -16183764.97047  21398327.716    21398338.6424
  21657623.454   -18789891.720 9 -13865384.33947  21657622.850    21657634.2374
  20786226.797   -22379736.089 9 -17429925.75847  20786225.945    20786236.5374
  23391898.585    -8573598.892 8  -6249714.80146  23391898.355    23391912.3794
  23457693.593   -11626456.680 8  -8700297.04146  23457692.968    23457708.4304
  20492019.700   -23899090.032 9 -18590890.80848  20492019.900    20492029.2594
  22302900.449   -13985120.971 8 -10888422.51446  22302899.834    22302913.1414
 02  1 28  0 59  0.0000000  0  7 06 05 10 24 17 30 23
  21387726.525   -22007134.145 9 -16227175.62547  21387726.295    21387737.2014
  21673582.930   -18706024.216 9 -13800033.09447  21673582.331    21673593.7614
  20788995.734   -22365185.145 9 -17418587.31247  20788994.878    20789005.4604
  23406937.614    -8494568.280 8  -6188132.54646  23406937.384    23406951.4634
  23444055.951   -11698122.021 8  -8756139.93146  23444055.348    23444070.7744
  20497116.861   -23872304.262 9 -18570018.76948  20497117.041    20497126.4114
  22286069.345   -14073568.120 8 -10957342.17746  22286068.736    22286081.9854
 02  1 28  0 59 30.0000000  0  7 06 05 10 24 17 30 23
  21377154.594   -22062689.633 9 -16270465.50747  21377154.364    21377165.2364
  21689607.115   -18621816.663 9 -13734416.87747  21689606.498    21689617.9844
  20791882.803   -22350013.374 9 -17406765.10847  20791881.950    20791892.5174
  23421978.147    -8415529.955 8  -6126544.28546  23421977.942    23421992.0184
  23430454.882   -11769595.207 8  -8811833.10246  23430454.284    23430469.6844
  20502324.054   -23844940.032 9 -18548695.98548  20502324.236    20502333.5984
  22269295.318   -14161715.428 8 -11026028.20146  22269294.739    22269307.9294
 02  1 28  1  0  0.0000000  0  7 06 05 10 24 17 30 23
  21366612.382   -22118088.817 9 -16313633.59947  21366612.152    21366623.0214
  21705695.529   -18537271.812 9 -13668537.83247  21705694.920    21705706.4174
  20794887.783   -22334221.815 9 -17394459.95347  20794886.919    20794897.4744
  23437019.828    -8336485.413 8  -6064951.17046  23437019.539    23437033.7094
  23416890.356   -11840876.354 8  -8867376.62446  23416889.755    23416905.1024
  20507641.109   -23816998.516 9 -18526923.36848  20507641.305    20507650.6654
  22252578.769   -14249560.580 8 -11094478.78346  22252578.211    22252591.3374
 02  1 28  1  0 30.0000000  0  7 06 05 10 24 17 30 23
  21356100.222   -22173330.192 9 -16356678.72447  21356100.000    21356110.8174
  21721847.617   -18452392.194 9 -13602397.93147  21721846.998    21721858.5394
  20798010.669   -22317810.804 9 -17381672.11047  20798009.808    20798020.3534
  23452062.490    -8257435.832 8  -6003354.13446  23452062.205    23452076.3694
  23403362.510   -11911964.846 8  -8922770.01246  23403361.900    23403377.1774
  20513067.873   -23788480.625 9 -18504701.62648  20513068.069    20513077.4504
  22235920.225   -14337101.096 8 -11162691.98446  22235919.663    22235932.7614
 02  1 28  1  1  0.0000000  0  7 06 05 10 24 17 30 23
  21345618.306   -22228412.706 9 -16399600.06547  21345618.086    21345628.8594
  21738062.931   -18367180.353 9 -13535999.15447  21738062.313    21738073.8854
  20801251.192   -22300781.438 9 -17368402.43347  20801250.334    20801260.8774
  23467105.970    -8178382.181 8  -5941753.94546  23467105.651    23467119.8064
  23389871.237   -11982861.064 8  -8978013.59246  23389870.640    23389885.8604
  20518604.090   -23759387.536 9 -18482031.67748  20518604.306    20518613.6694
  22219320.068   -14424334.834 8 -11230666.14046  22219319.505    22219332.5604
 02  1 28  1  1 30.0000000  0  7 06 05 10 24 17 30 23
  21335166.934   -22283334.628 9 -16442396.26647  21335166.712    21335177.4484
  21754341.043   -18281638.455 9 -13469343.19147  21754340.413    21754352.0264
  20804609.220   -22283134.704 9 -17354651.69247  20804608.360    20804618.9094
  23482149.985    -8099325.821 8  -5880151.63246  23482149.646    23482163.7074
  23376416.664   -12053564.319 8  -9033106.80346  23376416.114    23376431.2224
  20524249.666   -23729719.831 9 -18458913.97848  20524249.867    20524259.2524
  22202778.817   -14511258.936 8 -11298399.01947  22202778.257    22202791.2434
 02  1 28  1  2  0.0000000  0  8 06 05 10 24 17 30 15 23
  21324744.337   -22338105.413 9 -16485074.70547  21324744.097    21324754.8184
  21770679.453   -18195779.802 9 -13402440.40247  21770678.832    21770690.4494
  20808082.530   -22264882.083 9 -17340428.83047  20808081.665    20808092.2234
  23497192.293    -8020278.129 8  -5818556.06346  23497191.962    23497206.0094
  23362996.813   -12124085.352 8  -9088058.02746  23362996.275    23363011.3354
  20530002.373   -23699489.228 9 -18435357.65548  20530002.575    20530011.9674
  24713708.907    -2810689.664 7  -2014320.97845  24713708.067    24713729.7554
  22186294.927   -14597881.924 8 -11365897.27147  22186294.348    22186307.2644
 02  1 28  1  2 30.0000000  0  8 06 05 10 24 17 30 15 23
  21314353.368   -22392709.900 9 -16527623.55747  21314353.121    21314363.8344
  21787080.261   -18109593.134 9 -13335282.01447  21787079.618    21787091.2794
  20811673.590   -22246010.799 9 -17325723.89847  20811672.719    20811683.2654
  23512235.313    -7941226.715 8  -5756957.60246  23512235.018    23512249.0604
  23349614.219   -12194410.321 8  -9142856.48546  23349613.720    23349628.6584
  20535864.533   -23668683.282 9 -18411353.01648  20535864.737    20535874.1324
  24697056.164    -2898198.659 7  -2082509.44245  24697055.345    24697077.0644
  22169871.350   -14684187.665 8 -11433148.31747  22169870.778    22169883.6234
 02  1 28  1  3  0.0000000  0  8 06 05 10 24 17 30 15 23
  21303994.482   -22447145.835 9 -16570041.07247  21303994.232    21304004.9174
  21803543.178   -18023080.209 8 -13267869.40747  21803542.542    21803554.2164
  20815382.327   -22226521.095 9 -17310537.07847  20815381.441    20815391.9994
  23527279.075    -7862171.298 8  -5695356.02346  23527278.803    23527292.8474
  23336269.211   -12264538.110 8  -9197501.28446  23336268.638    23336283.5494
  20541836.104   -23637302.246 9 -18386900.25848  20541836.313    20541845.7044
  24680430.602    -2985564.924 7  -2150586.66245  24680429.824    24680451.3414
  22153508.781   -14770172.906 8 -11500149.61547  22153508.196    22153521.0094
 02  1 28  1  3 30.0000000  0  8 06 05 10 24 17 30 15 23
  21293667.667   -22501413.163 9 -16612327.20947  21293667.421    21293678.0804
  21820067.431   -17936244.872 9 -13200205.56847  21820066.812    21820078.5004
  20819208.275   -22206415.255 9 -17294870.15447  20819207.393    20819217.9484
  23542322.992    -7783115.002 8  -5633753.76446  23542322.709    23542336.7764
  23322961.447   -12334470.248 8  -9251993.64446  23322960.891    23322975.7114
  20547916.691   -23605348.510 9 -18362001.24248  20547916.903    20547926.3104
  24663831.983    -3072789.549 7  -2218553.51945  24663831.206    24663852.6274
  22137207.410   -14855836.503 8 -11566900.29347  22137206.831    22137219.5694
 02  1 28  1  4  0.0000000  0  8 06 05 10 24 17 30 15 23
  21283373.002   -22555511.654 9 -16654481.78947  21283372.758    21283383.3734
  21836652.373   -17849090.637 9 -13132293.24447  21836651.750    21836663.4604
  20823151.079   -22185695.627 9 -17278724.95547  20823150.203    20823160.7564
  23557366.823    -7704059.405 8  -5572152.04046  23557366.564    23557380.6334
  23309690.776   -12404207.406 8  -9306334.08246  23309690.238    23309704.9524
  20554105.888   -23572824.209 9 -18336657.63048  20554106.098    20554115.4794
  24647260.266    -3159872.882 7  -2286410.25145  24647259.468    24647280.8324
  22120967.507   -14941177.116 8 -11633399.29547  22120966.944    22120979.6524
 02  1 28  1  4 30.0000000  0  8 06 05 10 24 17 30 15 23
  21273110.720   -22609440.003 9 -16696503.78447  21273110.472    21273121.0484
  21853297.459   -17761620.318 8 -13064134.62347  21853296.827    21853308.5544
  20827210.476   -22164363.214 9 -17262102.26247  20827209.603    20827220.1614
  23572410.216    -7625005.856 8  -5510551.93246  23572409.930    23572424.0324
  23296457.209   -12473749.796 8  -9360522.75346  23296456.639    23296471.2384
  20560403.359   -23539730.779 9 -18310870.54348  20560403.569    20560412.9154
  24630715.425    -3246814.513 7  -2354156.56745  24630714.742    24630735.9244
  22104789.426   -15026192.724 8 -11699645.04447  22104788.864    22104801.5384
 02  1 28  1  5  0.0000000  0  8 06 05 10 24 17 30 15 23
  21262880.908   -22663197.646 9 -16738392.76647  21262880.664    21262891.2204
  21870002.049   -17673837.400 8 -12995732.41347  21870001.443    21870013.1704
  20831386.081   -22142420.063 9 -17245003.66247  20831385.212    20831395.7774
  23587452.972    -7545956.058 8  -5448954.73146  23587452.686    23587466.8224
  23283260.547   -12543098.124 8  -9414560.20746  23283259.965    23283274.4844
  20566808.768   -23506070.155 9 -18284641.48648  20566808.984    20566818.3204
  24614197.554    -3333614.777 7  -2421792.73745  24614196.797    24614217.9254
  22088673.490   -15110881.836 8 -11765636.37747  22088672.910    22088685.5654
 02  1 28  1  5 30.0000000  0  8 06 05 10 24 17 30 15 23
  21252683.931   -22716782.580 9 -16780147.17247  21252683.694    21252694.2354
  21886765.736   -17585743.865 8 -12927088.16847  21886765.148    21886776.8844
  20835677.809   -22119866.672 9 -17227429.55747  20835676.921    20835687.5004
  23602494.892    -7466910.395 8  -5387360.76545  23602494.593    23602508.7704
  23270100.887   -12612251.740 8  -9468445.94246  23270100.285    23270114.7604
  20573321.975   -23471842.946 9 -18257970.93548  20573322.205    20573331.5294
  24597706.744    -3420272.755 8  -2489318.03245  24597706.043    24597727.1294
  22072620.259   -15195241.456 8 -11831370.98047  22072619.664    22072632.2614
 02  1 28  1  6  0.0000000  0  8 06 05 10 24 17 30 15 23
  21242519.974   -22770194.280 9 -16821766.59047  21242519.730    21242530.2454
  21903587.877   -17497343.148 8 -12858204.56047  21903587.282    21903599.0324
  20840085.209   -22096705.313 9 -17209381.70947  20840084.330    20840094.9204
  23617535.563    -7387871.146 8  -5325771.77745  23617535.280    23617549.4654
  23256978.129   -12681211.318 8  -9522180.48846  23256977.540    23256991.9494
  20579942.588   -23437051.427 9 -18230860.66148  20579942.802    20579952.1504
  24581242.940    -3506789.119 7  -2556732.98545  24581242.151    24581263.2174
  22056629.988   -15279270.184 8 -11896847.74147  22056629.404    22056641.9514
 02  1 28  1  6 30.0000000  0  8 06 05 10 24 17 30 15 23
  21232389.403   -22823430.448 9 -16863249.23447  21232389.163    21232399.6584
  21920468.179   -17408636.832 8 -12789082.82347  21920467.586    21920479.3274
  20844608.354   -22072935.981 9 -17190860.11747  20844607.479    20844618.0834
  23632575.034    -7308838.368 8  -5264187.83245  23632574.729    23632589.0104
  23243892.454   -12749976.053 8  -9575763.20746  23243891.829    23243906.1874
  20586670.532   -23401695.730 9 -18203310.76547  20586670.745    20586680.1004
  24564806.345    -3593162.323 8  -2624036.38445  24564805.690    24564826.5624
  22040703.329   -15362964.668 8 -11962064.05347  22040702.739    22040715.2354
 02  1 28  1  7  0.0000000  0  8 06 05 10 24 17 30 15 23
  21222292.438   -22876490.071 9 -16904594.31147  21222292.183    21222302.6514
  21937406.036   -17319628.104 8 -12719725.43447  21937405.450    21937417.1934
  20849246.855   -22048560.174 9 -17171865.94647  20849245.987    20849256.5824
  23647613.073    -7229813.021 8  -5202609.69645  23647612.768    23647627.0614
  23230843.830   -12818546.202 8  -9629194.30346  23230843.242    23230857.5254
  20593505.485   -23365777.776 9 -18175322.74947  20593505.703    20593515.0534
  24548397.044    -3679392.405 8  -2691228.26645  24548396.389    24548417.2074
  22024840.629   -15446323.085 8 -12027018.49947  22024840.041    22024852.5154
 02  1 28  1  7 30.0000000  0  8 06 05 10 24 17 30 15 23
  21212229.345   -22929371.617 9 -16945800.62447  21212229.099    21212239.5334
  21954400.963   -17230319.449 8 -12650134.34347  21954400.365    21954412.0984
  20854000.565   -22023579.095 9 -17152400.13747  20853999.697    20854010.3134
  23662649.409    -7150796.366 8  -5141038.33245  23662649.089    23662663.5174
  23217832.244   -12886921.702 8  -9682473.73746  23217831.670    23217845.9304
  20600447.218   -23329298.676 9 -18146897.47347  20600447.427    20600456.7834
  24532015.135    -3765478.888 7  -2758308.26945  24532014.420    24532035.0864
  22009042.300   -15529343.091 8 -12091709.24447  22009041.718    22009054.1424
 02  1 28  1  8  0.0000000  0  8 06 05 10 24 17 30 15 23
  21202200.374   -22982073.751 9 -16986867.13547  21202200.143    21202210.5634
  21971452.443   -17140713.493 8 -12580311.57647  21971451.831    21971463.5814
  20858869.131   -21997994.505 9 -17132464.05647  20858868.256    20858878.8914
  23677683.900    -7071789.678 8  -5079474.71545  23677683.531    23677698.0474
  23204857.707   -12955102.648 8  -9735601.57146  23204857.142    23204871.3814
  20607495.420   -23292260.010 9 -18118036.17247  20607495.628    20607505.0024
  24515660.563    -3851421.575 8  -2825276.23445  24515659.792    24515680.3144
  21993308.779   -15612022.684 8 -12156134.74647  21993308.180    21993320.5504
 02  1 28  1  8 30.0000000  0  8 06 05 10 24 17 30 15 23
  21192205.937   -23034594.658 9 -17027792.42947  21192205.691    21192216.1074
  21988560.085   -17050812.415 8 -12510258.84847  21988559.467    21988571.2534
  20863852.407   -21971806.980 9 -17112058.15747  20863851.536    20863862.1824
  23692716.465    -6992792.954 8  -5017918.87045  23692716.114    23692730.6394
  23191920.244   -13023088.537 8  -9788577.40646  23191919.718    23191933.8714
  20614649.946   -23254662.688 9 -18088739.55247  20614650.175    20614659.5374
  24499333.555    -3937219.329 8  -2892131.27345  24499332.806    24499353.2714
  21977640.580   -15694359.095 8 -12220292.82747  21977639.987    21977652.3114
 02  1 28  1  9  0.0000000  0  8 06 05 10 24 17 30 15 23
  21182246.194   -23086932.909 9 -17068575.39147  21182245.967    21182256.3714
  22005723.346   -16960619.148 8 -12439978.44047  22005722.715    22005734.5344
  20868950.146   -21945017.986 9 -17091183.58747  20868949.277    20868959.9164
  23707746.890    -6913807.439 8  -4956371.74345  23707746.519    23707761.1414
  23179019.924   -13090879.571 8  -9841401.40846  23179019.389    23179033.5244
  20621910.475   -23216508.359 9 -18059008.90347  20621910.688    20621920.0594
  24483034.133    -4022872.329 7  -2958873.51845  24483033.349    24483053.6094
  21962038.069   -15776350.166 8 -12284181.81147  21962037.468    21962049.7374
 02  1 28  1  9 30.0000000  0  8 06 05 10 24 17 30 15 23
  21172321.483   -23139087.267 9 -17109215.05747  21172321.247    21172331.6454
  22022941.648   -16870136.475 8 -12369472.52147  22022941.025    22022952.8514
  20874162.072   -21917628.997 9 -17069841.48647  20874161.199    20874171.8364
  23722774.920    -6834834.464 8  -4894834.39445  23722774.595    23722789.2404
  23166156.666   -13158475.782 8  -9894073.61446  23166156.114    23166170.2344
  20629276.736   -23177798.304 9 -18028845.21847  20629276.959    20629286.3504
  24466762.338    -4108379.810 8  -3025502.39245  24466761.664    24466781.7084
  21946501.702   -15857993.692 8 -12347799.97947  21946501.104    21946513.3344
 02  1 28  1 10  0.0000000  0  8 06 05 10 24 17 30 15 23
  21162432.152   -23191055.721 9 -17149709.85947  21162431.904    21162442.3024
  22040214.685   -16779366.377 8 -12298742.63347  22040214.047    22040225.9014
  20879488.002   -21889640.789 9 -17048032.46447  20879487.152    20879497.7614
  23737800.518    -6755874.374 8  -4833307.07945  23737800.173    23737814.9484
  23153330.601   -13225876.505 8  -9946593.47346  23153330.023    23153344.0914
  20636748.571   -23138533.481 9 -17998249.24747  20636748.806    20636758.1784
  24450518.354    -4193741.096 7  -3092017.33945  24450517.679    24450537.6354
  21931031.979   -15939286.992 8 -12411145.24047  21931031.393    21931043.5994
 02  1 28  1 10 30.0000000  0  8 06 05 10 24 17 30 15 23
  21152578.395   -23242837.148 9 -17190058.93647  21152578.135    21152588.5474
  22057541.819   -16688311.886 8 -12227791.15047  22057541.202    22057553.0644
  20884927.659   -21861055.135 9 -17025757.89947  20884926.796    20884937.4074
  23752823.497    -6676928.180 8  -4771790.59245  23752823.153    23752837.8924
  23140541.701   -13293082.053 8  -9998961.27346  23140541.107    23140555.1184
  20644325.640   -23098715.702 9 -17967222.40047  20644325.851    20644335.2434
  24434302.236    -4278956.029 7  -3158418.23445  24434301.555    24434321.4594
  21915629.211   -16020228.243 9 -12474216.18147  21915628.646    21915640.8394
 02  1 28  1 11  0.0000000  0  8 06 05 10 24 17 30 15 23
  21142760.538   -23294429.863 9 -17230260.95947  21142760.282    21142770.6724
  22074922.593   -16596975.541 8 -12156620.03847  22074921.960    22074933.8254
  20890480.724   -21831873.468 9 -17003018.90847  20890479.862    20890490.4664
  23767843.710    -6597996.770 8  -4710285.61145  23767843.364    23767858.0264
  23127789.888   -13360092.572 8 -10051177.09246  23127789.295    23127803.2594
  20652007.643   -23058346.389 9 -17935765.78447  20652007.863    20652017.2464
  24418114.007    -4364024.066 7  -3224704.66745  24418113.442    24418133.2744
  21900293.931   -16100815.011 8 -12537010.89147  21900293.363    21900305.5324
 02  1 28  1 11 30.0000000  0  8 06 05 10 24 17 30 15 23
  21132978.901   -23345832.413 9 -17270314.80147  21132978.643    21132989.0084
  22092356.492   -16505359.918 8 -12085231.31147  22092355.860    22092367.7344
  20896146.955   -21802097.067 9 -16979816.48747  20896146.089    20896156.6604
  23782860.876    -6519081.293 8  -4648793.06445  23782860.529    23782875.0994
  23115075.235   -13426907.721 8 -10103240.67946  23115074.657    23115088.6074
  20659794.368   -23017426.959 9 -17903880.50447  20659794.592    20659803.9534
  24401953.839    -4448944.839 7  -3290876.36045  24401953.219    24401972.9444
  21885026.535   -16181044.986 8 -12599527.58147  21885025.962    21885038.1184
 02  1 28  1 12  0.0000000  0  8 06 05 10 24 17 30 15 23
  21123233.776   -23397042.966 9 -17310219.03447  21123233.520    21123243.8704
  22109843.082   -16413467.424 8 -12013626.84047  22109842.445    22109854.3704
  20901926.197   -21771726.872 9 -16956151.37047  20901925.328    20901935.8734
  23797874.858    -6440182.461 8  -4587313.46745  23797874.525    23797889.0814
  23102397.794   -13493527.321 8 -10155151.88246  23102397.204    23102411.1384
  20667685.547   -22975958.569 9 -17871567.46247  20667685.749    20667695.0994
  24385821.784    -4533717.828 7  -3356932.87845  24385821.158    24385840.8454
  21869827.489   -16260915.806 8 -12661764.40747  21869826.904    21869839.0454
 02  1 28  1 12 30.0000000  0  8 06 05 10 24 17 30 15 23
  21113525.480   -23448059.926 9 -17349972.41147  21113525.221    21113535.5774
  22127381.893   -16321300.533 8 -11941808.54247  22127381.263    22127393.2114
  20907818.118   -21740764.606 9 -16932024.89947  20907817.249    20907827.7624
  23812885.599    -6361300.421 8  -4525846.95745  23812885.252    23812899.9264
  23089757.572   -13559951.296 8 -10206910.65946  23089756.974    23089770.9034
  20675680.901   -22933942.795 9 -17838827.88547  20675681.094    20675690.4534
  24369717.968    -4618342.357 7  -3422873.71445  24369717.246    24369736.9064
  21854697.215   -16340425.172 8 -12723719.58247  21854696.629    21854708.7514
 02  1 28  1 13  0.0000000  0  8 06 05 10 24 17 30 15 23
  21103854.264   -23498882.075 9 -17389573.98647  21103854.016    21103864.3734
  22144972.387   -16228862.174 8 -11869778.71747  22144971.765    22144983.7234
  20913822.384   -21709211.925 9 -16907438.36247  20913821.513    20913832.0104
  23827892.880    -6282436.819 8  -4464394.82845  23827892.534    23827907.1984
  23077154.524   -13626179.862 8 -10258517.15846  23077153.969    23077167.8514
  20683780.070   -22891381.302 9 -17805663.07347  20683780.277    20683789.6154
  24353642.420    -4702818.275 7  -3488698.74645  24353641.746    24353661.2174
  21839636.050   -16419571.300 8 -12785391.71547  21839635.485    21839647.5834
 02  1 28  1 13 30.0000000  0  8 06 05 10 24 17 30 15 23
  21094220.422   -23549507.727 9 -17429022.44547  21094220.185    21094230.5384
  22162614.008   -16136154.930 8 -11797539.36647  22162613.382    22162625.3624
  20919938.716   -21677070.303 9 -16882392.91147  20919937.848    20919948.3114
  23842896.573    -6203592.042 8  -4402957.35845  23842896.216    23842910.8164
  23064588.729   -13692212.978 8 -10309971.36046  23064588.188    23064601.9944
  20691982.791   -22848275.622 9 -17772074.22147  20691983.008    20691992.3324
  24337595.163    -4787145.293 7  -3554407.75645  24337594.495    24337613.9254
  21824644.440   -16498351.911 8 -12846779.02547  21824643.874    21824655.9414
 02  1 28  1 14  0.0000000  0  8 06 05 10 24 17 30 15 23
  21084624.315   -23599935.306 9 -17468316.56047  21084624.059    21084634.3734
  22180306.342   -16043181.491 8 -11725092.60147  22180305.704    22180317.6804
  20926166.818   -21644341.290 9 -16856889.75647  20926165.957    20926176.3924
  23857896.585    -6124766.781 8  -4341535.09145  23857896.263    23857910.8054
  23052060.182   -13758050.365 8 -10361273.04046  23052059.642    23052073.3974
  20700288.793   -22804627.254 9 -17738062.49547  20700289.008    20700298.3234
  24321576.341    -4871322.991 7  -3620000.39745  24321575.644    24321595.2194
  21809722.832   -16576764.715 8 -12907879.73547  21809722.274    21809734.3254
 02  1 28  1 14 30.0000000  0  8 06 05 10 24 17 30 15 23
  21075066.185   -23650163.216 9 -17507455.09047  21075065.936    21075076.1954
  22198048.835   -15949944.444 8 -11652440.41947  22198048.201    22198060.1664
  20932506.467   -21611026.115 9 -16830929.85647  20932505.608    20932516.0154
  23872892.587    -6045962.339 8  -4280129.06045  23872892.270    23872906.7674
  23039568.816   -13823692.323 8 -10412422.45446  23039568.249    23039581.9694
  20708697.760   -22760437.703 9 -17703629.06747  20708697.967    20708707.2964
  24305585.994    -4955350.928 7  -3685476.32645  24305585.434    24305604.9664
  21794871.624   -16654807.474 9 -12968692.10147  21794871.075    21794883.0834
 02  1 28  1 15  0.0000000  0  8 06 05 10 24 17 30 15 23
  21065546.346   -23700189.968 9 -17546436.87847  21065546.096    21065556.3094
  22215840.946   -15856446.468 8 -11579584.92247  22215840.324    22215852.2844
  20938957.359   -21577126.356 9 -16804514.43947  20938956.492    20938966.8754
  23887884.514    -5967179.368 8  -4218739.74145  23887884.211    23887898.7474
  23027114.609   -13889138.831 8 -10463419.56046  23027114.081    23027127.7234
  20717209.376   -22715708.786 9 -17668775.35547  20717209.594    20717218.9234
  24289624.301    -5039228.589 7  -3750835.18345  24289623.704    24289643.3174
  21780091.243   -16732478.218 9 -13029214.59147  21780090.687    21780102.6534
 02  1 28  1 15 30.0000000  0  8 06 05 10 24 17 30 15 23
  21056065.014   -23750014.186 9 -17585260.85247  21056064.780    21056074.9614
  22233682.198   -15762690.404 8 -11506528.32147  22233681.583    22233693.5404
  20945519.136   -21542643.736 9 -16777644.84547  20945518.279    20945528.6374
  23902872.187    -5888418.747 8  -4157367.84545  23902871.866    23902886.4324
  23014697.650   -13954389.864 8 -10514264.34746  23014697.117    23014710.6774
  20725823.313   -22670442.194 9 -17633502.67947  20725823.521    20725832.8464
  24273691.324    -5122955.850 7  -3816076.85145  24273690.614    24273710.0764
  21765382.064   -16809774.662 9 -13089445.42047  21765381.510    21765393.4464
 02  1 28  1 16  0.0000000  0  8 06 05 10 24 17 30 15 23
  21046622.660   -23799633.692 9 -17623925.30847  21046622.427    21046632.5854
  22251572.194   -15668678.338 8 -11433272.23247  22251571.577    22251583.5134
  20952191.637   -21507579.455 9 -16750322.01147  20952190.770    20952201.1194
  23917855.524    -5809680.628 8  -4096013.49245  23917855.224    23917869.7694
  23002318.011   -14019444.869 8 -10564956.38646  23002317.437    23002330.9504
  20734539.367   -22624638.979 9 -17597811.85247  20734539.577    20734548.8784
  24257787.106    -5206531.744 7  -3881200.56445  24257786.384    24257805.7414
  21750744.667   -16886694.181 9 -13149382.54547  21750744.113    21750755.9854
 02  1 28  1 16 30.0000000  0  8 06 05 10 24 17 30 15 23
  21037219.455   -23849047.400 9 -17662429.40947  21037219.226    21037229.3764
  22269510.311   -15574413.150 8 -11359818.91646  22269509.689    22269521.6524
  20958974.431   -21471935.450 9 -16722547.44747  20958973.555    20958983.8994
  23932834.415    -5730966.190 8  -4034677.57345  23932834.114    23932848.6284
  22989975.535   -14084304.426 8 -10615496.13646  22989974.961    22989988.4294
  20743357.123   -22578301.362 9 -17561704.61147  20743357.342    20743366.6304
  24241911.633    -5289956.401 7  -3946206.42345  24241910.985    24241930.2554
  21736179.270   -16963235.184 9 -13209024.72847  21736178.717    21736190.5314
 02  1 28  1 17  0.0000000  0  8 06 05 10 24 17 30 15 23
  21027855.714   -23898253.759 9 -17700771.93347  21027855.489    21027865.6294
  22287496.101   -15479897.595 8 -11286170.50046  22287495.468    22287507.4544
  20965867.215   -21435713.588 9 -16694322.60647  20965866.333    20965876.7044
  23947808.576    -5652276.465 8  -3973360.91445  23947808.288    23947822.8364
  22977670.219   -14148968.450 8 -10665883.51546  22977669.671    22977683.0834
  20752276.248   -22531431.032 9 -17525182.26947  20752276.468    20752285.7684
  24226065.080    -5373229.096 7  -4011093.88845  24226064.425    24226083.7174
  21721686.282   -17039395.635 9 -13268370.37747  21721685.730    21721697.4824
 02  1 28  1 17 30.0000000  0  8 06 05 10 24 17 30 15 23
  21018531.826   -23947250.669 9 -17738951.25547  21018531.593    21018541.6994
  22305529.052   -15385134.010 8 -11212328.82146  22305528.414    22305540.4214
  20972869.672   -21398915.256 9 -16665648.56947  20972868.795    20972879.1644
  23962777.925    -5573611.987 8  -3912063.93245  23962777.704    23962792.1724
  22965402.169   -14213436.646 8 -10716118.30346  22965401.624    22965415.0174
  20761296.472   -22484029.287 9 -17488245.84147  20761296.683    20761305.9914
  24210247.626    -5456349.326 7  -4075862.54545  24210246.965    24210266.1254
  21707266.209   -17115173.041 9 -13327417.55947  21707265.653    21707277.3434
 02  1 28  1 18  0.0000000  0  8 06 05 10 24 17 30 15 23
  21009248.044   -23996037.038 9 -17776966.52147  21009247.801    21009257.8564
  22323608.630   -15290125.635 8 -11138296.39746  22323607.988    22323619.9964
  20979981.450   -21361542.367 9 -16636526.83047  20979980.582    20979990.9674
  23977742.439    -5494973.145 8  -3850786.91945  23977742.135    23977756.7254
  22953171.297   -14277709.592 8 -10766200.94846  22953170.751    22953184.1394
  20770417.385   -22436098.359 9 -17450897.06347  20770417.599    20770426.9134
  24194459.094    -5539317.516 8  -4140512.73545  24194458.436    24194477.4584
  21692919.345   -17190565.756 9 -13386164.98047  21692918.795    21692930.4174
 02  1 28  1 18 30.0000000  0  8 06 05 10 24 17 30 15 23
  21000004.598   -24044611.282 9 -17814816.49747  21000004.360    21000014.3784
  22341734.243   -15194875.088 8 -11064075.26246  22341733.620    22341745.6024
  20987202.284   -21323596.413 9 -16606958.54647  20987201.413    20987211.8224
  23992701.776    -5416361.301 8  -3789530.95645  23992701.439    23992716.0574
  22940977.576   -14341787.230 8 -10816131.40346  22940977.002    22940990.4094
  20779638.719   -22387639.751 9 -17413137.10847  20779638.935    20779648.2904
  24178699.597    -5622132.943 7  -4205043.90045  24178698.945    24178717.8834
  21678646.095   -17265571.578 9 -13444610.93247  21678645.546    21678657.1234
 02  1 28  1 19  0.0000000  0  8 06 05 10 24 17 30 15 23
  20990801.966   -24092971.146 9 -17852499.42247  20990801.720    20990811.7204
  22359905.559   -15099384.376 8 -10989666.99746  22359904.920    22359916.9664
  20994531.934   -21285078.709 9 -16576944.74047  20994531.059    20994541.4934
  24007656.022    -5337776.209 8  -3728295.83445  24007655.696    24007670.3924
  22928821.161   -14405668.930 8 -10865909.18946  22928820.598    22928833.9654
  20788960.197   -22338654.921 9 -17374967.10647  20788960.422    20788969.7974
  24162969.335    -5704794.946 7  -4269455.51445  24162968.645    24162987.4954
  21664446.996   -17340187.729 9 -13502753.24947  21664446.446    21664457.9624
 02  1 28  1 19 30.0000000  0  8 06 05 10 24 17 30 15 23
  20981640.351   -24141115.519 9 -17890014.43547  20981640.103    20981650.0804
  22378121.947   -15003656.759 8 -10915074.12646  22378121.319    22378133.3754
  21001969.964   -21245991.385 9 -16546487.07347  21001969.109    21001979.5434
  24022604.913    -5259219.388 8  -3667082.74345  24022604.626    24022619.2144
  22916701.903   -14469355.310 8 -10915534.77146  22916701.358    22916714.6984
  20798381.419   -22289146.006 9 -17336388.73447  20798381.650    20798391.0384
  24147268.239    -5787303.468 7  -4333747.53345  24147267.515    24147286.2714
  21650322.324   -17414412.852 9 -13560590.86847  21650321.765    21650333.2504
 02  1 28  1 20  0.0000000  0  8 06 05 10 24 17 30 15 23
  20972520.040   -24189042.641 9 -17927360.15747  20972519.797    20972529.7414
  22396382.956   -14907694.739 8 -10840298.59646  22396382.317    22396394.4024
  21009516.078   -21206336.196 9 -16515586.91647  21009515.235    21009525.6744
  24037548.386    -5180691.162 8  -3605891.94545  24037548.151    24037562.6904
  22904619.851   -14532846.213 8 -10965008.02946  22904619.303    22904632.6234
  20807902.044   -22239114.768 9 -17297403.35447  20807902.279    20807911.6714
  24131596.380    -5869658.153 7  -4397919.69145  24131595.684    24131614.3774
  21636272.448   -17488244.708 9 -13618122.05047  21636271.881    21636283.3274
 02  1 28  1 20 30.0000000  0  8 06 05 10 24 17 30 15 23
  20963441.378   -24236750.953 9 -17964535.37647  20963441.132    20963451.0824
  22414688.084   -14811500.795 8 -10765342.35246  22414687.465    22414699.5664
  21017169.944   -21166114.798 9 -16484245.55247  21017169.097    21017179.5394
  24052486.224    -5102192.559 8  -3544724.21445  24052485.921    24052500.4924
  22892574.987   -14596141.729 8 -11014329.05346  22892574.430    22892587.7364
  20817521.674   -22188563.079 9 -17258012.42947  20817521.899    20817531.3054
  24115953.822    -5951858.777 8  -4461971.79745  24115953.164    24115971.6484
  21622297.823   -17561681.218 9 -13675345.17147  21622297.275    21622308.6914
 02  1 28  1 21  0.0000000  0  8 06 05 10 24 17 30 15 23
  20954404.703   -24284238.519 9 -18001538.58747  20954404.478    20954414.4154
  22433036.884   -14715077.452 8 -10690207.35546  22433036.252    22433048.4014
  21024931.326   -21125328.455 9 -16452463.97147  21024930.483    21024940.9074
  24067418.366    -5023723.917 8  -3483579.83945  24067418.003    24067432.6014
  22880567.318   -14659241.661 8 -11063497.66346  22880566.774    22880580.0394
  20827240.119   -22137492.340 9 -17218217.05547  20827240.342    20827249.7594
  24100340.764    -6033904.506 7  -4525903.20445  24100340.122    24100358.5244
  21608398.876   -17634720.144 9 -13732258.49047  21608398.327    21608409.7014
 02  1 28  1 21 30.0000000  0  8 06 05 10 24 17 30 15 23
  20945410.292   -24331504.122 9 -18038368.84547  20945410.065    20945419.9894
  22451428.731   -14618427.968 8 -10614896.14546  22451428.100    22451440.2844
  21032799.729   -21083979.880 9 -16420244.28447  21032798.886    21032809.3104
  24082344.653    -4945285.860 8  -3422459.27545  24082344.369    24082358.8814
  22868596.805   -14722146.320 8 -11112514.11946  22868596.270    22868609.5014
  20837056.914   -22085904.718 9 -17178018.90747  20837057.136    20837066.5654
  24084757.134    -6115795.522 7  -4589714.05345  24084756.421    24084774.7254
  21594575.878   -17707359.970 9 -13788860.82047  21594575.307    21594586.6524
 02  1 28  1 22  0.0000000  0  8 06 05 10 24 17 30 15 23
  20936458.489   -24378545.869 9 -18075024.67347  20936458.262    20936468.1544
  22469863.117   -14521554.702 8 -10539410.56646  22469862.478    22469874.7114
  21040774.810   -21042070.414 9 -16387587.53747  21040773.945    21040784.3924
  24097265.026    -4866878.926 8  -3361362.97445  24097264.671    24097279.2474
  22856663.496   -14784855.577 8 -11161378.31946  22856662.962    22856676.1334
  20846971.745   -22033801.971 9 -17137419.37147  20846971.962    20846981.4014
  24069203.089    -6197531.176 7  -4653403.83945  24069202.448    24069220.6004
  21580829.294   -17779598.273 9 -13845150.27447  21580828.713    21580840.0234
 02  1 28  1 22 30.0000000  0  8 06 05 10 24 17 30 15 23
  20927549.615   -24425362.008 9 -18111504.69847  20927549.379    20927559.2534
  22488339.626   -14424460.254 8 -10463752.63546  22488338.997    22488351.2384
  21048856.258   -20999602.131 9 -16354495.34447  21048855.401    21048865.8444
  24112179.301    -4788503.998 8  -3300291.63245  24112178.916    24112193.5244
  22844767.384   -14847369.435 8 -11210090.25746  22844766.847    22844779.9604
  20856984.207   -21981186.185 9 -17096420.06247  20856984.430    20856993.8534
  24053678.633    -6279111.220 8  -4716972.37145  24053677.936    24053696.0724
  21567159.444   -17851433.198 9 -13901125.41647  21567158.877    21567170.1514
 02  1 28  1 23  0.0000000  0  8 06 05 10 24 17 30 15 23
  20918683.909   -24471951.055 9 -18147807.77047  20918683.677    20918693.5354
  22506857.695   -14327147.499 8 -10387924.58546  22506857.077    22506869.3154
  21057043.725   -20956576.823 9 -16320969.10147  21057042.873    21057053.3064
  24127087.349    -4710161.656 8  -3239245.67245  24127086.986    24127101.5964
  22832908.370   -14909688.219 8 -11258650.19446  22832907.847    22832920.9334
  20867094.003   -21928059.090 9 -17055022.33547  20867094.221    20867103.6334
  24038183.931    -6360535.311 8  -4780419.38845  24038183.172    24038201.2944
  21553566.735   -17922862.799 9 -13956784.71747  21553566.167    21553577.4094
 02  1 28  1 23 30.0000000  0  8 06 05 10 24 17 30 15 23
  20909861.670   -24518311.885 9 -18183933.01247  20909861.414    20909871.2814
  22525416.678   -14229619.682 8 -10311928.96146  22525416.069    22525428.3324
  21065336.717   -20912996.821 9 -16287010.63047  21065335.851    21065346.2704
  24141988.924    -4631853.308 8  -3178226.20345  24141988.669    24142003.1794
  22821086.374   -14971812.460 8 -11307058.54046  22821085.841    22821098.8884
  20877300.574   -21874423.253 9 -17013228.18547  20877300.795    20877310.2014
  24022718.804    -6441803.845 8  -4843745.18245  24022718.078    24022735.9564
  21540051.390   -17993885.792 9 -14012127.18447  21540050.833    21540062.0404
 02  1 28  1 24  0.0000000  0  8 06 05 10 24 17 30 15 23
  20901083.361   -24564441.732 9 -18219878.26547  20901083.111    20901092.9794
  22544016.327   -14131878.156 8 -10235766.81446  22544015.723    22544028.0144
  21073735.072   -20868862.986 9 -16252620.60247  21073734.217    21073744.6364
  24156884.219    -4553578.193 8  -3117232.62045  24156883.997    24156898.4434
  22809301.659   -15033740.978 8 -11355314.38046  22809301.140    22809314.1384
  20887603.794   -21820279.556 9 -16971038.29847  20887604.013    20887613.4024
  24007283.537    -6522915.289 8  -4906948.56445  24007282.705    24007300.6184
  21526614.035   -18064499.060 9 -14067150.38647  21526613.466    21526624.6464
 02  1 28  1 24 30.0000000  0  8 06 05 10 24 17 30 15 23
  20892349.134   -24610339.981 9 -18255643.05447  20892348.888    20892358.7384
  22562655.879   -14033926.805 8 -10159441.16446  22562655.258    22562667.5944
  21082238.201   -20824178.541 9 -16217801.53147  21082237.361    21082247.7624
  24171772.831    -4475338.060 8  -3056266.29445  24171772.580    24171787.0694
  22797553.963   -15095475.084 8 -11403418.72446  22797553.422    22797566.4114
  20898003.083   -21765631.049 9 -16928455.05247  20898003.293    20898012.6704
  23991878.023    -6603870.439 8  -4970030.15645  23991877.219    23991894.9524
  21513254.811   -18134701.799 9 -14121853.69447  21513254.244    21513265.3964
 02  1 28  1 25  0.0000000  0  8 06 05 10 24 17 30 15 23
  20883659.483   -24656004.082 9 -18291225.39547  20883659.234    20883669.0594
  22581335.009   -13935767.570 8 -10082953.52746  22581334.407    22581346.7474
  21090845.928   -20778944.598 9 -16182554.27347  21090845.072    21090855.4814
  24186654.813    -4397132.780 8  -2995327.13245  24186654.567    24186669.0574
  22785843.377   -15157013.932 8 -11451370.93346  22785842.839    22785855.7724
  20908498.194   -21710478.933 9 -16885479.38547  20908498.418    20908507.7864
  23976502.393    -6684668.285 8  -5032989.19845  23976501.594    23976519.1814
  21499974.177   -18204491.407 9 -14176235.08347  21499973.618    21499984.7284
 02  1 28  1 25 30.0000000  0  8 06 05 10 24 17 30 15 23
  20875014.638   -24701432.907 9 -18326624.39947  20875014.388    20875024.1854
  22600053.139   -13837403.534 8 -10006306.30346  22600052.529    22600064.8884
  21099557.723   -20733163.628 9 -16146880.75847  21099556.871    21099567.2654
  24201529.908    -4318963.454 8  -2934415.98245  24201529.649    24201544.0714
  22774169.800   -15218358.366 8 -11499171.64646  22774169.261    22774182.2154
  20919088.617   -21654825.775 9 -16842113.29647  20919088.836    20919098.2364
  23961156.699    -6765309.027 8  -5095825.78745  23961155.887    23961173.4094
  21486772.444   -18273866.410 9 -14230293.40447  21486771.878    21486782.9744
 02  1 28  1 26  0.0000000  0  8 06 05 10 24 17 30 15 23
  20866414.888   -24746624.644 9 -18361838.66147  20866414.642    20866424.4214
  22618809.709   -13738837.216 8  -9929501.46346  22618809.104    22618821.4754
  21108373.333   -20686837.185 9 -16110782.20147  21108372.488    21108382.8854
  24216398.174    -4240830.305 8  -2873533.03545  24216397.927    24216412.4194
  22762533.320   -15279508.023 8 -11546820.58746  22762532.777    22762545.7174
  20929774.118   -21598673.101 9 -16798357.97747  20929774.319    20929783.7524
  23945841.020    -6845792.135 8  -5158539.57145  23945840.220    23945857.7184
  21473650.074   -18342824.552 9 -14284026.89747  21473649.502    21473660.5694
 02  1 28  1 26 30.0000000  0  8 06 05 10 24 17 30 15 23
  20857860.557   -24791577.613 9 -18396866.86747  20857860.304    20857870.0734
  22637604.271   -13640071.382 8  -9852541.15646  22637603.673    22637616.0694
  21117292.295   -20639967.440 9 -16074260.29347  21117291.443    21117301.8414
  24231259.384    -4162734.344 8  -2812679.05345  24231259.069    24231273.6154
  22750933.856   -15340462.965 8 -11594317.80646  22750933.317    22750946.2004
  20940554.245   -21542023.128 9 -16754215.14947  20940554.456    20940563.8794
  23930555.434    -6926117.229 8  -5221130.22645  23930554.723    23930571.9754
  21460607.321   -18411364.142 9 -14337434.24947  21460606.751    21460617.7934
 02  1 28  1 27  0.0000000  0  8 06 05 10 24 17 30 15 23
  20849351.980   -24836290.188 9 -18431707.75747  20849351.734    20849361.4914
  22656436.355   -13541108.610 8  -9775427.38546  22656435.736    22656448.1744
  21126314.302   -20592556.358 9 -16037316.56547  21126313.448    21126323.8574
  24246113.406    -4084675.828 8  -2751854.25545  24246113.145    24246127.6714
  22739371.415   -15401223.492 8 -11641663.53946  22739370.841    22739383.6894
  20951428.611   -21484877.941 9 -16709686.44247  20951428.818    20951438.2554
  23915299.891    -7006284.264 8  -5283597.70645  23915299.153    23915316.3284
  21447644.577   -18479483.166 9 -14390513.88547  21447644.015    21447655.0284
 02  1 28  1 27 30.0000000  0  8 06 05 10 24 17 30 15 23
  20840889.440   -24880760.689 9 -18466360.01748  20840889.213    20840898.9304
  22675305.323   -13441951.801 8  -9698162.42946  22675304.733    22675317.1944
  21135438.920   -20544606.027 9 -15999952.64747  21135438.061    21135448.4794
  24260960.253    -4006655.064 8  -2691058.85945  24260960.016    24260974.5474
  22727845.976   -15461789.550 8 -11688857.74046  22727845.410    22727858.1824
  20962396.807   -21427239.771 9 -16664773.59247  20962397.005    20962406.4524
  23900074.499    -7086293.066 8  -5345941.91045  23900073.764    23900090.9234
  21434762.232   -18547179.944 9 -14443264.50047  21434761.663    21434772.6534
 02  1 28  1 28  0.0000000  0  8 06 05 10 24 17 30 15 23
  20832473.351   -24924987.378 9 -18500822.29148  20832473.129    20832482.8174
  22694210.672   -13342603.795 8  -9620748.47446  22694210.075    22694222.5554
  21144665.759   -20496118.475 9 -15962170.11847  21144664.903    21144675.3174
  24275799.784    -3928672.953 8  -2630293.58745  24275799.554    24275813.9924
  22716357.482   -15522161.504 8 -11735900.69146  22716356.924    22716369.6714
  20973458.400   -21369110.626 9 -16619478.16647  20973458.607    20973468.0464
  23884879.301    -7166143.102 8  -5408162.40645  23884878.553    23884895.5914
  21421960.564   -18614452.791 9 -14495684.77847  21421959.986    21421970.9444
 02  1 28  1 28 30.0000000  0  8 06 05 10 24 17 30 15 23
  20824103.934   -24968968.584 9 -18535093.27848  20824103.703    20824113.3874
  22713151.971   -13243067.104 8  -9543187.51246  22713151.363    22713163.8964
  21153994.443   -20447095.816 9 -15923970.61847  21153993.595    21154004.0094
  24290631.901    -3850729.893 8  -2569558.74145  24290631.636    24290646.1584
  22704905.939   -15582339.236 8 -11782792.30246  22704905.401    22704918.0554
  20984613.015   -21310492.751 9 -16573801.90847  20984613.215    20984622.6764
  23869714.343    -7245834.208 8  -5470259.05445  23869713.682    23869730.5034
  21409239.919   -18681299.830 9 -14547773.26147  21409239.352    21409250.2664
 02  1 28  1 29  0.0000000  0  8 06 05 10 24 17 30 15 23
  20815781.558   -25012702.865 9 -18569171.86748  20815781.315    20815790.9814
  22732128.551   -13143344.791 8  -9465481.90146  22732127.985    22732140.4974
  21163424.475   -20397540.519 9 -15885356.07847  21163423.627    21163434.0234
  24305456.372    -3772826.768 8  -2508855.00545  24305456.033    24305470.6254
  22693491.267   -15642323.363 8 -11829533.05646  22693490.703    22693503.2934
  20995860.193   -21251388.365 9 -16527746.54947  20995860.408    20995869.8714
  23854579.663    -7325366.444 8  -5532231.90245  23854578.929    23854595.8304
  21396600.557   -18747719.486 9 -14599528.71447  21396599.992    21396610.8594
 02  1 28  1 29 30.0000000  0  8 06 05 10 24 17 30 15 23
  20807506.547   -25056188.115 9 -18603056.39848  20807506.303    20807515.9584
  22751140.054   -13043439.050 8  -9387633.36046  22751139.464    22751151.9834
  21172955.558   -20347454.163 9 -15846327.72347  21172954.708    21172965.1044
  24320273.123    -3694963.863 8  -2448182.61245  24320272.856    24320287.3744
  22682113.496   -15702113.548 8 -11876122.68446  22682112.931    22682125.4374
  21007199.598   -21191799.404 9 -16481313.60047  21007199.828    21007209.2594
  23839475.273    -7404739.141 8  -5594080.43645  23839474.556    23839491.3864
  21384042.955   -18813709.632 9 -14650949.48747  21384042.396    21384053.2134
 02  1 28  1 30  0.0000000  0  8 06 05 10 24 17 30 15 23
  20799279.246   -25099422.512 9 -18636745.46448  20799278.999    20799288.6544
  22770186.012   -12943352.351 8  -9309643.83046  22770185.419    22770197.9504
  21182587.288   -20296838.775 9 -15806887.13947  21182586.441    21182596.8284
  24335082.201    -3617141.483 8  -2387541.79045  24335081.884    24335096.4424
  22670772.659   -15761709.607 8 -11922561.06146  22670772.091    22670784.5304
  21018630.867   -21131727.721 9 -16434504.50947  21018631.085    21018640.5214
  23824401.306    -7483952.107 8  -5655804.51545  23824400.581    23824417.3214
  21371567.465   -18879268.388 9 -14702034.11347  21371566.902    21371577.6984
 02  1 28  1 30 30.0000000  0  9 06 05 10 24 17 30 15 18 23
  20791099.108   -25142408.986 9 -18670241.34148  20791098.862    20791108.5054
  22789264.959   -12843092.103 8  -9231519.04946  22789264.370    22789276.9294
  21192318.481   -20245700.970 9 -15767039.47447  21192317.644    21192328.0144
  24349882.572    -3539364.877 8  -2326936.63845  24349882.227    24349896.8434
  22659467.838   -15821116.353 8 -11968851.91646  22659467.288    22659479.6824
  21030152.764   -21071179.979 9 -16387324.45947  21030152.988    21030162.3854
  23809356.954    -7563009.412 8  -5717407.30445  23809356.236    23809372.9404
  24774027.137    -2812085.679 7  -1523675.89345  24774026.650    24774047.2804
  21359173.479   -18944398.589 9 -14752784.80247  21359172.932    21359183.6794
 02  1 28  1 31  0.0000000  0 10 06 05 10 24 17 26 30 15 18 23
  20782966.889   -25185143.689 9 -18703541.02448  20782966.642    20782976.2564
  22808376.793   -12742659.090 8  -9153259.66146  22808376.199    22808388.7754
  21202149.034   -20194040.955 9 -15726784.89547  21202148.188    21202158.5564
  24364674.551    -3461632.237 8  -2266365.73645  24364674.237    24364688.8254
  22648199.347   -15880332.006 8 -12014993.86746  22648198.789    22648211.1664
  24448063.957    -2982072.891 7  -2161020.17645  24448064.078    24448080.3374
  21041765.134   -21010156.543 9 -16339773.73747  21041765.359    21041774.7504
  23794342.721    -7641908.867 8  -5778887.10645  23794341.960    23794358.6074
  24752767.490    -2923802.613 7  -1610727.24845  24752767.177    24752787.4494
  21346861.775   -19009096.501 9 -14803198.63947  21346861.226    21346871.9544
 02  1 28  1 31 30.0000000  0 10 06 05 10 24 17 26 30 15 18 23
  20774883.883   -25227619.880 9 -18736639.27248  20774883.637    20774893.2264
  22827521.941   -12642050.965 8  -9074863.82646  22827521.326    22827533.9804
  21212079.502   -20141856.030 9 -15686121.29247  21212078.664    21212088.9994
  24379459.122    -3383938.958 8  -2205825.49445  24379458.862    24379473.4834
  22636968.183   -15939351.608 8 -12060983.06046  22636967.614    22636979.9834
  24430858.303    -3072487.071 7  -2231472.47845  24430858.370    24430874.7304
  21053468.567   -20948654.687 9 -16291850.22347  21053468.797    21053478.1694
  23779359.491    -7720645.223 8  -5840239.82145  23779358.683    23779375.2924
  24731516.855    -3035472.269 7  -1697741.76845  24731516.379    24731536.4694
  21334633.623   -19073355.334 9 -14853270.33947  21334633.071    21334643.8024
 02  1 28  1 32  0.0000000  0 10 06 05 10 24 17 26 30 15 18 23
  20766850.233   -25269836.693 9 -18769535.41148  20766849.979    20766859.5454
  22846699.755   -12541271.203 8  -8996334.25646  22846699.169    22846711.8064
  21222109.300   -20089149.201 9 -15645051.01447  21222108.430    21222118.7494
  24394235.892    -3306286.629 8  -2145317.18645  24394235.612    24394250.1284
  22625774.158   -15998176.189 8 -12106820.28746  22625773.603    22625785.9674
  24413649.684    -3162917.133 7  -2301937.14945  24413649.882    24413666.2114
  21065262.451   -20886677.496 9 -16243556.31847  21065262.672    21065272.0624
  23764407.132    -7799219.090 8  -5901465.91745  23764406.295    23764422.8684
  24710275.528    -3147093.072 8  -1784718.21745  24710275.014    24710294.9894
  21322489.184   -19137174.198 9 -14902999.20547  21322488.638    21322499.3534
 02  1 28  1 32 30.0000000  0 10 06 05 10 24 17 26 30 15 18 23
  20758866.063   -25311793.497 9 -18802228.94248  20758865.816    20758875.3524
  22865909.494   -12440323.596 8  -8917673.87746  22865908.931    22865921.5894
  21232237.791   -20035923.560 9 -15603576.46147  21232236.918    21232247.2214
  24409004.634    -3228676.432 8  -2084841.67245  24409004.338    24409018.8004
  22614616.987   -16056806.893 8 -12152506.44646  22614616.447    22614628.7754
  24396438.423    -3253360.720 7  -2372412.37845  24396438.677    24396454.9584
  21077146.205   -20824228.018 9 -16194894.39747  21077146.415    21077155.8164
  23749485.621    -7877631.161 8  -5962565.94845  23749484.834    23749501.2924
  24689043.743    -3258663.809 7  -1871655.67745  24689043.392    24689063.0034
  21310428.575   -19200552.565 9 -14952384.82947  21310428.048    21310438.7274
 02  1 28  1 33  0.0000000  0 10 06 05 10 24 17 26 30 15 18 23
  20750931.628   -25353488.863 9 -18834718.75648  20750931.379    20750940.8944
  22885150.606   -12339211.199 8  -8838885.10446  22885150.040    22885162.7394
  21242464.526   -19982181.723 9 -15561699.68147  21242463.678    21242473.9384
  24423765.095    -3151109.339 7  -2024399.76445  24423764.690    24423779.3744
  22603496.682   -16115243.982 8 -12198041.73746  22603496.145    22603508.4254
  24379225.490    -3343815.027 7  -2442895.97445  24379225.644    24379241.6644
  21089119.330   -20761308.860 9 -16145866.49447  21089119.546    21089128.9384
  23734594.861    -7955881.628 8  -6023540.06745  23734594.073    23734610.3534
  24667821.861    -3370182.448 7  -1958552.55945  24667821.544    24667840.9964
  21298452.104   -19263488.978 9 -15001426.06947  21298451.569    21298462.2354
 02  1 28  1 33 30.0000000  0 10 06 05 10 24 17 26 30 15 18 23
  20743047.195   -25394921.483 9 -18867003.83248  20743046.937    20743056.4484
  22904422.495   -12237937.093 8  -8759970.31446  22904421.928    22904434.6584
  21252788.984   -19927926.147 9 -15519422.57947  21252788.141    21252798.3834
  24438517.242    -3073586.229 7  -1963992.10645  24438516.927    24438531.5904
  22592413.094   -16173488.248 8 -12243426.78446  22592412.578    22592424.7964
  24362010.851    -3434277.429 7  -2513385.88245  24362011.011    24362026.9574
  21101181.254   -20697922.917 9 -16096474.86247  21101181.476    21101190.9024
  23719734.715    -8033970.889 8  -6084388.57545  23719733.971    23719750.2284
  24646610.208    -3481647.358 8  -2045407.57945  24646609.879    24646629.1864
  21286559.929   -19325982.249 9 -15050122.01047  21286559.402    21286570.0194
 02  1 28  1 34  0.0000000  0 10 06 05 10 24 17 26 30 15 18 23
  20735213.157   -25436089.308 9 -18899082.57848  20735212.921    20735222.4084
  22923724.701   -12136503.712 8  -8680931.42346  22923724.136    22923736.8964
  21263210.849   -19873158.877 9 -15476746.75847  21263209.986    21263220.2234
  24453260.936    -2996107.444 7  -1903619.00145  24453260.529    24453275.2824
  22581366.199   -16231539.587 8 -12288661.49046  22581365.656    22581377.9054
  24344795.305    -3524744.431 7  -2583879.39045  24344795.569    24344811.4034
  21113331.637   -20634072.017 9 -16046720.92647  21113331.855    21113341.3344
  23704905.389    -8111898.364 8  -6145111.02545  23704904.666    23704920.8734
  24625409.383    -3593055.563 7  -2132218.43145  24625408.976    24625428.1664
  21274752.450   -19388030.577 9 -15098471.23747  21274751.906    21274762.5024
 02  1 28  1 34 30.0000000  0 10 06 05 10 24 17 26 30 15 18 23
  20727429.758   -25476991.109 9 -18930954.03248  20727429.519    20727438.9794
  22943056.621   -12034914.059 8  -8601770.77746  22943056.033    22943068.8604
  21273729.579   -19817882.555 9 -15433674.27747  21273728.724    21273738.9244
  24467996.118    -2918673.417 7  -1843280.75145  24467995.829    24468010.3904
  22570355.932   -16289398.398 8 -12333746.18746  22570355.389    22570367.6644
  24327579.482    -3615213.053 7  -2654374.14745  24327579.678    24327595.5374
  21125569.998   -20569758.790 9 -15996606.74047  21125570.222    21125579.7444
  23690106.834    -8189664.065 8  -6205707.40845  23690106.071    23690122.3014
  24604219.659    -3704405.444 8  -2218983.84845  24604219.215    24604238.1904
  21263029.910   -19449632.597 9 -15146472.69547  21263029.361    21263039.9134
 02  1 28  1 35  0.0000000  0 10 06 05 10 24 17 26 30 15 18 23
  20719697.243   -25517625.404 9 -18962617.04148  20719697.002    20719706.4474
  22962417.693   -11933171.195 8  -8522490.72946  22962417.119    22962429.9734
  21284344.658   -19762099.856 9 -15390207.21347  21284343.805    21284353.9894
  24482722.577    -2841285.196 7  -1782978.19445  24482722.324    24482736.9024
  22559382.272   -16347065.073 8 -12378681.16046  22559381.715    22559393.9954
  24310363.856    -3705680.424 7  -2724867.92245  24310363.846    24310379.7794
  21137895.844   -20504985.943 9 -15946134.40847  21137896.079    21137905.6224
  23675339.058    -8267268.145 8  -6266177.85945  23675338.345    23675354.4734
  24583041.437    -3815694.811 8  -2305702.13645  24583041.066    24583059.8044
  21251392.527   -19510787.009 9 -15194125.36747  21251391.978    21251402.4904
 02  1 28  1 35 30.0000000  0 10 06 05 10 24 17 26 30 15 18 23
  20712016.027   -25557990.154 9 -18994070.01748  20712015.790    20712025.2094
  22981807.530   -11831277.349 8  -8443093.03946  22981806.946    22981819.8204
  21295055.774   -19705812.612 9 -15346346.99747  21295054.910    21295065.0934
  24497440.285    -2763942.698 7  -1722711.29545  24497440.035    24497454.7734
  22548445.131   -16404539.655 8 -12423466.45646  22548444.567    22548456.8384
  24293149.228    -3796143.137 7  -2795358.08345  24293149.203    24293165.0154
  21150308.789   -20439755.436 9 -15895305.45547  21150309.026    21150318.5874
  23660602.173    -8344710.095 8  -6326521.99145  23660601.408    23660617.5284
  24561875.190    -3926921.212 7  -2392371.38745  24561874.689    24561893.4364
  21239840.667   -19571491.970 9 -15241427.81947  21239840.115    21239850.6044
 02  1 28  1 36  0.0000000  0 10 06 05 10 24 17 26 30 15 18 23
  20704386.360   -25598084.012 9 -19025311.90748  20704386.132    20704395.5284
  23001225.470   -11729235.817 8  -8363580.27646  23001224.853    23001237.7414
  21305862.330   -19649023.556 9 -15302095.75847  21305861.479    21305871.6334
  24512149.231    -2686646.497 7  -1662480.44145  24512148.952    24512163.6644
  22537544.473   -16461822.691 8 -12468102.48946  22537543.883    22537556.1334
  24275935.956    -3886598.302 7  -2865842.36745  24275935.979    24275951.7854
  21162808.255   -20374070.213 9 -15844122.17947  21162808.492    21162818.0714
  23645896.031    -8421990.242 8  -6386740.03545  23645895.298    23645911.2364
  24540721.256    -4038082.704 7  -2478990.07145  24540720.823    24540739.3154
  21228374.581   -19631746.227 9 -15288379.07347  21228374.033    21228384.4784
 02  1 28  1 36 30.0000000  0 10 06 05 10 24 17 26 30 15 18 23
  20696808.627   -25637904.874 9 -19056341.07048  20696808.398    20696817.7884
  23020671.082   -11627049.151 8  -8283954.40446  23020670.442    23020683.3484
  21316763.978   -19591734.828 9 -15257455.16747  21316763.112    21316773.2964
  24526849.298    -2609396.882 7  -1602285.89445  24526849.105    24526863.7854
  22526680.271   -16518913.977 8 -12512589.10446  22526679.694    22526691.9164
  24258724.836    -3977042.317 7  -2936317.94845  24258724.855    24258740.5704
  21175393.911   -20307932.278 9 -15792586.14347  21175394.140    21175403.7394
  23631220.801    -8499108.113 8  -6446831.63145  23631220.097    23631235.9184
  24519580.159    -4149176.925 7  -2565556.35745  24519579.730    24519597.9594
  21216994.644   -19691547.876 9 -15334977.64647  21216994.101    21217004.5104
 02  1 28  1 37  0.0000000  0 10 06 05 10 24 17 26 30 15 18 23
  20689283.114   -25677451.264 9 -19087156.36148  20689282.898    20689292.2854
  23040143.779   -11524719.856 8  -8204217.41146  23040143.151    23040156.0734
  21327760.219   -19533948.962 9 -15212427.19147  21327759.370    21327769.5544
  24541540.482    -2532194.044 8  -1542127.79545  24541540.245    24541554.9844
  22515852.517   -16575813.593 8 -12556926.36946  22515851.960    22515864.1684
  24241516.456    -4067472.036 7  -3006782.41145  24241516.428    24241532.0654
  21188065.254   -20241343.915 9 -15740699.12447  21188065.497    21188075.0624
  23616576.446    -8576063.485 8  -6506796.61245  23616575.755    23616591.5214
  24498452.470    -4260201.134 7  -2652068.11845  24498452.046    24498469.9534
  21205701.085   -19750895.420 9 -15381222.37347  21205700.539    21205710.9234
 02  1 28  1 37 30.0000000  0 10 06 05 10 24 17 26 30 15 18 23
  20681810.185   -25716721.564 9 -19117756.51648  20681809.961    20681819.3374
  23059643.060   -11422250.757 8  -8124371.47446  23059642.442    23059655.3904
  21338850.635   -19475668.249 9 -15167013.61847  21338849.782    21338859.9894
  24556222.553    -2455038.910 7  -1482006.88345  24556222.391    24556237.0444
  22505061.124   -16632522.250 8 -12601114.82846  22505060.591    22505072.7694
  24224311.330    -4157884.548 7  -3077233.46145  24224311.258    24224326.7774
  21200821.872   -20174307.625 9 -15688463.06847  21200822.116    21200831.6874
  23601963.056    -8652856.436 8  -6566635.01645  23601962.332    23601978.0634
  24477338.474    -4371153.357 8  -2738523.80545  24477338.073    24477355.7824
  21194494.175   -19809787.651 9 -15427112.30847  21194493.618    21194504.0024
 02  1 28  1 38  0.0000000  0 10 06 05 10 24 17 26 30 15 18 23
  20674390.189   -25755713.597 9 -19148139.84248  20674389.968    20674399.3164
  23079168.486   -11319644.446 8  -8044418.62746  23079167.914    23079180.8274
  21350034.823   -19416894.699 9 -15121216.02147  21350033.959    21350044.1764
  24570895.549    -2377931.592 7  -1421923.23345  24570895.313    24570909.9274
  22494306.111   -16689039.800 8 -12645154.37546  22494305.596    22494317.7074
  24207110.212    -4248276.203 7  -3147668.26345  24207110.216    24207125.5644
  21213663.261   -20106825.847 9 -15635879.88047  21213663.506    21213673.0624
  23587380.632    -8729486.515 8  -6626346.53045  23587379.937    23587395.6554
  24456238.655    -4482031.192 7  -2824921.55945  24456238.070    24456255.7574
  21183374.203   -19868222.930 9 -15472646.17847  21183373.646    21183384.0144
 02  1 28  1 38 30.0000000  0 10 06 05 10 24 17 26 30 15 18 23
  20667023.384   -25794426.073 9 -19178305.33948  20667023.158    20667032.4854
  23098719.462   -11216903.897 8  -7964361.17346  23098718.910    23098731.8204
  21361312.287   -19357631.069 9 -15075036.54247  21361311.442    21361321.6234
  24585559.347    -2300872.664 7  -1361877.29645  24585559.082    24585573.7554
  22483587.404   -16745366.541 8 -12689045.23146  22483586.887    22483598.9574
  24189913.589    -4338644.005 7  -3218084.49045  24189913.721    24189928.7364
  21226588.919   -20038901.155 9 -15582951.56847  21226589.158    21226598.6984
  23572829.214    -8805953.689 8  -6685931.08345  23572828.551    23572844.1874
  24435153.337    -4592832.624 8  -2911259.79945  24435152.797    24435170.3094
  21172341.473   -19926199.940 9 -15517822.95547  21172340.914    21172351.2814
 02  1 28  1 39  0.0000000  0 10 06 05 10 24 17 26 30 15 18 23
  20659710.165   -25832856.965 9 -19208251.41348  20659709.931    20659719.2474
  23118295.488   -11114031.709 8  -7884201.14046  23118294.927    23118307.8304
  21372682.605   -19297879.460 9 -15028476.82447  21372681.740    21372691.9324
  24600213.830    -2223862.749 7  -1301869.54645  24600213.576    24600228.2854
  22472905.019   -16801502.425 8 -12732787.37046  22472904.462    22472916.5304
  24172722.181    -4428984.536 7  -3288479.47745  24172722.313    24172737.3744
  21239598.468   -19970535.647 9 -15529679.76347  21239598.692    21239608.2504
  23558308.844    -8882257.579 8  -6745388.42145  23558308.153    23558323.7494
  24414083.128    -4703555.026 7  -2997536.45645  24414082.603    24414099.8814
  21161396.236   -19983716.928 9 -15562641.27447  21161395.681    21161406.0404
 02  1 28  1 39 30.0000000  0 10 06 05 10 24 17 26 30 15 18 23
  20652450.826   -25871004.683 9 -19237976.83548  20652450.586    20652459.8914
  23137896.015   -11011030.686 8  -7803940.70746  23137895.429    23137908.3554
  21384145.269   -19237642.631 9 -14981539.00447  21384144.415    21384154.5774
  24614858.996    -2146901.976 7  -1241900.10745  24614858.718    24614873.4034
  22462258.849   -16857448.104 8 -12776381.28946  22462258.292    22462270.3094
  24155536.575    -4519294.667 7  -3358850.77945  24155536.700    24155551.6344
  21252691.330   -19901732.212 9 -15476066.71647  21252691.548    21252701.1164
  23543819.540    -8958398.396 8  -6804718.68445  23543818.864    23543834.3944
  24393028.372    -4814196.314 7  -3083749.94145  24393027.839    24393044.9284
  21150538.764   -20040772.821 9 -15607100.30447  21150538.217    21150548.5464
 02  1 28  1 40  0.0000000  0 10 06 05 10 24 17 26 30 15 18 23
  20645245.715   -25908867.503 9 -19267480.25848  20645245.484    20645254.7734
  23157520.534   -10907903.560 8  -7723582.02246  23157519.932    23157532.9014
  21395699.810   -19176923.111 9 -14934225.06847  21395698.976    21395709.1044
  24629494.688    -2069990.599 7  -1181969.11845  24629494.406    24629509.2894
  22451648.854   -16913203.619 8 -12819827.02546  22451648.298    22451660.2654
  24138357.391    -4609571.291 7  -3429195.97545  24138357.573    24138372.3574
  21265867.061   -19832493.264 9 -15422114.31047  21265867.276    21265876.8544
  23529361.325    -9034375.818 8  -6863921.62945  23529360.693    23529376.0904
  24371989.493    -4924754.351 8  -3169898.55645  24371989.025    24372005.8494
  21139769.279   -20097366.323 9 -15651199.02847  21139768.723    21139779.0334
 02  1 28  1 40 30.0000000  0 10 06 05 10 24 17 26 30 15 18 23
  20638095.103   -25946443.903 9 -19296760.49748  20638094.884    20638104.1454
  23177168.587   -10804653.017 8  -7643127.17746  23177167.930    23177180.9704
  21407345.757   -19115723.179 9 -14886536.78447  21407344.904    21407355.0544
  24644120.926    -1993129.120 7  -1122077.05245  24644120.671    24644135.5274
  22441074.964   -16968769.308 8 -12863124.85046  22441074.418    22441086.3334
  24121185.108    -4699811.148 8  -3499512.52745  24121185.301    24121200.0594
  21279125.185   -19762821.486 9 -15367824.63847  21279125.408    21279134.9964
  23514934.169    -9110189.851 8  -6922997.26046  23514933.541    23514948.8414
  24350966.897    -5035226.844 8  -3255980.52045  24350966.417    24350983.1094
  21129088.069   -20153496.109 9 -15694936.41947  21129087.507    21129097.7954
 02  1 28  1 41  0.0000000  0 10 06 05 10 24 17 26 30 15 18 23
  20630999.428   -25983731.641 9 -19325815.80248  20630999.197    20631008.4384
  23196839.602   -10701281.471 8  -7562578.03646  23196839.002    23196852.0244
  21419082.690   -19054045.051 9 -14838475.88447  21419081.838    21419091.9734
  24658737.607    -1916317.913 7  -1062224.15145  24658737.411    24658752.1544
  22430537.212   -17024145.012 8 -12906274.63046  22430536.663    22430548.5504
  24104020.586    -4790010.491 8  -3569797.52445  24104020.764    24104035.4834
  21292465.298   -19692718.598 9 -15313199.03347  21292465.503    21292475.1334
  23500538.279    -9185839.848 8  -6981945.08346  23500537.618    23500552.8794
  24329961.136    -5145610.991 8  -3341993.64645  24329960.699    24329977.1054
  21118495.442   -20209160.168 9 -15738310.90247  21118494.890    21118505.1714
 02  1 28  1 41 30.0000000  0 10 06 05 10 24 17 26 30 15 18 23
  20623958.924   -26020729.370 9 -19354645.12848  20623958.691    20623967.9364
  23216533.110   -10597791.905 8  -7481936.94646  23216532.459    23216545.5754
  21430910.146   -18991891.370 9 -14790044.42647  21430909.300    21430919.4344
  24673344.645    -1839557.336 7  -1002410.69945  24673344.330    24673359.2144
  22420035.498   -17079331.368 8 -12949276.86346  22420034.973    22420046.8494
  24086864.349    -4880166.376 7  -3640048.65645  24086864.491    24086879.2324
  21305886.856   -19622187.752 9 -15258239.95747  21305887.081    21305896.7274
  23486173.482    -9261326.395 8  -7040765.53646  23486172.791    23486188.0414
  24308972.527    -5255904.924 8  -3427936.49145  24308971.990    24308988.4234
  21107991.589   -20264357.718 9 -15781321.87347  21107991.022    21108001.3034
 02  1 28  1 42  0.0000000  0 10 06 05 10 24 17 26 30 15 18 23
  20616973.994   -26057435.104 9 -19383246.92448  20616973.776    20616982.9974
  23236248.630   -10494186.682 8  -7401205.70446  23236247.980    23236261.1374
  21442827.607   -18929264.490 9 -14741244.23947  21442826.760    21442836.9354
  24687942.087    -1762847.344 7   -942636.67245  24687941.724    24687956.5024
  22409569.828   -17134328.179 8 -12992131.39146  22409569.328    22409581.1974
  24069717.032    -4970275.224 8  -3710263.14145  24069717.002    24069731.8894
  21319389.437   -19551231.192 9 -15202949.15447  21319389.674    21319399.3044
  23471839.914    -9336648.957 8  -7099458.20246  23471839.265    23471854.4154
  24288001.580    -5366106.107 8  -3513807.05345  24288001.048    24288017.2594
  21097576.885   -20319086.970 9 -15823967.93447  21097576.332    21097586.5954
 02  1 28  1 42 30.0000000  0 10 06 05 10 24 17 26 30 15 18 23
  20610044.891   -26093847.465 9 -19411620.11948  20610044.673    20610053.8584
  23255985.499   -10390469.098 8  -7320386.92246  23255984.886    23255998.0384
  21454834.674   -18866166.821 9 -14692077.21347  21454833.818    21454844.0374
  24702529.834    -1686188.336 7   -882902.36045  24702529.605    24702544.1614
  22399140.146   -17189135.881 8 -13034838.56746  22399139.648    22399151.5244
  24052579.267    -5060334.112 8  -3780438.70645  24052579.216    24052594.0294
  21332972.511   -19479851.832 9 -15147328.89847  21332972.730    21332982.3454
  23457537.496    -9411807.761 8  -7158023.28546  23457536.855    23457551.9094
  24267048.690    -5476212.301 8  -3599603.59345  24267048.183    24267064.2654
  21087251.430   -20373347.082 9 -15866248.43647  21087250.880    21087261.1274
 02  1 28  1 43  0.0000000  0 10 06 05 10 24 17 26 30 15 18 23
  20603172.067   -26129964.286 9 -19439763.02148  20603171.851    20603180.9984
  23275743.327   -10286641.427 8  -7239482.36046  23275742.758    23275755.8824
  21466930.857   -18802600.766 9 -14642545.20847  21466930.004    21466940.2554
  24717107.842    -1609580.509 7   -823207.96345  24717107.533    24717122.0194
  22388746.456   -17243754.633 8 -13077398.50347  22388745.954    22388757.8084
  24035451.679    -5150339.370 8  -3850572.47645  24035451.634    24035466.4114
  21346635.644   -19408051.695 9 -15091380.76347  21346635.861    21346645.4724
  23443266.338    -9486802.310 8  -7216460.36046  23443265.695    23443280.7344
  24246114.262    -5586221.065 7  -3685324.21545  24246113.735    24246129.9174
  21077015.613   -20427136.328 9 -15908162.02647  21077015.056    21077025.2714
 02  1 28  1 43 30.0000000  0 10 06 05 10 24 17 26 30 15 18 23
  20596355.745   -26165784.133 9 -19467674.51448  20596355.510    20596364.6294
  23295521.552   -10182706.465 8  -7158494.19746  23295520.987    23295534.1694
  21479115.618   -18738569.232 9 -14592650.49147  21479114.768    21479125.0234
  24731675.913    -1533024.641 7   -763554.00645  24731675.617    24731690.0984
  22378388.687   -17298184.769 8 -13119811.47347  22378388.174    22378400.0194
  24018334.939    -5240287.728 7  -3920661.91945  24018334.913    24018349.5374
  21360378.353   -19335833.498 9 -15035106.86747  21360378.558    21360388.1434
  23429026.396    -9561632.554 8  -7274769.42946  23429025.713    23429040.7494
  24225198.872    -5696130.466 8  -3770967.42445  24225198.305    24225214.4054
  21066869.577   -20480453.646 9 -15949707.88647  21066869.020    21066879.2084
 02  1 28  1 44  0.0000000  0 10 06 05 10 24 17 26 30 15 18 23
  20589596.239   -26201305.248 9 -19495353.22948  20589596.009    20589605.0934
  23315319.688   -10078666.978 8  -7077424.58146  23315319.121    23315332.3534
  21491388.536   -18674074.538 9 -14542394.87147  21491387.702    21491397.9404
  24746234.058    -1456521.146 7   -703940.88445  24746233.688    24746248.2614
  22368066.751   -17352426.495 8 -13162077.62147  22368066.241    22368078.0574
  24001229.558    -5330176.001 8  -3990704.53645  24001229.485    24001244.1624
  21374200.095   -19263200.027 9 -14978509.38347  21374200.319    21374209.8674
  23414817.735    -9636298.550 8  -7332950.49846  23414817.030    23414832.0164
  24204302.772    -5805938.246 8  -3856531.42645  24204302.251    24204318.1554
  21056813.592   -20533297.782 9 -15990885.02947  21056813.042    21056823.1944
 02  1 28  1 44 30.0000000  0 10 06 05 10 24 17 26 30 15 18 23
  20582893.946   -26236525.709 9 -19522797.66648  20582893.719    20582902.7954
  23335137.184    -9974525.555 8  -6996275.52646  23335136.601    23335149.9114
  21503749.102   -18609119.222 9 -14491780.32947  21503748.255    21503758.4984
  24760782.205    -1380069.919 7   -644368.49045  24760781.977    24760796.3114
  22357780.637   -17406480.074 8 -13204197.16947  22357780.091    22357791.8534
  23984136.235    -5420000.901 7  -4060697.76545  23984136.169    23984150.8494
  21388100.351   -19190153.804 9 -14921590.27247  21388100.566    21388110.0894
  23400640.390    -9710800.137 8  -7391003.45146  23400639.705    23400654.6614
  24183426.465    -5915641.962 8  -3942014.34845  24183425.913    24183441.7194
  21046847.942   -20585667.411 9 -16031692.42847  21046847.381    21046857.4914
 02  1 28  1 45  0.0000000  0 10 06 05 10 24 17 26 30 15 18 23
  20576249.173   -26271443.782 9 -19550006.47448  20576248.949    20576258.0084
  23354973.591    -9870284.828 8  -6915049.10446  23354973.019    23354986.3854
  21516196.842   -18543705.830 9 -14440808.84147  21516196.007    21516206.2414
  24775320.495    -1303670.946 7   -584836.80445  24775320.163    24775334.4224
  22347530.249   -17460345.626 8 -13246170.19647  22347529.707    22347541.4454
  23967055.715    -5509758.815 8  -4130638.79745  23967055.613    23967070.3044
  21402078.712   -19116697.280 9 -14864351.44847  21402078.929    21402088.4374
  23386494.351    -9785137.144 8  -7448928.17046  23386493.677    23386508.5174
  24162570.457    -6025239.236 8  -4027414.33445  24162569.872    24162585.5834
  21036972.787   -20637561.196 9 -16072129.03747  21036972.227    21036982.2964
 02  1 28  1 45 30.0000000  0 10 06 05 10 24 17 26 30 15 18 23
  20569662.280   -26306057.915 9 -19576978.44848  20569662.049    20569671.1034
  23374828.377    -9765947.686 8  -6833747.54346  23374827.803    23374841.2154
  21528731.301   -18477836.679 9 -14389482.21447  21528730.450    21528740.7234
  24789848.736    -1227324.458 7   -525346.02945  24789848.385    24789862.7164
  22337315.598   -17514023.663 8 -13287997.10747  22337315.059    22337326.7724
  23949988.525    -5599446.644 7  -4200525.21745  23949988.508    23950003.0294
  21416134.623   -19042833.288 9 -14806795.11447  21416134.838    21416144.3004
  23372379.742    -9859309.327 8  -7506724.45346  23372379.009    23372393.8284
  24141735.103    -6134727.929 8  -4112729.70645  24141734.526    24141750.0684
  21027188.421   -20688978.047 9 -16112194.01047  21027187.871    21027197.8924
 02  1 28  1 46  0.0000000  0 10 06 05 10 24 17 26 30 15 18 23
  20563133.489   -26340366.541 9 -19603712.36748  20563133.259    20563142.2994
  23394700.939    -9661517.041 8  -6752373.11146  23394700.346    23394713.7164
  21541351.980   -18411514.399 9 -14337802.49947  21541351.143    21541361.4104
  24804366.867    -1151031.265 7   -465896.77145  24804366.514    24804380.7164
  22327136.576   -17567514.275 8 -13329677.98947  22327136.026    22327147.7134
  23932935.298    -5689061.020 8  -4270354.38945  23932935.343    23932949.6854
  21430267.565   -18968564.437 9 -14748923.30947  21430267.774    21430277.2164
  23358296.404    -9933317.021 8  -7564392.56846  23358295.649    23358310.3744
  24120920.863    -6244105.643 8  -4197958.60845  24120920.285    24120935.7064
  21017494.981   -20739916.933 9 -16151886.54547  21017494.422    21017504.4254
 02  1 28  1 46 30.0000000  0 10 06 05 10 24 17 26 30 15 18 23
  20556663.233   -26374367.700 9 -19630206.70148  20556662.999    20556672.0214
  23414590.892    -9556995.208 8  -6670927.66646  23414590.286    23414603.7104
  21554058.316   -18344742.032 9 -14285772.06747  21554057.467    21554067.7274
  24818874.814    -1074791.390 7   -406489.05645  24818874.520    24818888.8204
  22316993.161   -17620817.732 8 -13371213.03447  22316992.618    22317004.2664
  23915896.686    -5778598.559 7  -4340123.69845  23915896.709    23915910.9734
  21444477.042   -18893893.190 9 -14690737.94547  21444477.257    21444486.7054
  23344244.449   -10007159.868 8  -7621932.22346  23344243.747    23344258.3324
  24100128.144    -6353370.201 8  -4283099.35345  24100127.619    24100142.8534
  21007892.780   -20790376.490 9 -16191205.57747  21007892.219    21007902.1864
 02  1 28  1 47  0.0000000  0 10 06 05 10 24 17 26 30 15 18 23
  20550251.795   -26408059.690 9 -19656460.12448  20550251.567    20550260.5584
  23434497.634    -9452385.014 8  -6589413.32546  23434496.975    23434510.5234
  21566849.873   -18277522.006 9 -14233392.80347  21566849.041    21566859.2574
  24833372.549     -998605.390 7   -347123.32745  24833372.465    24833386.4974
  22306885.316   -17673934.237 8 -13412602.40047  22306884.785    22306896.4104
  23898873.374    -5868055.855 7  -4409830.47045  23898873.365    23898887.6174
  21458762.597   -18818822.306 9 -14632241.17647  21458762.817    21458772.2784
  23330223.804   -10080837.814 8  -7679343.38646  23330223.113    23330237.6864
  24079357.452    -6462519.175 8  -4368150.01145  24079356.969    24079371.9574
  20998381.931   -20840355.758 9 -16230150.35647  20998381.373    20998391.3074
 02  1 28  1 47 30.0000000  0 10 06 05 10 24 17 26 30 15 18 23
  20543899.536   -26441440.716 9 -19682471.23448  20543899.305    20543908.2714
  23454420.698    -9347689.060 8  -6507832.17646  23454420.092    23454433.6594
  21579726.210   -18209856.521 9 -14180666.43647  21579725.377    21579735.5704
  24847860.015     -922473.133 7   -287799.47745  24847859.805    24847874.0324
  22296812.995   -17726864.054 8 -13453846.30247  22296812.478    22296824.1044
  23881865.933    -5957429.483 8  -4479472.05345  23881865.938    23881880.1584
  21473123.679   -18743354.299 9 -14573434.96147  21473123.906    21473133.3774
  23316234.626   -10154350.638 8  -7736625.90746  23316233.957    23316248.4134
  24058609.111    -6571550.441 8  -4453108.96245  24058608.603    24058623.5094
  20988962.782   -20889853.368 9 -16268719.82047  20988962.224    20988972.1224
 02  1 28  1 48  0.0000000  0 10 06 05 10 24 17 26 30 15 18 23
  20537606.754   -26474509.309 9 -19708238.88848  20537606.521    20537615.4644
  23474359.541    -9242910.047 8  -6426186.31046  23474358.960    23474372.5194
  21592686.765   -18141748.449 9 -14127595.19347  21592685.925    21592696.0884
  24862337.194     -846395.015 7   -228517.79945  24862336.951    24862351.2354
  22286776.153   -17779607.572 8 -13494945.03147  22286775.636    22286787.2684
  23864875.043    -6046716.320 8  -4549045.98445  23864875.080    23864889.2234
  21487559.786   -18667492.118 9 -14514321.59347  21487560.012    21487569.5194
  23302276.828   -10227698.574 8  -7793779.92546  23302276.160    23302290.5264
  24037883.528    -6680461.902 7  -4537974.58045  24037883.051    24037897.9274
  20979635.444   -20938868.523 9 -16306913.34147  20979634.891    20979644.7504
 02  1 28  1 48 30.0000000  0  9 06 05 10 17 26 30 15 18 23
  20531373.652   -26507264.114 9 -19733762.03648  20531373.416    20531382.3464
  23494313.576    -9138051.181 8  -6344478.21445  23494312.985    23494326.5944
  21605730.979   -18073200.700 9 -14074181.34647  21605730.124    21605740.2604
  22276774.601   -17832165.520 8 -13535899.17147  22276774.080    22276785.6864
  23847901.315    -6135913.401 7  -4618550.00045  23847901.251    23847915.3514
  21502070.302   -18591238.804 9 -14454903.44647  21502070.536    21502080.0454
  23288350.334   -10300882.014 8  -7850805.76646  23288349.672    23288364.0154
  24017181.153    -6789251.582 8  -4622745.30045  24017180.683    24017195.5024
  20970399.990   -20987400.663 9 -16344730.49247  20970399.425    20970409.2554
 02  1 28  1 49  0.0000000  0  9 06 05 10 17 26 30 15 18 23
  20525200.245   -26539705.175 9 -19759040.70948  20525200.020    20525208.9484
  23514281.972    -9033116.964 8  -6262711.41745  23514281.371    23514295.0914
  21618857.946   -18004217.962 9 -14020428.55247  21618857.107    21618867.2064
  22266808.006   -17884539.872 8 -13576710.24947  22266807.460    22266819.0674
  23830944.938    -6225018.991 8  -4687982.71345  23830944.961    23830958.9574
  21516654.454   -18514598.809 9 -14395183.99147  21516654.680    21516664.1784
  23274454.820   -10373902.557 8  -7907704.69046  23274454.151    23274468.4484
  23996502.115    -6897918.910 8  -4707420.67845  23996501.609    23996516.3834
  20961256.395   -21035450.325 9 -16382171.68648  20961255.835    20961265.6164
 02  1 28  1 49 30.0000000  0  9 06 05 10 17 26 30 15 18 23
  20519087.711   -26571826.427 9 -19784070.17748  20519087.481    20519096.4004
  23534264.982    -8928105.829 8  -6180884.66445  23534264.417    23534278.1804
  21632068.033   -17934798.383 9 -13966335.35347  21632067.182    21632077.3004
  22256877.157   -17936726.584 8 -13617375.11247  22256876.615    22256888.1694
  23814007.394    -6314025.524 8  -4757338.23845  23814007.486    23814021.4144
  21531312.463   -18437570.571 9 -14335162.00547  21531312.692    21531322.1694
  23260591.161   -10446755.727 8  -7964473.19746  23260590.499    23260604.7904
  23975847.563    -7006457.378 8  -4791995.67345  23975847.077    23975861.7114
  20952205.628   -21083012.039 9 -16419232.65948  20952205.070    20952214.8294
 02  1 28  1 50  0.0000000  0  9 06 05 10 17 26 30 15 18 23
  20513036.098   -26603627.611 9 -19808850.24648  20513035.861    20513044.7574
  23554261.897    -8823021.935 8  -6099001.23145  23554261.304    23554275.1174
  21645360.494   -17864945.954 9 -13911904.87447  21645359.649    21645369.7604
  22246981.676   -17988727.389 8 -13657895.11547  22246981.116    22246992.6374
  23797089.054    -6402931.090 8  -4826615.10545  23797089.058    23797103.0504
  21546043.571   -18360158.234 9 -14274840.72447  21546043.794    21546053.2704
  23246759.050   -10519442.934 8  -8021112.37946  23246758.375    23246772.6454
  23955217.664    -7114866.323 8  -4876469.74245  23955217.149    23955231.6114
  20943247.589   -21130086.353 9 -16455913.84248  20943247.042    20943256.7704
 02  1 28  1 50 30.0000000  0  9 06 05 10 17 26 30 15 18 23
  20507045.665   -26635107.245 9 -19833379.75548  20507045.428    20507054.3124
  23574272.129    -8717867.985 8  -6017063.19645  23574271.552    23574285.3754
  21658734.780   -17794663.405 9 -13857139.22747  21658733.931    21658744.0324
  22237121.411   -18040542.749 8 -13698270.61547  22237120.852    22237132.3854
  23780190.567    -6491732.337 8  -4895810.66845  23780190.677    23780204.5604
  21560847.195   -18282364.707 9 -14214222.41247  21560847.416    21560856.9074
  23232958.476   -10591964.477 8  -8077622.48746  23232957.849    23232972.0604
  23934612.829    -7223143.530 8  -4960841.16945  23934612.364    23934626.7134
  20934382.472   -21176672.482 9 -16492214.62148  20934381.919    20934391.6304
 02  1 28  1 51  0.0000000  0  9 06 05 10 17 26 30 15 18 23
  20501116.753   -26666263.582 9 -19857657.34348  20501116.512    20501125.3454
  23594295.115    -8612646.689 8  -5935072.67745  23594294.610    23594308.4154
  21672190.449   -17723953.288 9 -13802040.41847  21672189.625    21672199.7054
  22227296.445   -18092172.863 8 -13738501.76947  22227295.883    22227307.4144
  23763312.584    -6580425.895 7  -4964922.32345  23763312.641    23763326.5024
  21575722.834   -18204192.609 9 -14153309.10647  21575723.058    21575732.5724
  23219189.506   -10664320.196 8  -8134003.38446  23219188.851    23219202.9914
  23914033.544    -7331286.705 8  -5045108.16245  23914033.110    23914047.3524
  20925610.468   -21222769.313 9 -16528134.12948  20925609.912    20925619.5844
 02  1 28  1 51 30.0000000  0  9 06 05 10 17 26 30 15 18 23
  20495249.645   -26697095.273 9 -19881681.96648  20495249.414    20495258.1904
  23614330.407    -8507361.041 8  -5853032.03645  23614329.889    23614343.7464
  21685726.843   -17652818.953 9 -13746611.05047  21685725.994    21685736.1054
  22217506.510   -18143618.611 8 -13778589.26147  22217505.961    22217517.5044
  23746455.642    -6669008.692 8  -5033947.69045  23746455.791    23746469.6094
  21590669.953   -18125645.087 9 -14092103.26947  21590670.180    21590679.6944
  23205451.986   -10736510.462 8  -8190255.36246  23205451.330    23205465.4444
  23893480.097    -7439294.033 8  -5129269.31945  23893479.628    23893493.7784
  20916931.699   -21268376.280 9 -16563671.93048  20916931.150    20916940.7894
 02  1 28  1 52  0.0000000  0  9 06 05 10 17 26 30 15 18 23
  20489444.615   -26727600.499 9 -19905452.19348  20489444.373    20489453.1264
  23634377.467    -8402013.565 8  -5770943.19645  23634376.931    23634390.8724
  21699343.514   -17581262.868 9 -13690853.04747  21699342.658    21699352.7484
  22207751.725   -18194879.926 8 -13818533.03647  22207751.174    22207762.7324
  23729620.478    -6757477.281 8  -5102884.05245  23729620.545    23729634.4104
  21605688.001   -18046724.804 9 -14030606.96747  21605688.223    21605697.7634
  23191745.990   -10808534.990 8  -8246378.19846  23191745.339    23191759.3854
  23872953.018    -7547163.048 8  -5213322.72145  23872952.530    23872966.5694
  20908346.321   -21313492.309 9 -16598827.17948  20908345.774    20908355.3764
 02  1 28  1 52 30.0000000  0  9 06 05 10 17 26 30 15 18 23
  20483702.017   -26757777.734 9 -19928966.84348  20483701.778    20483710.5064
  23654435.689    -8296607.094 8  -5688808.40445  23654435.155    23654449.1394
  21713039.936   -17509287.742 9 -13634768.51747  21713039.066    21713049.1654
  22198031.940   -18245957.326 8 -13858333.49847  22198031.393    22198042.9274
  23712807.632    -6845828.349 8  -5171728.84945  23712807.645    23712821.5174
  21620776.386   -17967434.770 9 -13968822.54047  21620776.608    21620786.1774
  23178071.521   -10880394.055 8  -8302372.11246  23178070.876    23178084.8354
  23852452.613    -7654891.765 8  -5297266.80545  23852452.082    23852466.0084
  20899854.518   -21358116.674 9 -16633599.30948  20899853.962    20899863.5324
 02  1 28  1 53  0.0000000  0  9 06 05 10 17 26 30 15 18 23
  20478022.142   -26787625.383 9 -19952224.67748  20478021.901    20478030.6054
  23674504.738    -8191144.292 8  -5606629.70645  23674504.172    23674518.1504
  21726815.537   -17436896.460 9 -13578359.71747  21726814.689    21726824.7614
  22188347.121   -18296851.086 8 -13897990.85947  22188346.577    22188358.0954
  23696017.849    -6934058.622 8  -5240479.52045  23696017.839    23696031.7684
  21635934.654   -17887777.615 9 -13906752.04747  21635934.884    21635944.4504
  23164428.550   -10952087.629 8  -8358237.06646  23164427.871    23164441.8034
  23831979.376    -7762477.908 8  -5381099.81945  23831978.836    23831992.6214
  20891456.409   -21402248.510 9 -16667987.65448  20891455.856    20891465.3934
 02  1 28  1 53 30.0000000  0  9 06 05 10 17 26 30 15 18 23
  20472405.286   -26817141.856 9 -19975224.44948  20472405.049    20472413.7474
  23694583.936    -8085627.923 8  -5524409.26145  23694583.371    23694597.3804
  21740669.807   -17364091.726 9 -13521628.73947  21740668.968    21740679.0234
  22178697.139   -18347561.655 8 -13937505.47547  22178696.588    22178708.0864
  23679251.701    -7022164.622 8  -5309133.36445  23679251.635    23679265.5744
  21651162.180   -17807756.337 9 -13844397.82047  21651162.402    21651171.9904
  23150817.077   -11023615.685 8  -8413973.05546  23150816.364    23150830.2664
  23811533.644    -7869919.400 8  -5464820.12345  23811533.120    23811546.7524
  20883152.200   -21445887.046 9 -16701991.61048  20883151.645    20883161.1554
 02  1 28  1 54  0.0000000  0  9 06 05 10 17 26 30 15 18 23
  20466851.866   -26846324.867 9 -19997964.38548  20466851.634    20466860.3174
  23714672.787    -7980060.378 8  -5442148.95445  23714672.254    23714686.2754
  21754602.283   -17290875.840 8 -13464577.38347  21754601.463    21754611.5214
  22169082.077   -18398088.913 8 -13976877.24447  22169081.514    22169092.9664
  23662509.883    -7110142.673 8  -5377687.51445  23662509.876    23662523.7294
  21666458.542   -17727373.319 9 -13781761.72347  21666458.783    21666468.3584
  23137237.145   -11094978.054 8  -8469579.93546  23137236.445    23137250.2964
  23791115.965    -7977213.613 8  -5548425.68145  23791115.425    23791128.9164
  20874942.100   -21489030.999 9 -16735610.17348  20874941.549    20874951.0344
 02  1 28  1 54 30.0000000  0  9 06 05 10 17 26 30 15 18 23
  20461362.162   -26875173.093 9 -20020443.44848  20461361.944    20461370.5984
  23734770.923    -7874444.474 8  -5359850.96745  23734770.390    23734784.3424
  21768612.520   -17217251.518 8 -13407207.76347  21768611.684    21768621.7284
  22159501.787   -18448433.433 8 -14016106.62047  22159501.217    22159512.6164
  23645793.013    -7197989.371 8  -5446139.31645  23645792.979    23645806.8214
  21681823.195   -17646631.604 9 -13718846.11947  21681823.446    21681833.0334
  23123688.720   -11166174.803 8  -8525057.76946  23123688.004    23123701.8514
  23770726.697    -8084358.368 8  -5631914.79645  23770726.229    23770739.5194
  20866826.259   -21531679.694 9 -16768842.82248  20866825.707    20866835.1714
 02  1 28  1 55  0.0000000  0  9 06 05 10 17 26 30 15 18 23
  20455936.490   -26903684.850 9 -20042660.32448  20455936.260    20455944.9034
  23754877.712    -7768782.961 8  -5277517.41345  23754877.110    23754891.1744
  21782699.900   -17143221.883 8 -13349522.31947  21782699.041    21782709.0874
  22149956.205   -18498595.481 8 -14055193.80947  22149955.635    22149966.9714
  23629101.743    -7285701.619 8  -5514486.33345  23629101.784    23629115.5474
  21697255.547   -17565534.075 9 -13655653.26147  21697255.772    21697265.4134
  23110171.845   -11237205.779 8  -8580406.42246  23110171.171    23110184.9284
  23750366.223    -8191351.674 8  -5715285.91345  23750365.734    23750379.0604
  20858804.758   -21573832.508 9 -16801689.06948  20858804.211    20858813.6594
 02  1 28  1 55 30.0000000  0  9 06 05 10 17 26 30 15 18 23
  20450575.241   -26931858.109 9 -20064613.43948  20450575.012    20450583.6274
  23774992.752    -7663078.128 8  -5195150.12845  23774992.165    23775006.2694
  21796863.970   -17068789.116 8 -13291522.74547  21796863.136    21796873.1584
  22140445.304   -18548575.060 8 -14094138.80847  22140444.749    22140456.0484
  23612436.838    -7373275.448 8  -5582725.50545  23612436.870    23612450.6694
  21712755.179   -17484083.067 9 -13592184.96247  21712755.402    21712765.0874
  23096686.599   -11308070.549 8  -8635625.55746  23096685.918    23096699.6484
  23730035.101    -8298190.891 8  -5798536.95245  23730034.599    23730047.8344
  20850877.850   -21615488.231 9 -16834147.97348  20850877.308    20850886.7264
 02  1 28  1 56  0.0000000  0  9 06 05 10 17 26 30 15 18 23
  20445278.741   -26959691.156 9 -20086301.45548  20445278.508    20445287.0964
  23795115.554    -7557332.812 8  -5112751.29745  23795114.925    23795129.0404
  21811104.205   -16993956.026 8 -13233211.23647  21811103.367    21811113.3844
  22130968.997   -18598372.604 8 -14132941.96647  22130968.450    22130979.7604
  23595798.942    -7460707.457 8  -5650854.15045  23595799.048    23595812.6424
  21728321.453   -17402281.683 9 -13528443.64447  21728321.686    21728331.4014
  23083232.890   -11378769.496 8  -8690715.48046  23083232.181    23083245.8994
  23709733.781    -8404873.835 8  -5881666.23445  23709733.254    23709746.4554
  20843045.691   -21656646.108 9 -16866218.94648  20843045.140    20843054.5464
 02  1 28  1 56 30.0000000  0  9 06 05 10 17 26 30 15 18 23
  20440047.205   -26987182.785 9 -20107723.43048  20440046.970    20440055.5334
  23815245.440    -7451549.878 8  -5030323.17045  23815244.839    23815259.0374
  21825420.066   -16918725.619 8 -13174590.12747  21825419.216    21825429.2194
  22121527.251   -18647988.670 8 -14171603.70747  22121526.716    22121538.0184
  23579188.573    -7547994.667 7  -5718869.96745  23579188.657    23579202.2114
  21743953.854   -17320132.943 9 -13464431.66147  21743954.064    21743963.8024
  23069810.693   -11449302.943 8  -8745676.43346  23069809.994    23069823.6814
  23689462.518    -8511398.592 8  -5964672.25545  23689462.048    23689475.1504
  20835308.322   -21697305.906 9 -16897901.80748  20835307.767    20835317.1384
 02  1 28  1 57  0.0000000  0  9 06 05 10 17 26 30 15 18 23
  20434881.091   -27014330.740 9 -20128877.60848  20434880.856    20434889.3944
  23835382.123    -7345731.322 8  -4947867.25845  23835381.618    23835395.7014
  21839811.072   -16843100.310 8 -13115661.29547  21839810.214    21839820.2054
  22112120.074   -18697423.018 8 -14210123.85147  22112119.558    22112130.8374
  23562606.573    -7635133.120 8  -5786769.85945  23562606.667    23562620.1114
  21759651.882   -17237639.339 9 -13400150.95147  21759652.106    21759661.8524
  23056420.111   -11519670.186 8  -8800507.88446  23056419.393    23056433.0484
  23669221.872    -8617762.485 8  -6047552.93845  23669221.320    23669234.4334
  20827665.996   -21737466.205 9 -16929195.44848  20827665.437    20827674.8004
 02  1 28  1 57 30.0000000  0  9 06 05 10 17 26 30 15 18 23
  20429780.519   -27041134.098 9 -20149763.26648  20429780.277    20429788.8044
  23855524.963    -7239880.519 8  -4865386.21645  23855524.364    23855538.5894
  21854276.603   -16767083.260 8 -13056427.21347  21854275.750    21854285.7624
  22102747.350   -18746676.615 8 -14248503.14947  22102746.837    22102758.0534
  23546053.453    -7722119.882 8  -5854551.54345  23546053.556    23546066.9304
  21775414.901   -17154804.155 9 -13335604.07547  21775415.114    21775424.8624
  23043061.032   -11589871.900 8  -8855210.33746  23043060.341    23043073.9684
  23649012.190    -8723963.823 8  -6130306.93345  23649011.690    23649024.7094
  20820118.721   -21777126.918 9 -16960099.79648  20820118.172    20820127.5074
 02  1 28  1 58  0.0000000  0  9 06 05 10 17 26 30 15 18 23
  20424745.876   -27067590.863 9 -20170378.85448  20424745.643    20424754.1624
  23875673.524    -7133999.828 8  -4782881.89445  23875672.925    23875687.0964
  21868816.275   -16690676.753 8 -12996889.66447  21868815.424    21868825.4344
  22093409.039   -18795749.386 8 -14286741.54547  22093408.522    22093419.6954
  23529529.879    -7808951.163 8  -5922212.06245  23529529.996    23529543.2994
  21791242.450   -17071629.841 8 -13270792.94247  21791242.667    21791252.3984
  23029733.521   -11659907.648 8  -8909783.46646  23029732.858    23029746.4744
  23628833.958    -8829999.930 8  -6212932.18845  23628833.490    23628846.3784
  20812666.737   -21816287.034 9 -16990614.07148  20812666.181    20812675.5284
 02  1 28  1 58 30.0000000  0  9 06 05 10 17 26 30 15 18 23
  20419777.549   -27093699.290 9 -20190723.00948  20419777.332    20419785.8504
  23895827.264    -7028091.738 8  -4700356.21445  23895826.673    23895840.8794
  21883429.464   -16613883.769 8 -12937050.95947  21883428.598    21883438.6024
  22084105.073   -18844641.652 8 -14324839.28447  22084104.533    22084115.6594
  23513036.518    -7895623.574 8  -5989748.78745  23513036.604    23513049.8824
  21807133.959   -16988119.405 8 -13205719.89147  21807134.195    21807143.9124
  23016437.620   -11729777.275 8  -8964227.16046  23016436.953    23016450.5574
  23608687.518    -8935868.746 8  -6295427.06545  23608687.087    23608699.9094
  20805310.110   -21854945.885 9 -17020737.74948  20805309.554    20805318.8864
 02  1 28  1 59  0.0000000  0  9 06 05 10 17 26 30 15 18 23
  20414875.719   -27119458.206 9 -20210794.82248  20414875.486    20414884.0124
  23915985.608    -6922159.407 8  -4617811.65745  23915985.038    23915999.1634
  21898115.674   -16536707.264 8 -12876913.41247  21898114.801    21898124.7824
  22074835.294   -18893354.291 9 -14362797.05847  22074834.750    22074845.8194
  23496573.949    -7982134.018 8  -6057159.28945  23496574.081    23496587.3414
  21823088.786   -16904276.199 8 -13140387.54447  21823089.010    21823098.7534
  23003173.208   -11799481.510 8  -9018541.97746  23003172.486    23003186.1174
  23588573.316    -9041568.396 8  -6377790.13945  23588572.891    23588585.7484
  20798048.925   -21893103.253 9 -17050470.66348  20798048.371    20798057.6944
 02  1 28  1 59 30.0000000  0  9 06 05 10 17 26 30 15 18 23
  20410040.840   -27144865.244 9 -20230592.44348  20410040.613    20410049.1144
  23936148.242    -6816204.711 8  -4535249.65445  23936147.659    23936161.8314
  21912874.393   -16459149.524 8 -12816478.79447  21912873.523    21912883.5044
  22065599.777   -18941886.813 9 -14400614.48247  22065599.244    22065610.2524
  23480142.971    -8068478.458 8  -6124440.43045  23480143.025    23480156.3384
  21839106.522   -16820102.362 8 -13074797.56147  21839106.741    21839116.4974
  22989940.390   -11869019.752 8  -9072727.43646  22989939.686    22989953.3044
  23568491.845    -9147096.189 8  -6460019.26645  23568491.374    23568504.1394
  20790883.399   -21930757.832 9 -17079811.79148  20790882.852    20790892.1564
 02  1 28  2  0  0.0000000  0  9 06 05 10 17 26 30 15 18 23
  20405273.239   -27169918.882 9 -20250114.68848  20405273.014    20405281.5114
  23956314.575    -6710230.323 8  -4452672.31545  23956314.039    23956328.1644
  21927705.137   -16381213.342 8 -12755749.28747  21927704.266    21927714.2604
  22056398.439   -18990239.703 8 -14438291.93347  22056397.904    22056408.8554
  23463744.235    -8154653.593 8  -6191589.65145  23463744.288    23463757.5924
  21855186.635   -16735600.884 8 -13008952.28047  21855186.869    21855196.5964
  22976739.083   -11938392.229 8  -9126783.73546  22976738.385    22976752.0164
  23548443.447    -9252449.903 8  -6542112.76445  23548443.003    23548455.6774
  20783813.686   -21967909.146 9 -17108760.76648  20783813.126    20783822.4284
 02  1 28  2  0 30.0000000  0  9 06 05 10 17 26 30 15 18 23
  20400573.138   -27194617.606 9 -20269360.38148  20400572.917    20400581.4044
  23976484.166    -6604238.955 8  -4370081.74245  23976483.596    23976497.7264
  21942607.335   -16302901.461 8 -12694727.02747  21942606.470    21942616.4724
  22047231.212   -19038413.264 8 -14475829.64947  22047230.660    22047241.6004
  23447378.342    -8240655.874 8  -6258604.17345  23447378.398    23447391.6724
  21871328.538   -16650774.760 8 -12942854.02347  21871328.754    21871338.4654
  22963569.369   -12007598.805 8  -9180710.76346  22963568.683    22963582.2914
  23528428.631    -9357627.359 8  -6624068.89745  23528428.229    23528440.7694
  20776839.808   -22004556.551 9 -17137317.08748  20776839.254    20776848.5364
 02  1 28  2  1  0.0000000  0  9 06 05 10 17 26 30 15 18 23
  20395940.948   -27218959.626 9 -20288328.11948  20395940.724    20395949.2174
  23996656.481    -6498233.076 8  -4287479.87345  23996655.950    23996670.0434
  21957580.550   -16224216.615 8 -12633414.14847  21957579.694    21957589.6794
  22038098.074   -19086407.718 8 -14513227.80247  22038097.533    22038108.4404
  23431046.019    -8326481.849 8  -6325481.30045  23431046.125    23431059.3434
  21887531.715   -16565626.643 8 -12876504.86247  21887531.937    21887541.6154
  22950431.248   -12076639.379 8  -9234508.43446  22950430.538    22950444.1394
  23508447.743    -9462626.357 8  -6705885.97145  23508447.301    23508459.7514
  20769961.988   -22040699.422 9 -17165480.26448  20769961.425    20769970.6964
 02  1 28  2  1 30.0000000  0  9 06 05 10 17 26 30 15 18 23
  20391377.386   -27242940.970 9 -20307014.81048  20391377.163    20391385.6424
  24016831.493    -6392212.981 8  -4204866.91545  24016831.014    24016845.0594
  21972624.624   -16145159.270 8 -12571810.99947  21972623.779    21972633.7584
  22028999.357   -19134221.225 9 -14550484.96547  22028998.821    22029009.7064
  23414748.343    -8412125.717 8  -6392216.53245  23414748.408    23414761.5514
  21903796.029   -16480157.276 8 -12809905.38447  21903796.247    21903805.9014
  22937325.138   -12145511.697 8  -9288175.00546  22937324.421    22937337.9854
  23488501.638    -9567442.452 8  -6787560.53745  23488501.169    23488513.7004
  20763180.665   -22076335.031 9 -17193248.17248  20763180.110    20763189.3414
 02  1 28  2  2  0.0000000  0  9 06 05 10 17 26 30 15 18 23
  20386882.155   -27266563.364 9 -20325421.79748  20386881.935    20386890.3984
  24037008.072    -6286184.704 8  -4122247.58745  24037007.586    24037021.7694
  21987738.397   -16065735.795 8 -12509922.56947  21987737.556    21987747.5434
  22019934.431   -19181857.345 9 -14587603.89847  22019933.877    22019944.7404
  23398485.334    -8497587.410 8  -6458809.79345  23398485.366    23398498.4914
  21920120.301   -16394372.944 9 -12743060.47547  21920120.506    21920130.1604
  22924250.444   -12214219.158 8  -9341713.11146  22924249.753    22924263.2254
  23468590.090    -9672076.848 8  -6869093.51845  23468589.604    23468602.0654
  20756495.351   -22111466.137 9 -17220622.96248  20756494.788    20756504.0214
 02  1 28  2  2 30.0000000  0  9 06 05 10 17 26 30 15 18 23
  20382455.565   -27289824.964 9 -20343547.65248  20382455.340    20382463.8034
  24057185.725    -6180150.745 8  -4039623.82945  24057185.207    24057199.3954
  22002921.381   -15985948.591 8 -12447750.70747  22002920.545    22002930.5354
  22010903.240   -19229316.271 9 -14624584.76647  22010902.679    22010913.4724
  23382257.682    -8582863.214 8  -6525258.20845  23382257.720    23382270.7854
  21936503.995   -16308276.200 8 -12675972.13547  21936504.214    21936513.8514
  22911207.155   -12282761.547 8  -9395122.59946  22911206.452    22911219.8584
  23448713.606    -9776527.041 8  -6950482.94845  23448713.204    23448725.5844
  20749906.159   -22146092.093 9 -17247604.13248  20749905.599    20749914.8204
 02  1 28  2  3  0.0000000  0  9 06 05 10 17 26 30 15 18 23
  20378097.992   -27312723.892 9 -20361390.90348  20378097.777    20378106.2254
  24077364.079    -6074113.186 8  -3956997.26745  24077363.498    24077377.7204
  22018173.142   -15905799.948 8 -12385297.20147  22018172.307    22018182.2854
  22001905.754   -19276597.924 9 -14661427.49547  22001905.188    22001915.9464
  23366066.162    -8667949.373 8  -6591558.85045  23366066.170    23366079.2044
  21952946.594   -16221869.740 8 -12608642.45047  21952946.821    21952956.4904
  22898195.305   -12351138.508 8  -9448403.18546  22898194.590    22898207.9424
  23428872.633    -9880790.556 8  -7031726.93345  23428872.190    23428884.5784
  20743413.256   -22180212.063 9 -17274191.02548  20743412.694    20743421.8924
 02  1 28  2  3 30.0000000  0  9 06 05 10 17 26 30 15 18 23
  20373809.784   -27335258.427 9 -20378950.21448  20373809.565    20373817.9804
  24097542.644    -5968074.532 8  -3874369.86245  24097542.019    24097556.3764
  22033493.209   -15825292.408 8 -12322564.03446  22033492.361    22033502.3774
  21992941.928   -19323702.504 9 -14698132.24947  21992941.364    21992952.0734
  23349911.402    -8752842.169 8  -6657708.81245  23349911.483    23349924.3604
  21969447.605   -16135156.427 8 -12541073.65947  21969447.828    21969457.5284
  22885214.997   -12419349.974 8  -9501554.79846  22885214.276    22885227.5394
  23409067.607    -9984865.338 8  -7112823.86645  23409067.241    23409079.5444
  20737016.787   -22213825.372 9 -17300383.12148  20737016.223    20737025.4064
 02  1 28  2  4  0.0000000  0  9 06 05 10 17 26 30 15 18 23
  20369591.281   -27357426.615 9 -20396224.05448  20369591.056    20369599.4464
  24117720.917    -5862037.218 8  -3791743.49245  24117720.360    24117734.6744
  22048881.044   -15744428.556 8 -12259553.22146  22048880.218    22048890.2124
  21984011.815   -19370629.990 9 -14734699.00247  21984011.246    21984021.9494
  23333794.115    -8837537.912 8  -6723705.22345  23333794.182    23333807.0204
  21986006.468   -16048138.920 8 -12473267.83047  21986006.674    21986016.4284
  22872266.190   -12487395.819 8  -9554577.36846  22872265.470    22872278.6684
  23389299.017   -10088748.641 8  -7193771.59745  23389298.647    23389310.9324
  20730716.871   -22246931.266 9 -17326179.83048  20730716.314    20730725.4624
 02  1 28  2  4 30.0000000  0  9 06 05 10 17 26 30 15 18 23
  20365442.786   -27379226.819 9 -20413211.15348  20365442.558    20365450.9204
  24137898.443    -5756003.686 8  -3709120.07145  24137898.001    24137912.2114
  22064336.144   -15663211.390 8 -12196267.10246  22064335.319    22064345.3394
  21975115.320   -19417380.792 9 -14771128.08747  21975114.765    21975125.4384
  23317715.015    -8922033.243 8  -6789545.45945  23317715.052    23317727.8354
  22002622.712   -15960819.967 8 -12405227.11647  22002622.931    22002632.7304
  22859348.891   -12555276.062 8  -9607470.88346  22859348.153    22859361.2724
  23369567.349   -10192438.230 8  -7274568.39145  23369566.936    23369579.2024
  20724513.617   -22279529.231 9 -17351580.74848  20724513.058    20724522.1804
 02  1 28  2  5  0.0000000  0  9 06 05 10 17 26 30 15 18 23
  20361364.562   -27400657.582 9 -20429910.37648  20361364.331    20361372.6914
  24158074.819    -5649976.631 7  -3626501.68145  24158074.214    24158088.6294
  22079857.989   -15581643.498 8 -12132707.68346  22079857.143    22079867.1844
  21966252.363   -19463955.198 9 -14807419.71447  21966251.820    21966262.4864
  23301674.734    -9006324.575 8  -6855226.73745  23301674.737    23301687.4844
  22019295.738   -15873202.650 8 -12336953.91547  22019295.949    22019305.7894
  22846463.083   -12622990.753 8  -9660235.39546  22846462.344    22846475.4534
  23349872.884   -10295931.952 8  -7355212.57146  23349872.470    23349884.6784
  20718407.047   -22311619.090 9 -17376585.74048  20718406.486    20718415.5844
 02  1 28  2  5 30.0000000  0  9 06 05 10 17 26 30 15 18 23
  20357357.012   -27421717.087 9 -20446320.31348  20357356.785    20357365.1264
  24178249.461    -5543958.315 7  -3543890.11345  24178248.977    24178263.3094
  22095446.084   -15499727.452 8 -12068876.98346  22095445.232    22095455.2844
  21957423.005   -19510353.398 9 -14843574.04347  21957422.453    21957433.1284
  23285673.980    -9090408.334 8  -6920746.28145  23285673.984    23285686.5844
  22036024.979   -15785289.821 8 -12268450.44747  22036025.187    22036035.0594
  22833608.808   -12690539.716 8  -9712870.77146  22833608.063    22833621.0974
  23330216.198   -10399227.405 8  -7435702.27446  23330215.789    23330227.8764
  20712397.284   -22343200.209 9 -17401194.31748  20712396.716    20712405.7864
 02  1 28  2  6  0.0000000  0  9 06 05 10 17 26 30 15 18 23
  20353420.353   -27442404.098 9 -20462439.99048  20353420.131    20353428.4454
  24198421.953    -5437951.556 7  -3461287.54245  24198421.511    24198435.9234
  22111099.810   -15417466.574 8 -12004777.58846  22111098.935    22111108.9574
  21948627.026   -19556576.071 9 -14879591.59247  21948626.472    21948637.1364
  23269713.292    -9174281.347 8  -6986101.61045  23269713.263    23269725.7874
  22052809.856   -15697084.638 8 -12199719.16347  22052810.068    22052820.0154
  22820786.032   -12757923.200 8  -9765377.21046  22820785.309    22820798.2434
  23310597.531   -10502322.971 8  -7516036.22446  23310597.050    23310609.1374
  20706484.388   -22374272.466 9 -17425406.37548  20706483.820    20706492.8564
 02  1 28  2  6 30.0000000  0  9 06 05 10 17 26 30 15 18 23
  20349554.978   -27462716.576 9 -20478267.82448  20349554.756    20349563.0474
  24218591.817    -5331958.587 8  -3378695.72545  24218591.288    24218605.8014
  22126818.627   -15334863.436 8 -11940411.49146  22126817.753    22126827.7864
  21939864.456   -19602623.227 9 -14915472.37747  21939863.898    21939874.5744
  23253793.437    -9257939.845 8  -7051289.77446  23253793.424    23253805.8884
  22069649.896   -15608589.712 8 -12130762.11447  22069650.129    22069660.0814
  22807994.794   -12825141.110 8  -9817754.62846  22807994.045    22808006.9404
  23291017.393   -10605216.202 8  -7596212.50946  23291016.965    23291028.9714
  20700668.356   -22404835.438 9 -17449221.59048  20700667.796    20700676.8104
 02  1 28  2  7  0.0000000  0  9 06 05 10 17 26 30 15 18 23
  20345761.194   -27482652.933 9 -20493802.57648  20345760.963    20345769.2324
  24238758.610    -5225981.895 8  -3296116.58245  24238757.997    24238772.6554
  22142602.054   -15251920.835 8 -11875780.88146  22142601.176    22142611.2324
  21931135.244   -19648494.981 9 -14951216.48347  21931134.692    21931145.3324
  23237915.076    -9341380.156 8  -7116307.91146  23237915.017    23237927.4724
  22086544.518   -15519808.039 8 -12061581.62047  22086544.743    22086554.6994
  22795234.964   -12892193.526 8  -9870003.06946  22795234.228    22795247.1054
  23271476.209   -10707904.699 8  -7676229.26546  23271475.773    23271487.6744
  20694949.373   -22434888.538 9 -17472639.50148  20694948.815    20694957.8114
 02  1 28  2  7 30.0000000  0  9 06 05 10 17 26 30 15 18 23
  20342039.222   -27502211.697 9 -20509043.09848  20342039.000    20342047.2424
  24258921.793    -5120023.929 8  -3213552.03545  24258921.218    24258935.9574
  22158449.617   -15168641.334 8 -11810887.76246  22158448.745    22158458.7754
  21922439.359   -19694191.783 9 -14986824.25947  21922438.812    21922449.4254
  23222078.877    -9424598.853 8  -7181153.37946  23222078.840    23222091.2304
  22103493.158   -15430742.549 8 -11992179.97947  22103493.380    22103503.3264
  22782506.646   -12959080.460 8  -9922122.57346  22782505.899    22782518.8034
  23251974.330   -10810386.547 8  -7756085.01546  23251973.904    23251985.7354
  20689327.500   -22464431.354 9 -17495659.78848  20689326.947    20689335.9174
 02  1 28  2  8  0.0000000  0  9 06 05 10 17 26 30 15 18 23
  20338389.424   -27521391.264 9 -20523988.15048  20338389.206    20338397.4254
  24279080.972    -5014087.317 8  -3131004.13345  24279080.312    24279095.0854
  22174360.798   -15085027.422 8 -11745734.05846  22174359.920    22174369.9844
  21913776.732   -19739713.758 9 -15022295.81147  21913776.188    21913786.7244
  23206285.518    -9507592.477 8  -7245823.44646  23206285.494    23206297.8064
  22120495.284   -15341396.057 8 -11922559.36247  22120495.499    22120505.4554
  22769809.816   -13025801.843 8  -9974113.08646  22769809.079    22769821.9744
  23232512.195   -10912659.443 8  -7835777.93546  23232511.787    23232523.5894
  20683802.769   -22493463.602 9 -17518282.23348  20683802.222    20683811.1494
 02  1 28  2  8 30.0000000  0  9 06 05 10 17 26 30 15 18 23
  20334812.018   -27540190.367 9 -20538636.73448  20334811.793    20334819.9924
  24299235.526    -4908174.947 7  -3048475.11345  24299234.740    24299249.6274
  22190334.948   -15001082.569 8 -11680322.48246  22190334.081    22190344.1524
  21905147.295   -19785061.520 9 -15057631.60947  21905146.733    21905157.2184
  23190535.649    -9590357.674 8  -7310315.51946  23190535.637    23190547.8204
  22137550.243   -15251771.794 8 -11852722.31147  22137550.453    22137560.4234
  22757144.500   -13092357.814 8 -10025974.68946  22757143.758    22757156.6354
  23213090.200   -11014721.407 8  -7915306.48646  23213089.822    23213101.6124
  20678375.197   -22521985.464 9 -17540506.97448  20678374.639    20678383.5474
 02  1 28  2  9  0.0000000  0  9 06 05 10 17 26 30 15 18 23
  20331307.313   -27558607.335 9 -20552987.55248  20331307.089    20331315.2654
  24319384.965    -4802289.297 8  -2965966.92245  24319384.250    24319399.0474
  22206371.624   -14916809.330 8 -11614655.02946  22206370.750    22206380.7954
  21896550.927   -19830235.324 9 -15092831.85147  21896550.374    21896560.8164
  23174829.904    -9672890.987 8  -7374626.90846  23174829.910    23174841.9264
  22154657.521   -15161872.638 8 -11782671.05747  22154657.740    22154667.7334
  22744510.647   -13158748.329 8 -10077707.37546  22744509.924    22744522.7664
  23193708.802   -11116570.206 8  -7994668.93146  23193708.421    23193720.2064
  20673044.822   -22549996.443 9 -17562333.62148  20673044.269    20673053.1464
 02  1 28  2  9 30.0000000  0  9 06 05 10 17 26 30 15 18 23
  20327875.632   -27576640.718 9 -20567039.47548  20327875.405    20327883.5644
  24339528.786    -4696432.857 7  -2883481.48145  24339528.175    24339542.9944
  22222470.230   -14832210.605 8 -11548733.95446  22222469.365    22222479.4014
  21887987.572   -19875235.677 9 -15127896.93647  21887987.022    21887997.4154
  23159168.952    -9755188.923 8  -7438754.88946  23159168.971    23159180.9124
  22171816.517   -15071701.750 8 -11712408.07047  22171816.711    22171826.7124
  22731908.224   -13224973.731 8 -10129311.39146  22731907.468    22731920.3084
  23174368.367   -11218203.844 8  -8073863.73846  23174367.960    23174379.7254
  20667811.665   -22577496.380 9 -17583762.05548  20667811.112    20667819.9754
 02  1 28  2 10  0.0000000  0  9 06 05 10 17 26 30 15 18 23
  20324517.255   -27594288.762 9 -20580791.13048  20324517.030    20324525.1684
  24359666.697    -4590607.865 7  -2801020.55045  24359666.113    24359681.0034
  22238630.275   -14747288.976 8 -11482561.26846  22238629.407    22238639.4094
  21879457.193   -19920062.574 9 -15162826.86147  21879456.647    21879467.0264
  23143553.455    -9837247.830 8  -7502696.60446  23143553.482    23143565.2534
  22189026.672   -14981261.873 8 -11641935.47446  22189026.876    22189036.8804
  22719337.288   -13291033.660 8 -10180786.47546  22719336.551    22719349.3194
  23155069.307   -11319620.102 8  -8152889.12846  23155068.890    23155080.5844
  20662675.813   -22604485.097 9 -17604792.13648  20662675.258    20662684.0994
 02  1 28  2 10 30.0000000  0  9 06 05 10 17 26 30 15 18 23
  20321232.505   -27611550.006 9 -20594241.38548  20321232.274    20321240.4064
  24379798.043    -4484817.149 7  -2718586.30245  24379797.517    24379812.2364
  22254851.177   -14662047.438 8 -11416139.30246  22254850.338    22254860.3364
  21870959.699   -19964716.523 9 -15197622.01847  21870959.170    21870969.5254
  23127984.067    -9919064.445 8  -7566449.52046  23127984.070    23127995.7964
  22206287.461   -14890556.015 8 -11571255.62946  22206287.657    22206297.6604
  22706797.834   -13356928.298 8 -10232132.76146  22706797.082    22706809.8094
  23135812.036   -11420816.950 8  -8231743.56146  23135811.651    23135823.2254
  20657637.279   -22630962.433 9 -17625423.73748  20657636.726    20657645.5374
 02  1 28  2 11  0.0000000  0  9 06 05 10 17 26 30 15 18 23
  20318021.634   -27628422.839 9 -20607388.98448  20318021.416    20318029.5154
  24399922.467    -4379063.060 7  -2636180.61245  24399922.034    24399936.7194
  22271132.557   -14576488.426 8 -11349469.95446  22271131.666    22271141.7244
  21862495.077   -20009197.801 9 -15232282.63247  21862494.560    21862504.8924
  23112461.458   -10000635.128 8  -7630010.79846  23112461.486    23112473.2354
  22223598.276   -14799587.257 8 -11500370.91846  22223598.483    22223608.4674
  22694289.765   -13422657.751 8 -10283350.33446  22694289.061    22694301.7254
  23116596.917   -11521792.307 8  -8310425.40846  23116596.544    23116608.0034
  20652696.107   -22656928.091 9 -17645656.62948  20652695.546    20652704.3304
 02  1 28  2 11 30.0000000  0  9 06 05 10 17 26 30 15 18 23
  20314884.954   -27644906.019 9 -20620232.95648  20314884.728    20314892.8354
  24420039.399    -4273348.315 7  -2553805.57345  24420038.968    24420053.6194
  22287473.719   -14490615.010 8 -11282555.60946  22287472.854    22287482.9184
  21854063.222   -20053506.863 9 -15266809.04447  21854062.697    21854073.0094
  23096986.269   -10081956.650 8  -7693377.91646  23096986.270    23096997.9844
  22240958.545   -14708358.665 8 -11429283.74346  22240958.745    22240968.7334
  22681813.155   -13488222.025 8 -10334439.19246  22681812.458    22681825.1124
  23097424.331   -11622544.067 8  -8388933.02146  23097423.966    23097435.2924
  20647852.285   -22682382.212 9 -17665490.91848  20647851.730    20647860.4694
 02  1 28  2 12  0.0000000  0  9 06 05 10 17 26 30 15 18 23
  20311822.742   -27660997.796 9 -20632771.94048  20311822.508    20311830.6144
  24440148.411    -4167675.260 7  -2471463.01845  24440147.928    24440162.6224
  22303874.247   -14404429.736 8 -11215398.26346  22303873.400    22303883.4794
  21845664.137   -20097643.892 9 -15301201.40947  21845663.602    21845673.8924
  23081559.208   -10163025.292 8  -7756548.00546  23081559.190    23081570.7934
  22258367.688   -14616873.099 8 -11357996.32946  22258367.913    22258377.8794
  22669367.943   -13553621.177 8 -10385399.38746  22669367.254    22669379.8754
  23078294.722   -11723070.060 8  -8467264.71546  23078294.320    23078305.5904
  20643105.901   -22707324.401 9 -17684926.30148  20643105.356    20643114.0514
 02  1 28  2 12 30.0000000  0  9 06 05 10 17 26 30 15 18 23
  20308835.305   -27676696.582 9 -20645004.69848  20308835.086    20308843.1624
  24460248.954    -4062046.098 7  -2389154.67945  24460248.353    24460263.2404
  22320333.517   -14317935.645 8 -11148000.28746  22320332.645    22320342.7534
  21837297.706   -20141609.170 9 -15335459.94047  21837297.174    21837307.4414
  23066180.914   -10243837.637 8  -7819518.36546  23066180.916    23066192.4084
  22275825.177   -14525133.600 8 -11286511.04446  22275825.357    22275835.3404
  22656954.107   -13618855.513 8 -10436231.15746  22656953.428    22656966.0004
  23059208.452   -11823368.306 8  -8545418.93546  23059208.043    23059219.2034
  20638456.918   -22731754.558 9 -17703962.69848  20638456.364    20638465.0264
 02  1 28  2 13  0.0000000  0  9 06 05 10 17 26 30 15 18 23
  20305922.934   -27692000.856 9 -20656930.04748  20305922.712    20305930.7714
  24480340.714    -3956463.641 7  -2306882.71745  24480340.023    24480355.1084
  22336851.032   -14231135.568 8 -11080363.88646  22336850.180    22336860.3054
  21828963.943   -20185403.008 9 -15369584.88847  21828963.413    21828973.6494
  23050852.081   -10324390.127 8  -7882286.25546  23050852.097    23050863.4554
  22293330.422   -14433143.061 8 -11214830.14446  22293330.608    22293340.5944
  22644571.688   -13683924.931 8 -10486934.42146  22644571.030    22644583.5534
  23040165.995   -11923436.351 8  -8623393.79346  23040165.625    23040176.6234
  20633905.391   -22755672.786 9 -17722600.19048  20633904.835    20633913.4704
 02  1 28  2 13 30.0000000  0  9 06 05 10 17 26 30 15 18 23
  20303085.924   -27706909.224 9 -20668546.89448  20303085.696    20303093.7454
  24500423.132    -3850930.270 7  -2224649.01545  24500422.321    24500437.5384
  22353426.271   -14144032.055 8 -11012491.02746  22353425.416    22353435.5564
  21820662.686   -20229025.748 9 -15403576.51147  21820662.150    21820672.3914
  23035573.288   -10404679.573 8  -7944849.17346  23035573.325    23035584.5694
  22310882.837   -14340904.549 8 -11142956.01146  22310883.017    22310893.0354
  22632220.586   -13748829.488 8 -10537509.22746  22632219.961    22632232.4154
  23021167.714   -12023272.201 8  -8701187.72646  23021167.308    23021178.2284
  20629451.282   -22779078.907 9 -17740838.63448  20629450.729    20629459.3414
 02  1 28  2 14  0.0000000  0 10 06 05 10 17 26 22 30 15 18 23
  20300323.365   -27721426.274 9 -20679858.82148  20300323.129    20300331.1724
  24520494.483    -3745454.413 7  -2142460.10945  24520493.835    24520509.1204
  22370057.557   -14056634.025 8 -10944388.67546  22370056.712    22370066.8804
  21812392.794   -20272483.677 9 -15437439.71747  21812392.275    21812402.4964
  23020344.109   -10484708.237 8  -8007208.88246  23020344.178    23020355.3034
  24289322.185    -1609779.974 7  -1244797.91845  24289321.074    24289338.9474
  22328480.729   -14248427.030 8 -11070895.64246  22328480.934    22328490.9514
  22619899.759   -13813575.314 8 -10587960.34146  22619899.130    22619911.5334
  23002212.805   -12122880.015 8  -8778803.96846  23002212.370    23002223.2384
  20625093.477   -22801978.850 9 -17758682.65548  20625092.925    20625101.5154
 02  1 28  2 14 30.0000000  0 10 06 05 10 17 26 22 30 15 18 23
  20297636.310   -27735546.510 9 -20690861.54148  20297636.079    20297644.1044
  24540555.206    -3640034.748 7  -2060315.00245  24540554.588    24540569.8764
  22386745.073   -13968940.613 8 -10876056.15546  22386744.219    22386754.3734
  21804154.948   -20315773.271 9 -15471171.75147  21804154.438    21804164.6194
  23005165.980   -10564468.749 8  -8069359.66646  23005165.985    23005177.0844
  24276752.383    -1675833.482 7  -1296267.82645  24276751.335    24276769.0094
  22346124.283   -14155709.598 8 -10998648.33046  22346124.480    22346134.5214
  22607609.896   -13878158.536 8 -10638284.75346  22607609.228    22607621.6124
  22983302.489   -12222253.566 8  -8856237.66746  22983302.062    22983312.8304
  20620832.774   -22824368.753 9 -17776129.24548  20620832.215    20620840.7824
 02  1 28  2 15  0.0000000  0 10 06 05 10 17 26 22 30 15 18 23
  20295026.164   -27749262.811 9 -20701549.50948  20295025.946    20295033.9294
  24560605.924    -3534667.881 7  -1978211.02545  24560605.177    24560620.5554
  22403489.394   -13880948.641 8 -10807490.98546  22403488.547    22403498.6954
  21795950.221   -20358888.823 9 -15504768.16947  21795949.698    21795959.8404
  22990040.586   -10643951.979 8  -8131294.38746  22990040.617    22990051.6224
  24264264.632    -1741455.564 7  -1347401.55845  24264263.600    24264281.0764
  22363814.030   -14062749.448 8 -10926211.88246  22363814.233    22363824.2974
  22595352.000   -13942573.432 8 -10688478.00446  22595351.294    22595363.7184
  22964438.259   -12321385.057 8  -8933482.75046  22964437.781    22964448.5544
  20616670.173   -22846242.876 9 -17793173.92648  20616669.617    20616678.1554
 02  1 28  2 15 30.0000000  0 10 06 05 10 17 26 22 30 15 18 23
  20292492.871   -27762575.105 9 -20711922.66248  20292492.650    20292500.6234
  24580645.952    -3429357.536 7  -1896151.09045  24580645.233    24580660.4074
  22420289.736   -13792662.197 8 -10738696.35146  22420288.877    22420299.0594
  21787778.278   -20401832.330 9 -15538230.53047  21787777.755    21787787.8294
  22974968.389   -10723155.838 8  -8193011.41446  22974968.381    22974979.3134
  24251859.032    -1806645.998 7  -1398198.94045  24251857.859    24251875.3584
  22381549.097   -13969551.003 8 -10853589.74946  22381549.326    22381559.3674
  22583125.878   -14006821.533 8 -10738541.28146  22583125.188    22583137.5394
  22945620.134   -12420274.086 8  -9010538.91146  22945619.698    22945630.3304
  20612605.459   -22867602.688 9 -17809817.84948  20612604.911    20612613.4294
 02  1 28  2 16  0.0000000  0 10 06 05 10 17 26 22 30 15 18 23
  20290036.542   -27775483.065 9 -20721980.74948  20290036.320    20290044.2684
  24600674.479    -3324107.380 7  -1814138.06245  24600673.847    24600688.9254
  22437145.406   -13704085.234 8 -10669675.33746  22437144.548    22437154.7414
  21779638.844   -20444605.151 9 -15571559.88647  21779638.300    21779648.3304
  22959949.765   -10802078.025 8  -8254508.97946  22959949.788    22959960.6354
  24239535.710    -1871403.822 7  -1448659.21045  24239534.560    24239551.9304
  22399328.745   -13876118.339 8 -10780785.10446  22399328.967    22399339.0554
  22570931.323   -14070903.780 8 -10788475.32946  22570930.630    22570942.9094
  22926848.346   -12518919.485 8  -9087405.22446  22926847.914    22926858.5064
  20608638.415   -22888449.267 9 -17826061.85048  20608637.867    20608646.3844
 02  1 28  2 16 30.0000000  0 10 06 05 10 17 26 22 30 15 18 23
  20287657.383   -27787985.536 9 -20731722.87648  20287657.157    20287665.0744
  24620691.028    -3218920.246 7  -1732174.17045  24620690.381    24620705.4454
  22454055.713   -13615220.792 8 -10600430.32146  22454054.881    22454065.0764
  21771531.730   -20487207.907 9 -15604756.72647  21771531.193    21771541.1494
  22944985.355   -10880715.417 8  -8315784.62646  22944985.368    22944996.1664
  24227295.081    -1935727.377 7  -1498781.10045  24227293.874    24227311.2674
  22417152.335   -13782454.863 8 -10707800.60546  22417152.568    22417162.6664
  22558768.188   -14134820.875 8 -10838280.69346  22558767.480    22558779.7134
  22908123.276   -12617319.640 8  -9164080.44146  22908122.817    22908133.3454
  20604768.978   -22908782.957 9 -17841906.20248  20604768.426    20604776.9244
 02  1 28  2 17  0.0000000  0 10 06 05 10 17 26 22 30 15 18 23
  20285355.521   -27800081.541 9 -20741148.27348  20285355.301    20285363.2054
  24640695.052    -3113798.956 8  -1650261.56445  24640694.392    24640709.4164
  22471020.134   -13526072.150 8 -10530963.84546  22471019.287    22471029.5134
  21763456.854   -20529641.444 9 -15637821.70547  21763456.323    21763466.2194
  22930075.711   -10959065.071 8  -8376836.08146  22930075.730    22930086.4674
  24215137.263    -1999615.448 7  -1548563.64445  24215136.160    24215153.4654
  22435019.200   -13688564.165 8 -10634639.05246  22435019.429    22435029.5504
  22546636.390   -14198573.395 8 -10887957.80846  22546635.699    22546647.7954
  22889445.161   -12715472.834 8  -9240563.22646  22889444.687    22889455.1394
  20600996.988   -22928604.470 9 -17857351.45348  20600996.437    20601004.9184
 02  1 28  2 17 30.0000000  0 10 06 05 10 17 26 22 30 15 18 23
  20283131.247   -27811769.907 9 -20750256.03048  20283131.031    20283138.9214
  24660686.007    -3008746.118 8  -1568402.31445  24660685.462    24660700.1774
  22488038.019   -13436642.405 8 -10461278.31946  22488037.166    22488047.4214
  21755414.050   -20571906.266 9 -15670755.22247  21755413.521    21755423.4044
  22915221.460   -11037123.642 8  -8437660.72846  22915221.463    22915232.1914
  24203062.750    -2063066.144 7  -1598005.37545  24203061.700    24203078.7654
  22452928.716   -13594449.295 8 -10561302.82146  22452928.961    22452939.0494
  22534535.940   -14262161.289 8 -10937506.65146  22534535.216    22534547.2474
  22870814.335   -12813377.503 8  -9316852.34946  22870813.875    22870824.2894
  20597322.398   -22947914.109 9 -17872397.84248  20597321.851    20597330.3254
 02  1 28  2 18  0.0000000  0 10 06 05 10 17 26 22 30 15 18 23
  20280984.832   -27823049.245 9 -20759045.06248  20280984.607    20280992.5014
  24680663.520    -2903764.251 7  -1486598.35945  24680663.101    24680677.6944
  22505108.893   -13346934.306 8 -10391375.89846  22505108.038    22505118.2984
  21747403.270   -20614002.566 9 -15703557.41747  21747402.747    21747412.6244
  22900423.242   -11114887.754 8  -8498255.92646  22900423.267    22900433.9414
  24191071.775    -2126077.755 7  -1647104.97845  24191070.721    24191087.5664
  22470880.285   -13500113.407 8 -10487794.36146  22470880.513    22470890.6154
  22522466.709   -14325584.727 8 -10986927.34446  22522466.002    22522477.9884
  22852231.241   -12911031.355 8  -9392946.03446  22852230.770    22852241.1464
  20593745.214   -22966711.916 9 -17887045.40548  20593744.667    20593753.1294
 02  1 28  2 18 30.0000000  0  9 06 10 17 26 22 30 15 18 23
  20278916.597   -27833917.703 9 -20767513.93348  20278916.368    20278924.2564
  22522232.330   -13256949.955 8 -10321258.22146  22522231.504    22522241.7334
  21739424.579   -20655930.287 9 -15736228.25947  21739424.050    21739433.9484
  22885681.789   -11192353.503 8  -8558618.65746  22885681.812    22885692.4384
  24179164.866    -2188647.920 7  -1695860.57945  24179163.933    24179180.6104
  22488873.445   -13405558.899 8 -10414115.54746  22488873.667    22488883.7774
  22510428.841   -14388843.411 8 -11036219.65446  22510428.115    22510440.0684
  22833696.351   -13008432.043 8  -9468842.45646  22833695.871    22833706.1654
  20590265.528   -22984997.544 9 -17901293.86948  20590264.986    20590273.4274
 02  1 28  2 19  0.0000000  0  9 06 10 17 26 22 30 15 18 23
  20276927.257   -27844371.568 9 -20775659.74248  20276927.026    20276934.8984
  22539408.253   -13166689.956 8 -10250925.75046  22539407.403    22539417.6444
  21731478.435   -20697687.321 9 -15768766.10447  21731477.881    21731487.7474
  22870998.275   -11269514.931 8  -8618744.26046  22870998.307    22871008.8684
  24167342.748    -2250772.237 7  -1744268.76745  24167341.868    24167358.3524
  22506908.039   -13310786.491 8 -10340266.94446  22506908.291    22506918.3984
  22498422.780   -14451934.891 8 -11085381.68146  22498422.047    22498433.9794
  22815210.464   -13105575.120 8  -9544538.15046  22815210.019    22815220.2054
  20586883.705   -23002768.762 9 -17915141.49848  20586883.157    20586891.6014
 02  1 28  2 19 30.0000000  0  9 06 10 17 26 22 30 15 18 23
  20275016.213   -27854413.940 9 -20783484.90648  20275015.979    20275023.8114
  22556635.266   -13076161.542 8 -10180384.13146  22556634.417    22556644.6024
  21723563.841   -20739278.455 9 -15801174.67047  21723563.280    21723573.0974
  22856372.441   -11346373.251 8  -8678633.68446  22856372.472    22856383.0064
  24155604.919    -2312453.641 7  -1792331.83645  24155604.044    24155620.3044
  22524982.701   -13215803.754 8 -10266254.44446  22524982.929    22524993.0554
  22486447.619   -14514863.929 8 -11134417.12046  22486446.877    22486458.8334
  22796773.121   -13202463.033 8  -9620035.01646  22796772.653    22796782.7734
  20583598.889   -23020030.369 9 -17928592.02648  20583598.342    20583606.7634
 02  1 28  2 20  0.0000000  0  9 06 10 17 26 22 30 15 18 23
  20273183.903   -27864042.589 9 -20790987.68548  20273183.667    20273191.4894
  22573912.989   -12985366.484 8 -10109634.73146  22573912.115    22573922.2984
  21715680.921   -20780703.078 9 -15833453.49347  21715680.358    21715690.1264
  22841805.120   -11422924.180 8  -8738283.58046  22841805.187    22841815.6664
  24143951.907    -2373689.212 7  -1840047.51245  24143951.051    24143967.2664
  22543096.976   -13120612.600 8 -10192079.54846  22543097.198    22543107.3144
  22474503.552   -14577629.639 8 -11183325.29346  22474502.806    22474514.7344
  22778384.866   -13299092.993 8  -9695330.87546  22778384.433    22778394.4364
  20580411.148   -23036781.733 9 -17941644.96648  20580410.598    20580419.0084
 02  1 28  2 20 30.0000000  0  9 06 10 17 26 22 30 15 18 23
  20271430.618   -27873255.964 9 -20798166.88048  20271430.391    20271438.1794
  22591240.998   -12894307.325 8 -10038679.54546  22591240.120    22591250.2654
  21707829.663   -20821961.374 9 -15865602.70747  21707829.093    21707838.8154
  22827297.033   -11499164.018 8  -8797691.06846  22827297.042    22827307.5084
  24132384.116    -2434477.042 7  -1887414.30445  24132383.180    24132399.6124
  22561250.365   -13025216.022 8 -10117744.56846  22561250.591    22561260.7374
  22462590.599   -14640231.857 8 -11232106.07646  22462589.893    22462601.7314
  22760046.177   -13395462.658 8  -9770423.91246  22760045.729    22760055.6864
  20577320.499   -23053022.878 9 -17954300.33248  20577319.948    20577328.3364
 02  1 28  2 21  0.0000000  0  9 06 10 17 26 22 30 15 18 23
  20269756.638   -27882052.536 9 -20805021.29548  20269756.420    20269764.2034
  22608618.667   -12802987.081 8  -9967520.92246  22608617.820    22608627.9454
  21700009.973   -20863053.648 9 -15897622.55747  21700009.416    21700019.0964
  22812848.713   -11575089.346 8  -8856853.50046  22812848.734    22812859.2224
  24120901.825    -2494815.269 7  -1934430.76145  24120900.918    24120917.2674
  22579442.277   -12929616.949 8 -10043251.81046  22579442.507    22579452.6434
  22450708.709   -14702670.842 8 -11280759.66446  22450708.039    22450719.8164
  22741757.382   -13491570.044 8  -9845312.57846  22741756.919    22741766.8194
  20574326.920   -23068753.979 9 -17966558.26348  20574326.360    20574334.7234
 02  1 28  2 21 30.0000000  0  9 06 10 17 26 22 30 15 18 23
  20268162.283   -27890430.636 9 -20811549.63348  20268162.064    20268169.8374
  22626045.650   -12711407.765 8  -9896160.42946  22626044.775    22626054.9124
  21692221.941   -20903979.473 9 -15929512.70947  21692221.388    21692231.0454
  22798461.061   -11650696.122 8  -8915767.70546  22798461.064    22798471.5214
  24109505.545    -2554701.612 7  -1981095.09645  24109504.588    24109520.9094
  22597672.237   -12833817.973 8  -9968603.27546  22597672.427    22597682.5954
  22438857.991   -14764946.013 8 -11329285.59546  22438857.302    22438869.0444
  22723518.976   -13587412.535 8  -9919994.84046  22723518.506    22723528.3424
  20571430.450   -23083974.832 9 -17978418.59648  20571429.886    20571438.2204
 02  1 28  2 22  0.0000000  0  9 06 10 17 26 22 30 15 18 23
  20266647.793   -27898389.080 9 -20817750.96348  20266647.562    20266655.3324
  22643521.316   -12619572.646 8  -9824600.60446  22643520.437    22643530.5474
  21684465.475   -20944739.532 9 -15961273.69247  21684464.938    21684474.5504
  22784134.635   -11725981.359 8  -8974431.35346  22784134.643    22784145.0384
  24098195.541    -2614134.575 7  -2027406.17645  24098194.578    24098210.8814
  22615939.618   -12737822.263 8  -9893801.43546  22615939.831    22615949.9614
  22427038.347   -14827057.721 8 -11377684.15746  22427037.675    22427049.3734
  22705331.269   -13682988.670 8  -9994469.53746  22705330.827    22705340.5844
  20568630.947   -23098685.967 9 -17989881.75148  20568630.384    20568638.6924
 02  1 28  2 22 30.0000000  0  9 06 10 17 26 22 30 15 18 23
  20265213.473   -27905926.222 9 -20823624.00848  20265213.245    20265220.9934
  22661045.217   -12527484.069 8  -9752843.28646  22661044.335    22661054.4474
  21676740.557   -20985333.922 9 -15992905.58847  21676740.015    21676749.6024
  22769870.078   -11800941.250 8  -9032841.49346  22769870.087    22769880.4784
  24086972.201    -2673112.217 7  -2073362.46145  24086971.397    24086987.6274
  22634243.952   -12641632.415 8  -9818848.32846  22634244.149    22634254.3044
  22415249.939   -14889005.682 8 -11425955.12546  22415249.246    22415260.9274
  22687194.644   -13778296.219 8 -10068734.95546  22687194.233    22687203.9464
  20565928.447   -23112887.394 9 -18000947.72748  20565927.894    20565936.1654
 02  1 28  2 23  0.0000000  0  9 06 10 17 26 22 30 15 18 23
  20263859.534   -27913041.014 9 -20829167.95348  20263859.312    20263867.0454
  22678616.794   -12435144.905 8  -9680890.69946  22678615.911    22678625.9914
  21669047.075   -21025763.171 9 -16024408.80247  21669046.531    21669056.1074
  22755668.046   -11875572.686 8  -9090995.68446  22755668.050    22755678.3954
  24075835.806    -2731632.911 7  -2118962.67845  24075835.007    24075851.1284
  22652584.518   -12545251.991 8  -9743746.71846  22652584.722    22652594.8634
  22403492.623   -14950790.185 8 -11474098.72046  22403491.936    22403503.5464
  22669109.522   -13873333.389 8 -10142789.68246  22669109.103    22669118.7904
  20563322.883   -23126579.547 9 -18011616.87048  20563322.328    20563330.5774
 02  1 28  2 23 30.0000000  0  9 06 10 17 26 22 30 15 18 23
  20262586.244   -27919731.876 9 -20834381.56348  20262586.034    20262593.7534
  22696235.523   -12342557.840 8  -9608744.94846  22696234.644    22696244.6974
  21661385.005   -21066027.247 9 -16055783.31647  21661384.466    21661394.0204
  22741529.207   -11949872.097 8  -9148891.15546  22741529.228    22741539.5224
  24064786.703    -2789694.990 7  -2164205.56645  24064785.766    24064801.9274
  22670960.872   -12448683.611 8  -9668498.64946  22670961.080    22670971.2364
  22391766.448   -15012411.184 8 -11522114.91046  22391765.724    22391777.2724
  22651076.251   -13968097.783 8 -10216631.85946  22651075.817    22651085.4814
  20560814.140   -23139762.715 9 -18021889.40448  20560813.575    20560821.7924
 02  1 28  2 24  0.0000000  0  9 06 10 17 26 22 30 15 18 23
  20261393.862   -27925997.638 9 -20839263.92748  20261393.639    20261401.3544
  22713900.909   -12249725.473 8  -9536408.05846  22713900.045    22713910.1354
  21653754.286   -21106126.406 9 -16087029.32047  21653753.758    21653763.3104
  22727454.187   -12023836.016 8  -9206525.19746  22727454.241    22727464.4844
  24053825.304    -2847296.364 7  -2209089.45545  24053824.374    24053840.3484
  22689372.403   -12351930.295 8  -9593106.47146  22689372.614    22689382.7754
  22380071.376   -15073868.706 8 -11570003.71546  22380070.650    22380082.1374
  22633095.267   -14062587.611 8 -10290260.08146  22633094.815    22633104.4484
  20558402.222   -23152437.288 9 -18031765.62548  20558401.665    20558409.8564
 02  1 28  2 24 30.0000000  0  9 06 10 17 26 22 30 15 18 23
  20260282.586   -27931837.195 9 -20843814.18348  20260282.368    20260290.0774
  22731612.435   -12156650.639 8  -9463882.22746  22731611.573    22731621.6934
  21646154.864   -21146061.173 9 -16118147.22647  21646154.329    21646163.8814
  22713443.651   -12097461.286 8  -9263895.37146  22713443.700    22713453.8434
  24042951.866    -2904435.652 7  -2253613.28645  24042950.972    24042966.6694
  22707818.536   -12254995.299 8  -9517572.72846  22707818.714    22707828.9364
  22368407.306   -15135163.076 8 -11617765.38446  22368406.585    22368418.0604
  22615166.822   -14156801.295 8 -10363673.11846  22615166.367    22615175.9494
  20556086.949   -23164603.861 9 -18041246.00848  20556086.388    20556094.5624
 02  1 28  2 25  0.0000000  0  9 06 10 17 26 22 30 15 18 23
  20259252.617   -27937249.427 9 -20848031.47248  20259252.401    20259260.0984
  22749369.578   -12063336.272 8  -9391169.75346  22749368.680    22749378.8764
  21638586.638   -21185831.990 9 -16149137.38447  21638586.109    21638595.6334
  22699498.144   -12170744.702 8  -9320999.15846  22699498.155    22699508.2814
  24032166.528    -2961111.544 7  -2297776.05545  24032165.629    24032181.2774
  22726298.640   -12157881.626 8  -9441899.74546  22726298.821    22726309.0624
  22356774.220   -15196294.488 8 -11665400.07246  22356773.508    22356784.9734
  22597291.289   -14250736.878 8 -10436869.45946  22597290.832    22597300.3974
  20553868.240   -23176262.924 9 -18050330.92748  20553867.684    20553875.8334
 02  1 28  2 25 30.0000000  0  9 06 10 17 26 22 30 15 18 23
  20258304.329   -27942232.548 9 -20851914.38348  20258304.118    20258311.7944
  22767171.792   -11969784.766 8  -9318272.49346  22767170.905    22767181.0984
  21631049.683   -21225438.560 9 -16179999.55847  21631049.156    21631058.6214
  22685618.431   -12243682.208 8  -9377833.41346  22685618.463    22685628.5454
  24021469.911    -3017321.571 7  -2341575.79645  24021469.064    24021484.7214
  22744812.289   -12060591.796 8  -9366089.51046  22744812.474    22744822.7224
  22345172.294   -15257262.281 8 -11712907.26046  22345171.590    22345183.0384
  22579469.152   -14344391.842 8 -10509847.12146  22579468.690    22579478.2474
  20551746.150   -23187414.349 9 -18059020.28848  20551745.583    20551753.7284
 02  1 28  2 26  0.0000000  0  9 06 10 17 26 22 30 15 18 23
  20257437.830   -27946785.854 9 -20855462.36948  20257437.628    20257445.2814
  22785018.607   -11875999.103 8  -9245192.77146  22785017.691    22785027.9044
  21623543.885   -21264881.554 9 -16210734.27147  21623543.343    21623552.7744
  22671805.126   -12316271.019 8  -9434395.96346  22671805.166    22671815.2194
  24010862.158    -3073064.740 7  -2385011.76845  24010861.308    24010876.7904
  22763358.764   -11963129.443 8  -9290144.83046  22763358.975    22763369.2234
  22333601.390   -15318067.088 8 -11760287.44646  22333600.680    22333612.1104
  22561700.786   -14437764.490 8 -10582604.80946  22561700.330    22561709.8324
  20549720.505   -23198059.032 9 -18067314.78248  20549719.935    20549728.0734
 02  1 28  2 26 30.0000000  0  9 06 10 17 26 22 30 15 18 23
  20256653.381   -27950908.122 9 -20858674.48248  20256653.171    20256660.8064
  22802909.395   -11781982.158 8  -9171932.81546  22802908.505    22802918.7264
  21616069.081   -21304161.437 9 -16241341.88747  21616068.537    21616077.9424
  22658058.774   -12388507.923 8  -9490684.29346  22658058.803    22658068.8474
  24000343.554    -3128339.396 7  -2428082.68445  24000342.768    24000358.0454
  22781937.527   -11865497.474 8  -9214067.98246  22781937.732    22781948.0114
  22322061.495   -15378709.037 8 -11807540.72846  22322060.759    22322072.1684
  22543986.413   -14530853.394 8 -10655141.39746  22543985.954    22543995.4394
  20547791.130   -23208197.622 9 -18075214.92048  20547790.571    20547798.6804
 02  1 28  2 27  0.0000000  0  9 06 10 17 26 22 30 15 18 23
  20255951.203   -27954597.981 9 -20861549.65948  20255950.977    20255958.5954
  22820843.727   -11687736.416 8  -9098494.59846  22820842.849    22820853.0984
  21608625.309   -21343278.398 9 -16271822.55147  21608624.771    21608634.1484
  22644380.069   -12460389.359 8  -9546695.63746  22644380.132    22644390.1544
  23989914.401    -3183143.938 7  -2470787.27145  23989913.689    23989928.8504
  22800548.018   -11767698.847 8  -9137861.27546  22800548.239    22800558.5154
  22310552.548   -15439188.253 8 -11854667.20546  22310551.837    22310563.1484
  22526326.419   -14623656.590 8 -10727455.36046  22526325.959    22526335.3974
  20545958.009   -23217830.554 9 -18082721.04148  20545957.440    20545965.5344
 02  1 28  2 27 30.0000000  0  9 06 10 17 26 22 30 15 18 23
  20255331.602   -27957853.861 9 -20864086.66948  20255331.376    20255338.9854
  22838821.178   -11593264.330 8  -9024880.01146  22838820.324    22838830.5604
  21601212.536   -21382232.367 9 -16302176.21247  21601211.992    21601221.3644
  22630769.676   -12531911.838 8  -9602427.27546  22630769.704    22630779.7254
  23979575.075    -3237476.467 7  -2513124.06945  23979574.387    23979589.4544
  22819189.655   -11669736.365 8  -9061526.90246  22819189.864    22819200.1784
  22299074.627   -15499504.644 8 -11901666.81046  22299073.923    22299085.1124
  22508721.205   -14716171.819 8 -10799544.94146  22508720.767    22508730.1254
  20544221.037   -23226957.990 9 -18089833.27148  20544220.472    20544228.5534
 02  1 28  2 28  0.0000000  0  9 06 10 17 26 22 30 15 18 23
  20254794.750   -27960674.956 9 -20866284.88948  20254794.518    20254802.1094
  22856841.098   -11498569.031 8  -8951091.47646  22856840.259    22856850.4644
  21593830.667   -21421023.959 9 -16332403.34447  21593830.133    21593839.4864
  22617228.185   -12603072.303 8  -9657876.83446  22617228.219    22617238.1894
  23969325.781    -3291335.602 7  -2555092.00445  23969325.132    23969340.1754
  22837861.927   -11571613.235 8  -8985067.34246  22837862.147    22837872.4294
  22287627.584   -15559658.520 8 -11948539.78146  22287626.877    22287637.9934
  22491171.137   -14808397.377 8 -10871408.80446  22491170.687    22491179.9874
  20542580.210   -23235580.551 9 -18096552.09048  20542579.638    20542587.7004
 02  1 28  2 28 30.0000000  0  9 06 10 17 26 22 30 15 18 23
  20254340.835   -27963060.071 9 -20868143.37948  20254340.612    20254348.1924
  22874902.988   -11403653.180 8  -8877131.09446  22874902.175    22874912.3134
  21586479.694   -21459653.383 9 -16362504.11147  21586479.142    21586488.4804
  22603756.251   -12673867.213 8  -9713041.55446  22603756.295    22603766.2344
  23959166.851    -3344719.893 7  -2596689.91645  23959166.155    23959181.1984
  22856564.155   -11473332.449 8  -8908484.91946  22856564.400    22856574.6694
  22276211.482   -15619649.855 8 -11995286.10146  22276210.741    22276221.7894
  22473676.488   -14900331.461 8 -10943045.54646  22473676.028    22473685.2574
  20541035.277   -23243698.868 9 -18102877.99248  20541034.708    20541042.7784
 02  1 28  2 29  0.0000000  0  9 06 10 17 26 22 30 15 18 23
  20253970.107   -27965008.034 9 -20869661.23148  20253969.878    20253977.4584
  22893006.378   -11308519.471 8  -8803000.94746  22893005.592    22893015.6834
  21579159.457   -21498121.013 9 -16392478.80947  21579158.909    21579168.2424
  22590354.463   -12744293.480 8  -9767919.01846  22590354.513    22590364.4314
  23949098.630    -3397627.860 7  -2637916.69545  23949097.825    23949112.8364
  22875295.841   -11374897.049 8  -8831782.03446  22875296.082    22875306.3334
  22264826.292   -15679478.635 8 -12041905.75246  22264825.582    22264836.5764
  22456237.676   -14991972.240 8 -11014453.75846  22456237.221    22456246.4154
  20539586.168   -23251313.718 9 -18108811.58548  20539585.601    20539593.6564
 02  1 28  2 29 30.0000000  0  9 06 10 17 26 22 30 15 18 23
  20253682.873   -27966517.343 9 -20870837.27748  20253682.647    20253690.2144
  22911150.788   -11213170.274 8  -8728702.88346  22911149.981    22911160.0444
  21571870.058   -21536426.644 9 -16422327.27247  21571869.506    21571878.8544
  22577023.503   -12814347.522 8  -9822506.43446  22577023.542    22577033.4574
  23939121.383    -3450057.646 7  -2678770.85845  23939120.492    23939135.4374
  22894056.420   -11276309.736 8  -8754960.75746  22894056.655    22894066.8974
  22253471.995   -15739144.891 8 -12088398.76646  22253471.303    22253482.2664
  22438855.092   -15083317.391 8 -11085631.60546  22438854.635    22438863.7854
  20538232.863   -23258425.251 9 -18114352.98248  20538232.298    20538240.3324
 02  1 28  2 30  0.0000000  0  9 06 10 17 26 22 30 15 18 23
  20253479.204   -27967587.297 9 -20871670.97048  20253478.978    20253486.5364
  22929335.613   -11117608.582 8  -8654239.24146  22929334.822    22929344.8544
  21564611.351   -21574571.004 9 -16452050.07147  21564610.811    21564620.1614
  22563763.950   -12884026.479 8  -9876801.57846  22563764.002    22563773.8884
  23929235.402    -3502008.114 8  -2719251.51345  23929234.496    23929249.4534
  22912845.282   -11177573.894 8  -8678023.75746  22912845.527    22912855.7304
  22242148.568   -15798649.114 8 -12134765.53446  22242147.882    22242158.8284
  22421529.085   -15174365.407 8 -11156577.93146  22421528.629    22421537.7344
  20536975.099   -23265034.554 9 -18119503.03248  20536974.538    20536982.5554
 02  1 28  2 30 30.0000000  0  9 06 10 17 26 22 30 15 18 23
  20253359.468   -27968216.477 9 -20872161.20548  20253359.231    20253366.7774
  22947560.354   -11021837.107 8  -8579612.14446  22947559.515    22947569.5244
  21557383.329   -21612554.201 9 -16481647.28847  21557382.805    21557392.1484
  22550576.429   -12953326.698 8  -9930801.61146  22550576.491    22550586.3144
  23919440.950    -3553477.543 8  -2759357.35645  23919439.956    23919454.8924
  22931661.819   -11078692.285 8  -8600973.16846  22931662.041    22931672.2984
  22230856.057   -15857990.973 8 -12181005.78146  22230855.360    22230866.2934
  22404259.930   -15265114.578 8 -11227291.39446  22404259.484    22404268.5364
  20535812.857   -23271142.004 9 -18124262.03048  20535812.293    20535820.3024
 02  1 28  2 31  0.0000000  0  9 06 10 17 26 22 30 15 18 23
  20253323.832   -27968403.633 9 -20872307.00448  20253323.596    20253331.1304
  22965824.548   -10925858.396 8  -8504823.54446  22965823.671    22965833.7044
  21550185.915   -21650376.469 9 -16511119.10547  21550185.387    21550194.7294
  22537461.719   -13022244.759 8  -9984503.86046  22537461.750    22537471.5184
  23909738.306    -3604464.501 8  -2799087.24345  23909737.404    23909752.2034
  22950505.536   -10979667.909 8  -8523811.33046  22950505.765    22950515.9924
  22219594.438   -15917170.638 8 -12227119.65646  22219593.716    22219604.6464
  22387048.092   -15355562.796 8 -11297770.35446  22387047.650    22387056.6724
  20534746.010   -23276748.097 9 -18128630.36048  20534745.462    20534753.4514
 02  1 28  2 31 30.0000000  0  9 06 10 17 26 22 30 15 18 23
  20253372.444   -27968147.964 9 -20872107.74248  20253372.212    20253379.7344
  22984127.634   -10829675.201 8  -8429875.61346  22984126.750    22984136.7814
  21543019.053   -21688038.240 9 -16540465.85947  21543018.519    21543027.8704
  22524420.195   -13090777.884 8 -10037906.16046  22524420.209    22524429.9244
  23900127.685    -3654967.722 8  -2838440.18945  23900126.707    23900141.5104
  22969375.754   -10880504.003 8  -8446540.77446  22969376.012    22969386.2694
  22208363.625   -15976188.264 8 -12273107.27046  22208362.900    22208373.7714
  22369893.783   -15445708.341 8 -11368013.46446  22369893.346    22369902.3464
  20533774.376   -23281853.832 9 -18132608.80248  20533773.824    20533781.8134
 02  1 28  2 32  0.0000000  0  9 06 10 17 26 22 30 15 18 23
  20253505.633   -27967448.010 9 -20871562.28448  20253505.410    20253512.9234
  23002469.213   -10733289.763 8  -8354770.08846  23002468.322    23002478.3404
  21535882.740   -21725539.399 9 -16569687.45747  21535882.199    21535891.5514
  22511452.652   -13158922.296 8 -10091005.56146  22511452.676    22511462.3674
  23890609.445    -3704985.410 8  -2877414.79245  23890608.576    23890623.2614
  22988272.082   -10781203.092 8  -8369163.46246  22988272.320    22988282.5874
  22197163.772   -16035043.502 8 -12318968.35546  22197163.044    22197173.8594
  22352797.477   -15535549.334 8 -11438019.26846  22352797.041    22352806.0134
  20532897.870   -23286459.550 9 -18136197.62248  20532897.311    20532905.2944
 02  1 28  2 32 30.0000000  0  9 06 10 17 26 22 30 15 18 23
  20253723.456   -27966303.089 9 -20870670.10348  20253723.239    20253730.7404
  23020848.656   -10636705.205 8  -8279509.39446  23020847.838    23020857.7364
  21528776.877   -21762880.628 9 -16598784.43347  21528776.328    21528785.6614
  22498559.581   -13226675.166 8 -10143799.87046  22498559.632    22498569.2404
  23881183.807    -3754516.659 8  -2916010.37245  23881182.921    23881197.5174
  23007193.830   -10681768.636 8  -8291682.08346  23007194.041    23007204.3514
  22185994.718   -16093736.796 8 -12364703.25846  22185993.986    22186004.7684
  22335759.404   -15625084.143 8 -11507786.48946  22335758.986    22335767.9294
  20532116.375   -23290566.291 9 -18139397.62848  20532115.812    20532123.7784
 02  1 28  2 33  0.0000000  0  9 06 10 17 26 22 30 15 18 23
  20254026.165   -27964712.113 9 -20869430.35448  20254025.960    20254033.4564
  23039265.491   -10539924.205 8  -8204095.63446  23039264.669    23039274.5624
  21521701.432   -21800062.027 9 -16627756.86847  21521700.887    21521710.1764
  22485741.686   -13294033.194 8 -10196286.51046  22485741.755    22485751.2584
  23871851.035    -3803559.913 8  -2954225.67945  23871850.152    23871864.5184
  23026140.450   -10582203.500 8  -8214098.88746  23026140.645    23026151.0144
  22174856.464   -16152268.292 8 -12410312.07946  22174855.727    22174866.4654
  22318779.947   -15714311.047 8 -11577313.78246  22318779.511    22318788.4474
  20531429.698   -23294174.551 9 -18142209.21248  20531429.147    20531437.1074
 02  1 28  2 33 30.0000000  0  9 06 10 17 26 22 30 15 18 23
  20254414.033   -27962673.648 9 -20867841.90548  20254413.821    20254421.3304
  23057719.207   -10442949.168 8  -8128530.68046  23057718.384    23057728.2824
  21514656.449   -21837083.502 9 -16656604.68247  21514655.874    21514665.1514
  22472999.550   -13360992.876 8 -10248462.75746  22472999.666    22473009.1014
  23862611.422    -3852113.480 8  -2992059.41145  23862610.579    23862624.9644
  23045111.385   -10482510.535 8  -8136416.08246  23045111.592    23045121.9734
  22163748.998   -16210637.750 8 -12455794.64146  22163748.257    22163758.9724
  22301859.473   -15803227.953 8 -11646599.52346  22301859.035    22301867.9424
  20530837.766   -23297284.962 9 -18144632.86148  20530837.217    20530845.1584
 02  1 28  2 34  0.0000000  0  9 06 10 17 26 22 30 15 18 23
  20254887.241   -27960186.794 9 -20865904.06048  20254887.014    20254894.5284
  23076209.367   -10345782.828 8  -8052816.65446  23076208.543    23076218.4504
  21507641.742   -21873945.563 9 -16685328.27647  21507641.190    21507650.4554
  22460333.804   -13427551.107 8 -10300326.18146  22460333.895    22460343.2924
  23853465.222    -3900176.177 8  -3029510.66045  23853464.410    23853478.7234
  23064106.084   -10382692.745 8  -8058636.01846  23064106.262    23064116.6604
  22152672.355   -16268845.433 8 -12501151.14746  22152671.615    22152682.2794
  22284998.287   -15891833.302 8 -11715642.49346  22284997.837    22285006.7234
  20530340.375   -23299898.394 9 -18146669.25348  20530339.832    20530347.7524
 02  1 28  2 34 30.0000000  0  9 06 10 17 26 22 30 15 18 23
  20255445.986   -27957250.407 9 -20863615.93548  20255445.767    20255453.2674
  23094735.411   -10248427.762 8  -7976955.56446  23094734.538    23094744.4964
  21500657.409   -21910648.231 9 -16713927.66847  21500656.855    21500666.0924
  22447745.103   -13493704.575 8 -10351874.20446  22447745.159    22447754.5354
  23844412.724    -3947746.730 8  -3066578.41145  23844411.808    23844426.1764
  23083124.011   -10282752.953 8  -7980760.87746  23083124.225    23083134.6174
  22141626.467   -16326891.324 8 -12546381.59146  22141625.742    22141636.3704
  22268196.787   -15980125.126 8 -11784441.15846  22268196.349    22268205.1804
  20529937.459   -23302015.598 9 -18148318.97748  20529936.920    20529944.8114
 02  1 28  2 35  0.0000000  0  9 06 10 17 26 22 30 15 18 23
  20256090.430   -27953863.755 9 -20860976.95048  20256090.221    20256097.7214
  23113296.900   -10150886.667 8  -7900949.52446  23113296.018    23113306.0004
  21493703.261   -21947192.030 9 -16742403.26547  21493702.719    21493711.9604
  22435233.969   -13559450.409 8 -10403104.59046  22435234.001    22435243.3824
  23835454.098    -3994823.913 8  -3103261.72145  23835453.089    23835467.4034
  23102164.510   -10182694.447 8  -7902793.23646  23102164.734    23102175.1364
  22130611.373   -16384775.654 8 -12591486.14346  22130610.627    22130621.1944
  22251455.227   -16068101.884 8 -11852994.31546  22251454.789    22251463.5754
  20529628.757   -23303637.608 9 -18149582.83348  20529628.214    20529636.0944
 02  1 28  2 35 30.0000000  0  9 06 10 17 26 22 30 15 18 23
  20256820.668   -27950026.067 9 -20857986.50848  20256820.465    20256827.9654
  23131893.126   -10053162.559 8  -7824800.87246  23131892.264    23131902.2984
  21486779.255   -21983577.409 9 -16770755.41747  21486778.713    21486787.9504
  22422801.020   -13624785.527 8 -10454014.95746  22422801.058    22422810.3474
  23826589.532    -4041406.487 8  -3139559.61245  23826588.646    23826602.7974
  23121227.058   -10082520.238 8  -7824735.44546  23121227.278    23121237.7064
  22119626.984   -16442498.479 8 -12636464.84546  22119626.242    22119636.7494
  22234773.959   -16155761.958 8 -11921300.70746  22234773.517    22234782.2434
  20529414.141   -23304765.290 9 -18150461.49948  20529413.593    20529421.4454
 02  1 28  2 36  0.0000000  0  9 06 10 17 26 22 30 15 18 23
  20257637.009   -27945735.984 9 -20854643.54948  20257636.800    20257644.2954
  23150523.870    -9955257.339 8  -7748511.09046  23150523.007    23150533.0564
  21479885.435   -22019804.190 9 -16798983.98847  21479884.895    21479894.1204
  22410446.917   -13689706.313 8 -10504602.45546  22410446.991    22410456.1894
  23817819.397    -4087492.917 8  -3175470.90645  23817818.518    23817832.6104
  23140311.059    -9982233.121 8  -7746589.66746  23140311.296    23140321.7284
  22108673.297   -16500059.831 8 -12681317.72746  22108672.575    22108683.0604
  22218153.329   -16243103.279 8 -11989358.71646  22218152.903    22218161.5894
  20529293.466   -23305399.152 9 -18150955.37048  20529292.926    20529300.7534
 02  1 28  2 36 30.0000000  0  9 06 10 17 26 22 30 15 18 23
  20258539.659   -27940992.477 9 -20850947.26948  20258539.445    20258546.9314
  23169188.501    -9857173.861 8  -7672082.41846  23169187.655    23169197.6844
  21473021.798   -22055872.648 9 -16827089.18747  21473021.257    21473030.4274
  22398172.209   -13754209.764 8 -10554864.75746  22398172.278    22398181.4794
  23809143.916    -4133081.905 8  -3210994.57645  23809143.133    23809157.1384
  23159416.074    -9881835.864 8  -7668358.06746  23159416.340    23159426.7224
  22097750.367   -16557459.594 8 -12726044.69546  22097749.657    22097760.1224
  22201593.710   -16330124.060 8 -12057166.95746  22201593.297    22201601.9384
  20529266.636   -23305539.957 9 -18151065.04148  20529266.095    20529273.8964
 02  1 28  2 37  0.0000000  0  9 06 10 17 26 22 30 15 18 23
  20259528.687   -27935794.999 9 -20846897.24748  20259528.470    20259535.9454
  23187886.535    -9758915.181 8  -7595517.20246  23187885.691    23187895.7084
  21466188.192   -22091783.267 9 -16855071.39247  21466187.638    21466196.7624
  22385977.458   -13818292.957 8 -10604799.59346  22385977.521    22385986.6714
  23800563.202    -4178172.875 8  -3246130.18245  23800562.374    23800576.3984
  23178541.323    -9781332.109 8  -7590043.47146  23178541.600    23178551.9534
  22086858.025   -16614698.603 8 -12770646.40146  22086857.327    22086867.7714
  22185095.354   -16416823.075 8 -12124724.46846  22185094.938    22185103.5464
  20529333.392   -23305189.021 9 -18150791.53648  20529332.839    20529340.6294
 02  1 28  2 37 30.0000000  0  9 06 10 17 26 22 30 15 18 23
  20260604.352   -27930142.056 9 -20842492.32148  20260604.136    20260611.5774
  23206617.447    -9660483.531 8  -7518817.22446  23206616.604    23206626.6074
  21459384.626   -22127535.977 9 -16882930.55947  21459384.078    21459393.1484
  22373863.339   -13881952.525 8 -10654404.33446  22373863.437    22373872.5334
  23792077.626    -4222763.809 8  -3280876.14445  23792076.828    23792090.8974
  23197686.410    -9680724.101 8  -7511647.65646  23197686.626    23197697.0254
  22075996.425   -16671776.177 8 -12815122.31246  22075995.736    22076006.1404
  22168658.583   -16503198.193 8 -12192029.59546  22168658.177    22168666.7154
  20529493.664   -23304346.600 9 -18150135.06048  20529493.118    20529500.8784
 02  1 28  2 38  0.0000000  0  9 06 10 17 26 22 30 15 18 23
  20261766.881   -27924032.909 9 -20837731.90948  20261766.661    20261774.0804
  23225380.799    -9561881.506 8  -7441984.48646  23225379.934    23225389.9424
  21452611.029   -22163131.177 9 -16910666.98647  21452610.467    21452619.5124
  22361830.426   -13945185.433 8 -10703676.60946  22361830.507    22361839.5924
  23783687.450    -4266853.840 8  -3315231.80345  23783686.686    23783700.7094
  23216850.748    -9580015.145 8  -7433173.16946  23216850.938    23216861.3704
  22065165.513   -16728692.572 8 -12859472.63346  22065164.815    22065175.1864
  22152283.793   -16589247.828 8 -12259081.10747  22152283.374    22152291.8814
  20529747.194   -23303014.131 9 -18149096.72548  20529746.642    20529754.3964
 02  1 28  2 38 30.0000000  0  9 06 10 17 26 22 30 15 18 23
  20263016.330   -27917466.873 9 -20832615.48148  20263016.116    20263023.5174
  23244176.056    -9463111.618 8  -7365020.94646  23244175.202    23244185.2584
  21445867.334   -22198569.101 9 -16938280.86347  21445866.796    21445875.8004
  22349879.308   -14007988.727 8 -10752614.12946  22349879.371    22349888.4204
  23775392.757    -4310441.939 8  -3349196.33945  23775391.978    23775406.0184
  23236033.675    -9479208.204 8  -7354622.33446  23236033.868    23236044.2754
  22054365.236   -16785447.870 8 -12903697.42046  22054364.541    22054374.8714
  22135971.156   -16674970.564 8 -12325877.89747  22135970.736    22135979.2004
  20530093.781   -23301192.583 9 -18147677.28948  20530093.222    20530100.9694
 02  1 28  2 39  0.0000000  0  9 06 10 17 26 22 30 15 18 23
  20264352.916   -27910442.922 9 -20827142.23648  20264352.691    20264360.0864
  23263002.825    -9364176.481 8  -7287928.63246  23263001.959    23263011.9934
  21439153.542   -22233849.876 9 -16965772.29147  21439153.003    21439161.9944
  22338010.526   -14070359.114 8 -10801214.31746  22338010.597    22338019.6294
  23767193.822    -4353526.764 8  -3382768.71745  23767192.985    23767206.9914
  23255234.745    -9378306.164 8  -7275997.38746  23255234.926    23255245.3654
  22043595.651   -16842042.008 8 -12947796.62546  22043594.947    22043605.2884
  22119721.164   -16760364.336 8 -12392418.35947  22119720.746    22119729.1414
  20530533.296   -23298882.690 9 -18145877.32348  20530532.738    20530540.4794
 02  1 28  2 39 30.0000000  0  9 06 10 17 26 22 30 15 18 23
  20265776.786   -27902960.182 9 -20821311.49948  20265776.565    20265783.9594
  23281860.470    -9265079.024 8  -7210709.84646  23281859.544    23281869.6344
  21432469.605   -22268973.851 9 -16993141.54047  21432469.081    21432478.0314
  22326224.703   -14132293.682 8 -10849474.90946  22326224.756    22326233.7734
  23759090.866    -4396107.394 8  -3415948.22645  23759090.005    23759103.8274
  23274453.297    -9277312.239 8  -7197300.86346  23274453.511    23274463.8734
  22032856.653   -16898475.273 8 -12991770.47146  22032855.952    22032866.2554
  22103533.995   -16845427.872 8 -12458701.49647  22103533.572    22103541.9234
  20531065.520   -23296085.705 9 -18143697.81148  20531064.970    20531072.6804
 02  1 28  2 40  0.0000000  0  9 06 10 17 26 22 30 15 18 23
  20267288.191   -27895017.630 9 -20815122.47048  20267287.979    20267295.3544
  23300748.566    -9165821.114 8  -7133366.02446  23300747.668    23300757.7694
  21425815.491   -22303941.113 9 -17020388.67947  21425814.957    21425823.8844
  22314522.387   -14193789.189 8 -10897393.36746  22314522.438    22314531.4274
  23751084.093    -4438182.554 8  -3448733.85745  23751083.177    23751097.0104
  23293688.799    -9176228.962 8  -7118534.70746  23293689.065    23293699.4084
  22022148.285   -16954747.555 8 -13035618.86846  22022147.595    22022157.8794
  22087409.999   -16930159.532 8 -12524726.03247  22087409.565    22087417.8714
  20531690.293   -23292802.319 9 -18141139.28248  20531689.737    20531697.4504
 02  1 28  2 40 30.0000000  0  9 06 10 17 26 22 30 15 18 23
  20268887.233   -27886614.484 9 -20808574.53048  20268887.012    20268894.3944
  23319666.666    -9066405.964 8  -7055899.67845  23319665.702    23319675.8994
  21419191.200   -22338751.895 9 -17047513.88547  21419190.663    21419199.5414
  22302904.183   -14254842.739 8 -10944967.45646  22302904.240    22302913.2114
  23743173.695    -4479751.151 8  -3481124.77445  23743172.864    23743186.5594
  23312940.707    -9075059.544 8  -7039701.41946  23312940.977    23312951.3624
  22011470.513   -17010858.996 8 -13079341.93346  22011469.827    22011480.1004
  22071349.499   -17014557.425 9 -12590490.49947  22071349.063    22071357.3064
  20532407.402   -23289033.646 9 -18138202.60548  20532406.851    20532414.5544
 02  1 28  2 41  0.0000000  0  9 06 10 17 26 22 30 15 18 23
  20270574.120   -27877749.762 9 -20801666.92448  20270573.894    20270581.2584
  23338614.215    -8966835.954 8  -6978312.65745  23338613.224    23338623.4574
  21412596.616   -22373406.446 9 -17074517.35447  21412596.078    21412604.9054
  22291370.658   -14315451.281 8 -10992194.78046  22291370.715    22291379.6744
  23735359.886    -4520812.274 8  -3513120.26845  23735359.073    23735372.5664
  23332208.447    -8973806.910 8  -6960803.29546  23332208.708    23332219.1114
  22000823.346   -17066809.685 8 -13122939.73047  22000822.668    22000832.9204
  22055352.903   -17098619.654 9 -12655993.40847  22055352.467    22055360.6574
  20533216.655   -23284780.710 9 -18134888.58048  20533216.110    20533223.8114
 02  1 28  2 41 30.0000000  0  9 06 10 17 26 22 30 15 18 23
  20272348.922   -27868422.953 9 -20794399.24548  20272348.695    20272356.0364
  23357590.637    -8867113.706 8  -6900607.02445  23357589.737    23357599.9154
  21406031.692   -22407904.997 9 -17101399.26747  21406031.143    21406039.9564
  22279922.383   -14375611.795 8 -11039072.99346  22279922.471    22279931.3714
  23727642.850    -4561364.877 8  -3544719.51545  23727642.006    23727655.4534
  23351491.435    -8872474.095 8  -6881842.69246  23351491.699    23351502.0854
  21990206.749   -17122599.832 8 -13166412.43147  21990206.067    21990216.2734
  22039420.402   -17182345.026 9 -12721233.83947  22039419.967    22039428.0644
  20534117.864   -23280044.642 9 -18131198.08848  20534117.316    20534125.0334
 02  1 28  2 42  0.0000000  0  9 06 10 17 26 22 30 15 18 23
  20274211.867   -27858632.943 9 -20786770.63548  20274211.635    20274218.9654
  23376595.671    -8767241.529 8  -6822784.56445  23376594.830    23376604.9764
  21399496.458   -22442247.497 9 -17128159.58847  21399495.917    21399504.7144
  22268560.034   -14435321.027 8 -11085599.56246  22268560.097    22268568.9694
  23720022.816    -4601407.612 8  -3575921.46745  23720021.970    23720035.4054
  23370789.231    -8771063.664 8  -6802821.61846  23370789.479    23370799.8314
  21979620.756   -17178229.126 8 -13209759.79047  21979620.056    21979630.2434
  22023552.373   -17265731.623 9 -12786210.29647  22023551.942    22023559.9664
  20535110.886   -23274826.010 9 -18127131.57448  20535110.329    20535118.0544
 02  1 28  2 42 30.0000000  0  9 06 10 17 26 22 30 15 18 23
  20276163.107   -27848378.913 9 -20778780.45148  20276162.884    20276170.1964
  23395628.747    -8667221.840 8  -6744847.14445  23395627.934    23395638.0874
  21392990.895   -22476434.173 9 -17154798.48147  21392990.351    21392999.1404
  22257284.065   -14494576.055 8 -11131772.20646  22257284.123    22257293.0314
  23712500.040    -4640939.505 8  -3606725.35745  23712499.119    23712512.5344
  23390101.175    -8669578.637 8  -6723742.41245  23390101.440    23390111.8874
  21969065.328   -17233697.588 8 -13252981.82247  21969064.643    21969074.8444
  22007749.120   -17348778.035 9 -12850921.67247  22007748.673    22007756.6474
  20536195.524   -23269125.956 9 -18122689.92348  20536194.968    20536202.6874
 02  1 28  2 43  0.0000000  0  9 06 10 17 26 22 30 15 18 23
  20278202.830   -27837660.008 9 -20770428.02848  20278202.593    20278209.8974
  23414689.500    -8567057.025 8  -6666796.64145  23414688.629    23414698.8564
  21386514.961   -22510465.205 9 -17181316.10247  21386514.414    21386523.2054
  22246095.172   -14553373.738 8 -11177588.46946  22246095.219    22246104.1024
  23705074.608    -4679959.519 8  -3637130.38145  23705073.729    23705087.0624
  23409426.784    -8568021.850 8  -6644607.28545  23409426.991    23409437.5364
  21958540.527   -17289005.091 8 -13296078.43747  21958539.859    21958550.0654
  21992010.899   -17431482.505 9 -12915366.60647  21992010.458    21992018.3704
  20537371.578   -23262945.624 9 -18117874.03148  20537371.024    20537378.7284
 02  1 28  2 43 30.0000000  0  9 06 10 17 26 22 30 15 18 23
  20280331.048   -27826475.902 9 -20761713.10848  20280330.829    20280338.1164
  23433777.257    -8466750.286 8  -6588635.55545  23433776.384    23433786.6094
  21380068.546   -22544341.120 9 -17207712.85247  21380067.997    21380076.7664
  22234993.738   -14611711.641 8 -11223046.47346  22234993.774    22235002.6454
  23697746.744    -4718467.127 8  -3667136.13145  23697745.882    23697759.1434
  23428765.440    -8466396.564 8  -6565418.78945  23428765.643    23428776.2284
  21948046.247   -17344152.220 8 -13339050.07747  21948045.575    21948055.7484
  21976338.021   -17513843.727 9 -12979544.07347  21976337.568    21976345.4484
  20538638.766   -23256286.473 9 -18112685.03048  20538638.217    20538645.8904
 02  1 28  2 44  0.0000000  0  9 06 10 17 26 22 30 15 18 23
  20282548.037   -27814825.446 9 -20752634.79548  20282547.814    20282555.0834
  23452891.562    -8366303.814 8  -6510365.57745  23452890.662    23452900.8984
  21373651.693   -22578061.528 9 -17233988.42647  21373651.149    21373659.9004
  22223980.526   -14669586.219 8 -11268143.43746  22223980.539    22223989.3834
  23690516.599    -4756460.747 8  -3696741.35845  23690515.728    23690529.0554
  23448116.636    -8364705.385 8  -6486178.94845  23448116.826    23448127.4654
  21937582.527   -17399138.933 8 -13381896.71547  21937581.828    21937591.9934
  21960730.776   -17595859.864 9 -13043452.64547  21960730.313    21960738.1844
  20539996.902   -23249149.153 9 -18107123.43348  20539996.347    20540003.9924
 02  1 28  2 44 30.0000000  0  9 06 10 17 26 22 30 15 18 23
  20284853.908   -27802707.964 9 -20743192.56748  20284853.688    20284860.9484
  23472032.006    -8265720.131 8  -6431988.68945  23472031.081    23472041.3184
  21367264.355   -22611626.988 9 -17260143.26547  21367263.801    21367272.5554
  22213055.932   -14726994.941 8 -11312877.40046  22213055.942    22213064.7614
  23683384.387    -4793939.854 8  -3725945.67145  23683383.465    23683396.8174
  23467479.759    -8262951.294 8  -6406890.08645  23467479.952    23467490.6084
  21927149.300   -17453965.358 8 -13424618.45847  21927148.601    21927158.6964
  21945189.471   -17677529.450 9 -13107091.17647  21945189.012    21945196.8674
  20541445.789   -23241535.126 9 -18101190.37648  20541445.234    20541452.8594
 02  1 28  2 45  0.0000000  0  9 06 10 17 26 22 30 15 18 23
  20287248.771   -27790122.788 9 -20733385.91348  20287248.540    20287255.7814
  23491198.175    -8165001.469 8  -6353506.62445  23491197.352    23491207.4564
  21360906.468   -22645037.644 9 -17286177.47347  21360905.913    21360914.6444
  22202220.565   -14783934.761 8 -11357245.98946  22202220.573    22202229.3434
  23676350.266    -4830903.463 8  -3754748.29445  23676349.434    23676362.6994
  23486854.279    -8161137.402 8  -6327554.62245  23486854.489    23486865.1764
  21916746.622   -17508631.451 8 -13467215.26847  21916745.903    21916755.9234
  21929714.351   -17758851.141 9 -13170458.62347  21929713.895    21929721.7534
  20542985.174   -23233445.429 9 -18094886.66948  20542984.618    20542992.2294
 02  1 28  2 45 30.0000000  0  9 06 10 17 26 22 30 15 18 23
  20289732.779   -27777069.071 9 -20723214.15548  20289732.570    20289739.7754
  23510389.508    -8064150.529 8  -6274921.49145  23510388.597    23510398.7974
  21354578.034   -22678293.457 9 -17312091.02247  21354577.474    21354586.1954
  22191474.965   -14840402.667 8 -11401246.84846  22191475.002    22191483.7404
  23669414.478    -4867350.668 8  -3783148.52545  23669413.636    23669426.7994
  23506239.688    -8059266.315 8  -6248174.59545  23506239.919    23506250.6704
  21906374.469   -17563137.017 8 -13509686.98847  21906373.723    21906383.7074
  21914305.768   -17839823.084 9 -13233553.53947  21914305.322    21914313.1844
  20544614.887   -23224880.994 9 -18088213.03648  20544614.340    20544621.9534
 02  1 28  2 46  0.0000000  0  9 06 10 17 26 22 30 15 18 23
  20292306.044   -27763546.387 9 -20712676.96548  20292305.819    20292313.0354
  23529605.545    -7963169.798 8  -6196235.20745  23529604.723    23529614.8554
  21348278.986   -22711394.792 9 -17337884.19547  21348278.425    21348287.1454
  22180819.726   -14896395.936 8 -11444877.85446  22180819.759    22180828.4634
  23662577.059    -4903280.753 8  -3811145.80345  23662576.200    23662589.3804
  23525635.439    -7957341.163 8  -6168752.44045  23525635.682    23525646.3814
  21896032.788   -17617482.458 8 -13552033.94347  21896032.043    21896041.9914
  21898963.984   -17920444.117 9 -13296375.01947  21898963.543    21898971.3994
  20546334.646   -23215843.284 9 -18081170.61448  20546334.099    20546341.7074
 02  1 28  2 46 30.0000000  0  9 06 10 17 26 22 30 15 18 23
  20294968.711   -27749553.984 9 -20701773.76748  20294968.486    20294975.6794
  23548845.829    -7862061.576 8  -6117449.58945  23548845.033    23548855.0984
  21342009.315   -22744341.884 9 -17363557.18147  21342008.765    21342017.4764
  22170255.324   -14951911.695 8 -11488136.78246  22170255.372    22170264.0634
  23655838.271    -4938692.759 8  -3838739.37645  23655837.395    23655850.5404
  23545040.981    -7855364.807 8  -6089290.38945  23545041.197    23545051.8324
  21885721.531   -17671667.679 8 -13594256.05447  21885720.781    21885730.7324
  21883689.300   -18000712.597 8 -13358921.78347  21883688.848    21883696.7004
  20548144.268   -23206333.486 9 -18073760.34048  20548143.716    20548151.3254
 02  1 28  2 47  0.0000000  0  9 06 10 17 26 22 30 15 18 23
  20297720.861   -27735091.213 9 -20690504.04248  20297720.631    20297727.8304
  23568109.906    -7760828.291 8  -6038566.50645  23568109.058    23568119.1404
  21335768.985   -22777134.692 9 -17389109.94247  21335768.435    21335777.1254
  22159782.353   -15006947.054 8 -11531021.36246  22159782.412    22159791.0844
  23649198.185    -4973585.808 8  -3865928.56245  23649197.302    23649210.4964
  23564455.738    -7753340.112 8  -6009790.65745  23564455.947    23564466.4854
  21875440.783   -17725692.670 8 -13636353.31547  21875440.058    21875449.9944
  21868482.002   -18080627.043 9 -13421192.66947  21868481.545    21868489.4144
  20550043.497   -23196352.678 9 -18065983.04348  20550042.951    20550050.5524
 02  1 28  2 47 30.0000000  0 10 06 10 17 26 22 30 15 18 23 21
  20300562.423   -27720158.484 9 -20678868.11548  20300562.203    20300569.4194
  23587397.135    -7659473.549 8  -5959588.78945  23587396.225    23587406.2904
  21329557.756   -22809774.698 9 -17414543.63347  21329557.215    21329565.8744
  22149401.169   -15061500.287 8 -11573530.26246  22149401.219    22149409.8254
  23642656.760    -5007960.382 8  -3892713.73445  23642655.861    23642669.0074
  23583878.927    -7651271.147 8  -5930256.44045  23583879.130    23583889.6474
  21865190.305   -17779558.644 8 -13678326.67747  21865189.575    21865199.4874
  21853342.171   -18160187.045 9 -13483187.36847  21853341.707    21853349.5504
  20552031.909   -23185903.230 9 -18057840.57348  20552031.375    20552038.9734
  24863539.745    -1804706.934 7  -1214633.43545  24863539.271    24863556.5174
 02  1 28  2 48  0.0000000  0 10 06 10 17 26 22 30 15 18 23 21
  20303492.763   -27704759.148 9 -20666868.59948  20303492.555    20303499.7744
  23606706.185    -7558003.754 8  -5880521.42845  23606705.218    23606715.3454
  21323374.880   -22842265.740 9 -17439861.24447  21323374.325    21323382.9704
  22139111.493   -15115572.539 8 -11615664.37246  22139111.512    22139120.1064
  23636213.379    -5041819.528 8  -3919097.27845  23636212.471    23636225.6114
  23603309.222    -7549164.583 8  -5850692.92845  23603309.518    23603319.9524
  21854969.381   -17833269.492 8 -13720179.15947  21854968.640    21854978.4874
  21838269.339   -18239394.934 9 -13544907.69947  21838268.881    21838276.6814
  20554108.549   -23174990.293 9 -18049336.94448  20554108.007    20554115.6054
  24845789.201    -1897983.932 7  -1287316.23545  24845788.609    24845805.8304
 02  1 28  2 48 30.0000000  0 10 06 10 17 26 22 30 15 18 23 21
  20306514.119   -27688881.649 9 -20654496.49048  20306513.903    20306521.1394
  23626038.687    -7456410.655 8  -5801357.98445  23626037.734    23626047.8564
  21317222.308   -22874597.343 9 -17465054.61647  21317221.755    21317230.3744
  22128915.948   -15169150.008 8 -11657412.93546  22128915.970    22128924.5504
  23629870.401    -5075151.501 8  -3945070.03645  23629869.492    23629882.5584
  23622748.189    -7447012.408 8  -5771093.88745  23622748.482    23622758.9114
  21844780.082   -17886814.093 8 -13761902.10047  21844779.334    21844789.1154
  21823265.857   -18318238.397 9 -13606344.04947  21823265.408    21823273.2064
  20556275.198   -23163604.351 9 -18040464.74048  20556274.657    20556282.2354
  24828066.555    -1991114.627 7  -1359885.03245  24828065.989    24828083.0244
 02  1 28  2 49  0.0000000  0 10 06 10 17 26 22 30 15 18 23 21
  20309625.518   -27672530.988 9 -20641755.69048  20309625.299    20309632.5434
  23645393.193    -7354702.054 8  -5722104.53645  23645392.295    23645402.3594
  21311099.069   -22906774.876 9 -17490127.93547  21311098.514    21311107.1274
  22118814.028   -15222235.547 8 -11698778.17646  22118814.074    22118822.5724
  23623626.789    -5107961.206 8  -3970635.83045  23623625.845    23623638.9544
  23642194.190    -7344823.124 8  -5691465.93145  23642194.509    23642204.9584
  21834621.329   -17940198.236 8 -13803500.01647  21834620.597    21834630.2784
  21808330.922   -18396721.598 9 -13667499.68347  21808330.477    21808338.2744
  20558530.560   -23151752.090 9 -18031229.17448  20558530.016    20558537.5964
  24810370.991    -2084103.219 7  -1432343.11045  24810370.449    24810387.2814
 02  1 28  2 49 30.0000000  0 10 06 10 17 26 22 30 15 18 23 21
  20312826.967   -27655707.062 9 -20628646.11748  20312826.743    20312833.9844
  23664769.127    -7252880.744 8  -5642763.27345  23664768.302    23664778.2734
  21305004.990   -22938799.040 9 -17515081.74347  21305004.442    21305013.0494
  22108806.162   -15274826.730 8 -11739758.20946  22108806.212    22108814.6764
  23617482.628    -5140248.361 8  -3995794.43645  23617481.728    23617494.7014
  23661646.663    -7242599.921 8  -5611811.53445  23661646.883    23661657.3754
  21824493.047   -17993422.315 8 -13844973.21247  21824492.319    21824501.9474
  21793464.755   -18474843.399 9 -13728373.70147  21793464.329    21793472.1014
  20560874.340   -23139435.231 9 -18021631.58148  20560873.793    20560881.3804
  24792702.688    -2176948.795 7  -1504689.76045  24792702.110    24792718.7094
 02  1 28  2 50  0.0000000  0 10 06 10 17 26 22 30 15 18 23 21
  20316118.663   -27638408.930 9 -20615167.03048  20316118.454    20316125.6914
  23684166.101    -7150948.926 8  -5563335.88445  23684165.264    23684175.2624
  21298940.146   -22970669.608 9 -17539915.86547  21298939.601    21298948.1964
  22098892.968   -15326920.526 8 -11780350.66746  22098893.025    22098901.4464
  23611438.093    -5172011.906 8  -4020545.03045  23611437.213    23611450.1144
  23681105.102    -7140345.288 8  -5532132.64545  23681105.332    23681115.7924
  21814395.192   -18046486.365 8 -13886321.71247  21814394.469    21814404.0654
  21778667.659   -18552602.286 9 -13788964.92947  21778667.223    21778674.9944
  20563306.330   -23126654.832 9 -18011672.78848  20563305.780    20563313.3674
  24775061.925    -2269649.566 7  -1576923.57245  24775061.353    24775077.7544
 02  1 28  2 50 30.0000000  0 10 06 10 17 26 22 30 15 18 23 21
  20319500.653   -27620636.315 9 -20601318.21548  20319500.433    20319507.6674
  23703583.566    -7048909.497 8  -5483824.64745  23703582.751    23703592.6694
  21292904.466   -23002387.132 9 -17564630.72547  21292903.929    21292912.4624
  22089074.873   -15378514.487 8 -11820553.64746  22089074.912    22089083.3584
  23605493.271    -5203251.527 8  -4044887.37145  23605492.378    23605505.2174
  23700568.865    -7038062.548 8  -5452431.84545  23700569.138    23700579.5594
  21804327.765   -18099390.527 8 -13927545.62647  21804327.049    21804336.6174
  21763939.836   -18629997.148 9 -13849272.50247  21763939.389    21763947.1554
  20565826.226   -23113412.584 9 -18001354.11148  20565825.665    20565833.2404
  24757449.029    -2362204.152 7  -1649043.49545  24757448.536    24757464.6254
 02  1 28  2 51  0.0000000  0 10 06 10 17 26 22 30 15 18 23 21
  20322973.131   -27602388.321 9 -20587098.96748  20322972.929    20322980.1264
  23723021.220    -6946763.935 8  -5404230.70045  23723020.435    23723030.3624
  21286898.011   -23033951.154 9 -17589225.97447  21286897.458    21286905.9424
  22079352.476   -15429605.550 8 -11860364.75446  22079352.522    22079360.9434
  23599648.328    -5233966.184 8  -4068820.65245  23599647.465    23599660.1564
  23720037.510    -6935754.106 8  -5372711.03945  23720037.779    23720048.2264
  21794290.822   -18152134.552 8 -13968644.76347  21794290.107    21794299.6304
  21749281.652   -18707025.961 9 -13909294.84147  21749281.216    21749288.9544
  20568433.836   -23099709.229 9 -17990676.12848  20568433.280    20568440.8504
  24739864.202    -2454610.760 7  -1721048.10845  24739863.780    24739879.4634
 02  1 28  2 51 30.0000000  0 10 06 10 17 26 22 30 15 18 23 21
  20326536.061   -27583664.958 9 -20572509.30748  20326535.852    20326543.0254
  23742478.509    -6844515.344 8  -5324556.48245  23742477.695    23742487.6274
  21280920.593   -23065362.252 9 -17613702.06247  21280920.036    21280928.4984
  22069726.226   -15480191.500 8 -11899782.26546  22069726.247    22069734.6624
  23593903.318    -5264155.601 8  -4092344.66745  23593902.412    23593915.0294
  23739510.460    -6833423.114 8  -5292972.66445  23739510.719    23739521.2354
  21784284.299   -18204718.861 8 -14009619.45347  21784283.584    21784293.0824
  21734693.294   -18783687.809 9 -13969031.24147  21734692.855    21734700.5574
  20571128.854   -23085546.633 9 -17979640.29548  20571128.294    20571135.8584
  24722307.763    -2546868.447 7  -1792936.69745  24722307.324    24722322.7234
 02  1 28  2 52  0.0000000  0 10 06 10 17 26 22 30 15 18 23 21
  20330189.669   -27564465.179 9 -20557548.41848  20330189.453    20330196.6044
  23761954.965    -6742165.802 8  -5244803.59845  23761954.132    23761964.0944
  21274972.276   -23096620.375 9 -17638058.95647  21274971.724    21274980.1914
  22060196.697   -15530269.200 8 -11938803.74346  22060196.704    22060205.0924
  23588258.436    -5293818.869 8  -4115458.68145  23588257.519    23588270.0884
  23758987.218    -6731072.188 8  -5213218.74845  23758987.386    23758998.0604
  21774308.192   -18257143.177 9 -14050469.46947  21774307.481    21774316.9684
  21720175.064   -18859981.161 9 -14028480.50047  21720174.636    21720182.2954
  20573911.099   -23070925.780 9 -17968247.38048  20573910.538    20573918.0774
  24704780.035    -2638975.405 7  -1864707.85045  24704779.578    24704794.8534
 02  1 28  2 52 30.0000000  0 10 06 10 17 26 22 30 15 18 23 21
  20333933.871   -27544789.175 9 -20542216.44448  20333933.661    20333940.7884
  23781450.111    -6639718.204 8  -5164974.30445  23781449.256    23781459.1834
  21269053.012   -23127726.023 9 -17662297.03247  21269052.481    21269060.9324
  22050764.249   -15579836.775 8 -11977427.72446  22050764.254    22050772.6214
  23582713.662    -5322956.115 8  -4138162.81245  23582712.768    23582725.2864
  23778467.083    -6628704.763 8  -5133451.99145  23778467.290    23778477.9674
  21764362.490   -18309407.782 8 -14091195.03547  21764361.776    21764371.2394
  21705727.095   -18935905.242 9 -14087642.01347  21705726.658    21705734.2984
  20576780.126   -23055848.722 9 -17956498.98048  20576779.562    20576787.0884
  24687281.082    -2730931.059 7  -1936361.09445  24687280.692    24687295.7024
 02  1 28  2 53  0.0000000  0 10 06 10 17 26 22 30 15 18 23 21
  20337768.914   -27524635.793 9 -20526512.49548  20337768.706    20337775.8154
  23800963.639    -6537174.115 8  -5085069.81645  23800962.756    23800972.7384
  21263162.832   -23158678.753 9 -17686415.95747  21263162.289    21263170.7184
  22041429.544   -15628890.566 8 -12015651.35846  22041429.576    22041437.9164
  23577269.206    -5351565.944 8  -4160455.99045  23577268.308    23577280.7404
  23797949.744    -6526322.902 8  -5053673.98245  23797949.982    23797960.5654
  21754447.297   -18361512.121 9 -14131795.72747  21754446.610    21754456.0524
  21691349.807   -19011457.879 9 -14146514.09547  21691349.362    21691356.9974
  20579735.891   -23040315.979 9 -17944395.50148  20579735.346    20579742.8394
  24669811.413    -2822732.791 7  -2007894.41845  24669810.887    24669825.9504
 02  1 28  2 53 30.0000000  0 10 06 10 17 26 22 30 15 18 23 21
  20341694.838   -27504004.962 9 -20510436.50548  20341694.608    20341701.7154
  23820494.925    -6434536.421 8  -5005092.40245  23820494.065    23820504.0844
  21257301.707   -23189478.887 9 -17710415.97747  21257301.167    21257309.5554
  22032192.994   -15677428.514 8 -12053473.03646  22032193.010    22032201.3344
  23571925.165    -5379648.304 8  -4182338.14045  23571924.336    23571936.7004
  23817434.528    -6423929.935 8  -4973887.32145  23817434.773    23817445.4454
  21744562.480   -18413456.674 9 -14172271.90747  21744561.793    21744571.2384
  21677043.374   -19086638.236 9 -14205096.09147  21677042.926    21677050.5494
  20582777.992   -23024329.481 9 -17931938.44848  20582777.450    20582784.9454
  24652371.076    -2914380.174 7  -2079307.46545  24652370.660    24652385.6294
 02  1 28  2 54  0.0000000  0 10 06 10 17 26 22 30 15 18 23 21
  20345711.719   -27482896.021 9 -20493987.95548  20345711.517    20345718.5864
  23840043.584    -6331807.433 8  -4925043.84145  23840042.662    23840052.7784
  21251469.643   -23220126.315 9 -17734297.00647  21251469.104    21251477.4594
  22023055.094   -15725447.864 8 -12090890.61646  22023055.146    22023063.4574
  23566681.567    -5407202.388 8  -4203808.65845  23566680.747    23566693.1684
  23836920.970    -6321528.177 8  -4894093.79845  23836921.232    23836931.9234
  21734708.181   -18465241.060 8 -14212623.28147  21734707.495    21734716.9404
  21662808.104   -19161444.590 9 -14263386.65447  21662807.651    21662815.2744
  20585906.201   -23007890.337 9 -17919128.68348  20585905.654    20585913.1484
  24634960.487    -3005871.274 7  -2150598.73745  24634960.073    24634975.0054
 02  1 28  2 54 30.0000000  0 10 06 10 17 26 22 30 15 18 23 21
  20349819.668   -27461308.598 9 -20477166.57248  20349819.453    20349826.5184
  23859609.283    -6228989.049 8  -4844925.63445  23859608.367    23859618.4484
  21245666.588   -23250621.199 9 -17758059.17747  21245666.042    21245674.3724
  22014016.415   -15772945.905 8 -12127901.98346  22014016.484    22014024.7974
  23561538.646    -5434227.585 8  -4224867.06345  23561537.748    23561550.2864
  23856408.577    -6219120.571 8  -4814295.73845  23856408.762    23856419.5084
  21724884.338   -18516865.374 9 -14252849.93347  21724883.646    21724893.0854
  21648644.244   -19235875.639 9 -14321384.78147  21648643.786    21648651.4194
  20589120.312   -22990999.879 9 -17905967.24648  20589119.769    20589127.2554
  24617579.886    -3097204.701 7  -2221767.14645  24617579.466    24617594.4384
 02  1 28  2 55  0.0000000  0 10 06 10 17 26 22 30 15 18 23 21
  20354018.655   -27439242.596 9 -20459972.26048  20354018.436    20354025.4944
  23879191.499    -6126083.886 8  -4764739.80345  23879190.570    23879200.7144
  21239892.544   -23280963.727 9 -17781702.62847  21239891.999    21239900.3124
  22005077.382   -15819920.370 8 -12164505.37546  22005077.452    22005085.7564
  23556496.423    -5460723.821 8  -4245513.29145  23556495.537    23556508.0044
  23875896.695    -6116710.169 8  -4734495.48945  23875896.861    23875907.6224
  21715090.871   -18568330.047 9 -14292952.17947  21715090.166    21715099.5904
  21634551.993   -19309930.414 9 -14379089.70447  21634551.542    21634559.1794
  20592419.975   -22973659.975 9 -17892455.59148  20592419.435    20592426.9224
  24600229.535    -3188379.123 7  -2292811.67145  24600229.167    24600243.9024
 02  1 28  2 55 30.0000000  0 10 06 10 17 26 22 30 15 18 23 21
  20358308.851   -27416697.508 9 -20442404.63348  20358308.626    20358315.6824
  23898789.756    -6023094.185 8  -4684488.10945  23898788.883    23898798.9954
  21234147.430   -23311154.073 9 -17805227.50347  21234146.886    21234155.1994
  21996238.466   -15866368.693 8 -12200698.78846  21996238.501    21996246.8374
  23551554.883    -5486690.510 8  -4265746.89645  23551553.999    23551566.4574
  23895384.890    -6014299.508 8  -4654695.03145  23895385.019    23895395.8064
  21705327.919   -18619634.538 9 -14332929.60547  21705327.195    21705336.6114
  21620531.611   -19383607.547 9 -14436500.36747  21620531.158    21620538.8024
  20595804.896   -22955871.851 9 -17878594.67648  20595804.361    20595811.8284
  24582909.619    -3279393.732 7  -2363731.66745  24582909.198    24582923.8784
 02  1 28  2 56  0.0000000  0 10 06 10 17 26 22 30 15 18 23 21
  20362690.233   -27393673.058 9 -20424463.48448  20362690.033    20362697.0774
  23918403.617    -5920022.509 8  -4604172.52245  23918402.814    23918412.9124
  21228431.269   -23341192.315 9 -17828633.85947  21228430.733    21228439.0244
  21987500.210   -15912288.333 8 -12236480.24146  21987500.231    21987508.5764
  23546714.231    -5512127.418 8  -4285567.67645  23546713.310    23546725.7624
  23914872.504    -5911891.690 8  -4574896.79545  23914872.668    23914883.4424
  21695595.346   -18670779.168 9 -14372782.45647  21695594.632    21695604.0114
  21606583.319   -19456905.883 9 -14493615.86347  21606582.874    21606590.4914
  20599274.814   -22937637.141 9 -17864385.76848  20599274.269    20599281.7304
  24565620.553    -3370246.538 7  -2434525.61545  24565620.036    24565634.5914
 02  1 28  2 56 30.0000000  0 10 06 10 17 26 22 30 15 18 23 21
  20367162.915   -27370168.889 9 -20406148.52848  20367162.707    20367169.7514
  23938032.731    -5816870.924 8  -4523794.66945  23938031.945    23938041.9964
  21222744.077   -23371078.524 9 -17851921.74547  21222743.540    21222751.8044
  21978863.001   -15957676.831 8 -12271847.81946  21978863.030    21978871.3224
  23541974.473    -5537033.908 8  -4304975.13745  23541973.631    23541986.0474
  23934359.068    -5809489.398 8  -4495102.86245  23934359.257    23934370.0004
  21685893.170   -18721764.025 9 -14412510.80947  21685892.459    21685901.8214
  21592707.381   -19529824.057 9 -14550435.12747  21592706.930    21592714.5094
  20602829.432   -22918957.295 9 -17849830.00348  20602828.888    20602836.3404
  24548362.492    -3460936.399 8  -2505192.59645  24548361.963    24548376.5944
 02  1 28  2 57  0.0000000  0 10 06 10 17 26 22 30 15 18 23 21
  20371726.874   -27346184.819 9 -20387459.61748  20371726.667    20371733.7304
  23957676.570    -5713642.026 8  -4443356.56645  23957675.766    23957685.8404
  21217085.769   -23400812.896 9 -17875091.31347  21217085.228    21217093.4704
  21970327.313   -16002531.845 8 -12306799.69346  21970327.359    21970335.6194
  23537335.719    -5561410.010 8  -4323969.33945  23537334.842    23537347.2104
  23953843.968    -5707095.630 8  -4415315.58245  23953844.219    23953854.9134
  21676221.386   -18772589.114 9 -14452114.66347  21676220.675    21676230.0114
  21578903.989   -19602360.924 9 -14606957.27247  21578903.556    21578911.0954
  20606468.465   -22899833.896 9 -17834928.60748  20606467.909    20606475.3504
  24531135.652    -3551462.351 7  -2575731.87045  24531135.249    24531149.5904
 02  1 28  2 57 30.0000000  0 10 06 10 17 26 22 30 15 18 23 21
  20376382.329   -27321720.174 9 -20368396.23848  20376382.124    20376389.1854
  23977334.747    -5610337.764 8  -4362859.74945  23977333.857    23977344.0004
  21211456.429   -23430395.106 9 -17898142.32247  21211455.865    21211464.1244
  21961893.657   -16046850.601 8 -12341333.70446  21961893.728    21961901.9594
  23532798.096    -5585254.844 8  -4342549.55945  23532797.174    23532809.5014
  23973326.838    -5604712.628 8  -4335536.68545  23973327.031    23973337.7914
  21666580.056   -18823254.152 9 -14491593.80047  21666579.349    21666588.6424
  21565173.470   -19674514.970 9 -14663181.11847  21565173.011    21565180.5414
  20610191.674   -22880268.054 9 -17819682.45748  20610191.132    20610198.5554
  24513940.292    -3641822.853 8  -2646142.24045  24513939.963    24513954.0314
 02  1 28  2 58  0.0000000  0 10 06 10 17 26 22 30 15 18 23 21
  20381129.258   -27296774.850 9 -20348958.29948  20381129.048    20381136.1094
  23997006.754    -5506960.478 8  -4282306.03045  23997005.968    23997015.8964
  21205855.911   -23459825.419 9 -17921074.97647  21205855.362    21205863.6224
  21953562.542   -16090630.664 8 -12375447.95846  21953562.625    21953570.8324
  23528361.582    -5608568.322 8  -4360715.72945  23528360.655    23528372.9244
  23992807.054    -5502343.460 8  -4255768.57145  23992807.266    23992818.1044
  21656969.190   -18873759.268 9 -14530948.32547  21656968.493    21656977.7454
  21551515.989   -19746285.168 9 -14719105.86047  21551515.547    21551523.0074
  20613998.778   -22860261.457 9 -17804092.85848  20613998.236    20614005.6494
  24496776.732    -3732016.455 7  -2716422.57845  24496776.385    24496790.4004
 02  1 28  2 58 30.0000000  0 10 06 10 17 26 22 30 15 18 23 21
  20385967.682   -27271348.552 9 -20329145.57248  20385967.469    20385974.5324
  24016692.327    -5403512.291 8  -4201697.06845  24016691.510    24016701.3604
  21200284.345   -23489103.900 9 -17943889.31947  21200283.799    21200292.0564
  21945334.322   -16133869.863 8 -12409140.74646  21945334.391    21945342.5834
  23524026.236    -5631350.049 8  -4378467.57645  23524025.266    23524037.4654
  24012284.166    -5399990.866 8  -4176013.38745  24012284.331    24012295.1904
  21647388.721   -18924104.385 9 -14570178.17347  21647388.045    21647397.2474
  21537931.786   -19817670.312 9 -14774730.55847  21537931.340    21537938.7604
  20617889.433   -22839815.620 9 -17788160.99448  20617888.902    20617896.3044
  24479645.117    -3822042.258 8  -2786572.18345  24479644.716    24479658.6054
 02  1 28  2 59  0.0000000  0 10 06 10 17 26 22 30 15 18 23 21
  20390897.691   -27245440.997 9 -20308957.83748  20390897.475    20390904.5474
  24036390.955    -5299995.460 8  -4121034.61845  24036390.153    24036399.9694
  21194741.722   -23518230.520 9 -17966585.32047  21194741.166    21194749.3944
  21937209.488   -16176565.673 8 -12442410.11946  21937209.576    21937217.7234
  23519792.150    -5653599.808 8  -4395804.88945  23519791.168    23519803.3254
  24031757.615    -5297657.617 8  -4096273.26645  24031757.840    24031768.5864
  21637838.725   -18974289.620 9 -14609283.43947  21637838.037    21637847.2144
  21524421.114   -19888669.067 9 -14830054.17747  21524420.654    21524428.0424
  20621863.396   -22818932.162 9 -17771888.12647  20621862.852    20621870.2564
  24462545.822    -3911898.280 8  -2856589.49645  24462545.463    24462559.1864
 02  1 28  2 59 30.0000000  0 10 06 10 17 26 22 30 15 18 23 21
  20395919.333   -27219051.967 9 -20288394.93248  20395919.119    20395926.2074
  24056102.218    -5196412.144 8  -4040320.35345  24056101.467    24056111.2084
  21189227.988   -23547205.135 9 -17989162.87447  21189227.433    21189235.6194
  21929188.551   -16218715.620 8 -12475254.14546  21929188.639    21929196.7544
  23515659.295    -5675317.203 8  -4412727.37445  23515658.419    23515670.5344
  24051226.871    -5195346.204 8  -4016550.16445  24051227.052    24051237.8144
  21628319.205   -19024314.617 9 -14648263.83847  21628318.507    21628327.6384
  21510984.145   -19959280.453 9 -14885075.95447  21510983.696    21510991.0574
  20625920.363   -22797612.565 9 -17755275.41047  20625919.813    20625927.1934
  24445478.953    -4001583.789 8  -2926473.96845  24445478.568    24445492.0814
 02  1 28  3  0  0.0000000  0 10 06 10 17 26 22 30 15 18 23 21
  20401032.617   -27192181.293 9 -20267456.71848  20401032.399    20401039.5284
  24075825.678    -5092764.650 8  -3959556.08645  24075824.783    24075834.6264
  21183743.096   -23576028.114 9 -18011622.27747  21183742.540    21183750.7284
  21921271.889   -16260317.524 8 -12507671.11746  21921271.970    21921280.0424
  23511627.790    -5696502.145 8  -4429234.97145  23511626.929    23511638.9324
  24070691.419    -5093059.757 8  -3936846.51645  24070691.626    24070702.3744
  21618830.145   -19074179.674 9 -14687119.60247  21618829.436    21618838.5184
  21497621.173   -20029503.085 9 -14939794.79847  21497620.727    21497628.0424
  20630059.994   -22775858.445 9 -17738324.10647  20630059.447    20630066.8134
  24428444.799    -4091097.291 8  -2996224.38545  24428444.291    24428457.7774
 02  1 28  3  0 30.0000000  0 10 06 10 17 26 22 30 15 18 23 21
  20406237.583   -27164828.837 9 -20246143.09348  20406237.366    20406244.5094
  24095560.912    -4989055.442 8  -3878743.72145  24095560.021    24095569.9634
  21178287.076   -23604699.329 9 -18033963.42047  21178286.527    21178294.7134
  21913459.977   -16301369.045 8 -12539659.21746  21913460.047    21913468.0854
  23507697.717    -5717154.481 8  -4445327.54345  23507696.850    23507708.7924
  24090150.713    -4990800.738 8  -3857164.23445  24090150.935    24090161.7324
  21609371.540   -19123884.582 9 -14725850.57447  21609370.834    21609379.8604
  21484332.389   -20099335.858 9 -14994209.86347  21484331.957    21484339.2274
  20634282.035   -22753671.352 9 -17721035.41947  20634281.484    20634288.8374
  24411443.683    -4180437.352 8  -3065839.65845  24411443.280    24411456.5404
 02  1 28  3  1  0.0000000  0 10 06 10 17 26 22 30 15 18 23 21
  20411534.306   -27136994.211 9 -20224453.74948  20411534.089    20411541.2444
  24115307.407    -4885286.741 8  -3797885.02145  24115306.501    24115316.5444
  21172859.960   -23633218.819 9 -18056186.33547  21172859.415    21172867.5954
  21905753.253   -16341867.768 8 -12571216.56646  21905753.293    21905761.3384
  23503869.032    -5737273.711 8  -4461004.73545  23503868.170    23503880.0284
  24109604.292    -4888571.998 8  -3777505.57045  24109604.488    24109615.2084
  21599943.403   -19173429.337 9 -14764456.75747  21599942.691    21599951.6714
  21471117.984   -20168777.631 9 -15048320.24547  21471117.545    21471124.7824
  20638586.201   -22731052.776 9 -17703410.51247  20638585.644    20638592.9824
  24394475.805    -4269602.693 7  -3135318.79845  24394475.427    24394488.4994
 02  1 28  3  1 30.0000000  0 10 06 10 17 26 22 30 15 18 23 21
  20416922.846   -27108677.095 9 -20202388.44248  20416922.629    20416929.7864
  24135064.865    -4781460.524 8  -3716981.50745  24135063.964    24135074.1514
  21167461.730   -23661586.394 9 -18078290.87547  21167461.182    21167469.3444
  21898152.162   -16381811.348 8 -12602341.34046  21898152.215    21898160.2454
  23500141.872    -5756859.713 8  -4476266.40145  23500141.051    23500152.7614
  24129051.616    -4786376.009 8  -3697872.40845  24129051.835    24129062.5434
  21590545.795   -19222813.843 9 -14802938.06947  21590545.077    21590554.0004
  21457978.209   -20237827.407 9 -15102125.18247  21457977.771    21457984.9994
  20642972.174   -22708004.271 9 -17685450.59547  20642971.608    20642978.9344
  24377541.307    -4358592.492 7  -3204661.14345  24377540.940    24377553.9354
 02  1 28  3  2  0.0000000  0 10 06 10 17 26 22 30 15 18 23 21
  20422403.205   -27079877.437 9 -20179947.12348  20422402.985    20422410.1624
  24154832.893    -4677578.809 8  -3636034.73345  24154832.048    24154842.2464
  21162092.423   -23689802.048 9 -18100277.03247  21162091.869    21162100.0034
  21890657.178   -16421197.429 8 -12633031.69746  21890657.234    21890665.2604
  23496516.175    -5775912.231 8  -4491112.37945  23496515.421    23496527.0954
  24148492.178    -4684215.468 8  -3618266.88445  24148492.396    24148503.1754
  21581178.689   -19272037.922 9 -14841294.37647  21581177.981    21581186.8434
  21444913.260   -20306483.906 9 -15155623.66947  21444912.836    21444920.0254
  20647439.612   -22684527.505 9 -17667156.96647  20647439.055    20647446.3714
  24360640.558    -4447404.769 8  -3273865.15445  24360640.181    24360653.2844
 02  1 28  3  2 30.0000000  0 10 06 10 17 26 22 30 15 18 23 21
  20427975.462   -27050594.987 9 -20157129.60048  20427975.247    20427982.4224
  24174611.112    -4573643.684 7  -3555046.34645  24174610.215    24174620.4274
  21156752.010   -23717865.762 9 -18122144.80247  21156751.466    21156759.5964
  21883268.701   -16460023.797 8 -12663285.91146  21883268.758    21883276.7634
  23492992.033    -5794431.132 8  -4505542.54645  23492991.211    23493002.8984
  24167925.491    -4582093.076 8  -3538691.07945  24167925.603    24167936.5804
  21571842.103   -19321101.547 9 -14879525.65247  21571841.395    21571850.2294
  21431923.407   -20374745.719 9 -15208814.60747  21431922.979    21431930.1464
  20651988.256   -22660624.056 9 -17648530.85948  20651987.706    20651995.0194
  24343773.852    -4536038.457 8  -3342930.00545  24343773.307    24343786.5424
 02  1 28  3  3  0.0000000  0 10 06 10 17 26 22 30 15 18 23 21
  20433639.501   -27020830.229 9 -20133936.25648  20433639.276    20433646.4454
  24194398.955    -4469657.848 7  -3474018.45145  24194398.087    24194408.2674
  21151440.387   -23745778.161 9 -18143894.65847  21151439.853    21151447.9774
  21875987.039   -16498288.886 8 -12693102.77246  21875987.069    21875995.0304
  23489569.274    -5812417.067 8  -4519557.42545  23489568.411    23489580.0894
  24187350.894    -4480012.030 8  -3459147.49245  24187351.045    24187362.1034
  21562535.921   -19370005.157 9 -14917632.24147  21562535.208    21562544.0344
  21419008.683   -20442612.653 9 -15261697.84747  21419008.249    21419015.4144
  20656617.661   -22636296.168 9 -17629574.02148  20656617.112    20656624.4444
  24326941.292    -4624492.699 8  -3411855.04045  24326940.790    24326953.8674
 02  1 28  3  3 30.0000000  0 10 06 10 17 26 22 30 15 18 23 21
  20439395.455   -26990582.444 9 -20110366.53048  20439395.241    20439402.3704
  24214196.180    -4365622.951 7  -3392952.30945  24214195.361    24214205.5264
  21146157.698   -23773538.707 9 -18165526.18747  21146157.160    21146165.2624
  21868812.698   -16535989.827 8 -12722480.03646  21868812.716    21868820.6354
  23486248.163    -5829869.088 8  -4533156.26245  23486247.249    23486258.9284
  24206768.070    -4377974.450 8  -3379637.78045  24206768.213    24206779.2384
  21553260.321   -19418748.212 9 -14955613.73347  21553259.599    21553268.4454
  21406169.432   -20510083.016 9 -15314272.07147  21406168.998    21406176.1514
  20661327.632   -22611544.948 9 -17610287.31547  20661327.081    20661334.3994
  24310143.276    -4712765.738 8  -3480638.87645  24310142.749    24310155.7054
 02  1 28  3  4  0.0000000  0 10 06 10 17 26 22 30 15 18 23 21
  20445243.244   -26959852.019 9 -20086420.71648  20445243.013    20445250.1444
  24234002.181    -4261541.747 7  -3311850.09645  24234001.370    24234011.4934
  21140903.845   -23801147.748 9 -18187039.65947  21140903.297    21140911.3744
  21861746.024   -16573124.991 8 -12751416.43246  21861746.048    21861753.9194
  23483028.528    -5846787.731 8  -4546339.48445  23483027.688    23483039.2834
  24226176.300    -4275983.563 7  -3300164.43345  24226176.447    24226187.5244
  21544015.185   -19467331.038 9 -14993470.37147  21544014.479    21544023.3204
  21393405.819   -20577155.972 9 -15366536.62947  21393405.384    21393412.5184
  20666117.793   -22586372.308 9 -17590672.22947  20666117.235    20666124.5574
  24293379.833    -4800856.861 8  -3549280.97845  24293379.363    24293392.2594
 02  1 28  3  4 30.0000000  0 10 06 10 17 26 22 30 15 18 23 21
  20451182.925   -26928638.580 9 -20062098.53548  20451182.711    20451189.8144
  24253816.683    -4157415.968 7  -3230713.14545  24253815.912    24253826.0384
  21135678.858   -23828604.969 9 -18208434.82847  21135678.295    21135686.3494
  21854787.543   -16609691.817 8 -12779909.97446  21854787.556    21854795.3724
  23479910.471    -5863172.723 8  -4559106.88145  23479909.567    23479921.1814
  24245575.242    -4174041.660 8  -3220729.27145  24245575.357    24245586.5174
  21534800.657   -19515753.052 9 -15031201.70147  21534799.939    21534808.7954
  21380718.041   -20643830.362 9 -15418490.61247  21380717.597    21380724.7294
  20670987.855   -22560779.774 9 -17570729.95847  20670987.303    20670994.6144
  24276651.327    -4888764.495 8  -3617780.09445  24276650.795    24276663.7444
 02  1 28  3  5  0.0000000  0 10 06 10 17 26 22 30 15 18 23 21
  20457214.518   -26896942.241 9 -20037400.06648  20457214.305    20457221.4024
  24273639.210    -4053247.803 7  -3149543.17245  24273638.360    24273648.6134
  21130482.758   -23855910.444 9 -18229711.76047  21130482.202    21130490.2294
  21847937.573   -16645688.517 8 -12807959.26246  21847937.588    21847945.3544
  23476893.974    -5879024.030 8  -4571458.41345  23476893.016    23476904.6234
  24264964.345    -4072151.544 8  -3141334.47045  24264964.484    24264975.5894
  21525616.734   -19564014.490 9 -15068807.90947  21525616.036    21525624.8494
  21368106.248   -20710105.284 9 -15470133.32147  21368105.798    21368112.9344
  20675937.458   -22534769.107 9 -17550461.86747  20675936.907    20675944.2164
  24259957.867    -4976487.824 8  -3686135.60745  24259957.411    24259970.2624
 02  1 28  3  5 30.0000000  0 10 06 10 17 26 22 30 15 18 23 21
  20463338.072   -26864762.759 9 -20012325.12248  20463337.856    20463344.9494
  24293469.427    -3949039.214 7  -3068341.70045  24293468.521    24293478.8444
  21125315.588   -23883063.886 9 -18250870.22547  21125315.059    21125323.0374
  21841196.539   -16681112.508 8 -12835562.28946  21841196.544    21841204.2574
  23473979.087    -5894341.402 8  -4583393.90245  23473978.074    23473989.6794
  24284343.080    -3970315.615 7  -3061981.86345  24284343.279    24284354.2344
  21516463.372   -19612115.189 9 -15106288.87147  21516462.683    21516471.4674
  21355570.755   -20775979.326 9 -15521463.65747  21355570.306    21355577.4504
  20680966.421   -22508341.611 9 -17529868.98147  20680965.875    20680973.1624
  24243299.811    -5064024.980 8  -3754346.06745  24243299.343    24243312.0584
 02  1 28  3  6  0.0000000  0 10 06 10 17 26 22 30 15 18 23 21
  20469553.450   -26832100.659 9 -19986874.11147  20469553.243    20469560.3224
  24313306.883    -3844792.685 7  -2987110.68845  24313305.938    24313316.3644
  21120177.253   -23910065.822 9 -18271910.63247  21120176.726    21120184.6584
  21834564.759   -16715962.379 8 -12862717.94046  21834564.786    21834572.4364
  23471165.655    -5909125.560 8  -4594913.89345  23471164.631    23471176.1884
  24303710.958    -3868536.999 8  -2982673.94245  24303711.230    24303722.1454
  21507340.541   -19660055.568 9 -15143644.91547  21507339.839    21507348.6154
  21343111.593   -20841452.141 9 -15572481.35247  21343111.152    21343118.2984
  20686074.261   -22481499.581 9 -17508953.08347  20686073.709    20686080.9774
  24226677.382    -5151375.310 8  -3822410.97445  24226676.921    24226689.4614
 02  1 28  3  6 30.0000000  0 10 06 10 17 26 22 30 15 18 23 21
  20475860.763   -26798955.374 9 -19961046.59347  20475860.557    20475867.6164
  24333151.314    -3740509.558 7  -2905851.12145  24333150.380    24333160.7884
  21115067.880   -23936915.541 9 -18292832.42947  21115067.333    21115075.2404
  21828042.760   -16750235.428 8 -12889424.12746  21828042.791    21828050.4074
  23468453.793    -5923375.799 8  -4606017.86245  23468452.928    23468464.3634
  24323067.545    -3766817.741 7  -2903412.26345  24323067.851    24323078.7954
  21498248.389   -19707834.690 9 -15180875.30247  21498247.693    21498256.4434
  21330729.182   -20906521.789 9 -15623184.88747  21330728.734    21330735.9034
  20691260.791   -22454244.022 9 -17487714.95747  20691260.249    20691267.5004
  24210090.753    -5238537.072 8  -3890328.94245  24210090.284    24210102.7724
 02  1 28  3  7  0.0000000  0 10 06 10 17 26 22 30 15 18 23 21
  20482259.893   -26765327.569 9 -19934843.09047  20482259.687    20482266.7414
  24353002.154    -3636192.678 7  -2824565.27545  24353001.218    24353011.6124
  21109987.368   -23963613.589 9 -18313636.04447  21109986.820    21109994.7084
  21821630.779   -16783930.125 8 -12915679.64746  21821630.820    21821638.4344
  23465843.438    -5937092.788 8  -4616706.29645  23465842.605    23465853.9464
  24342412.308    -3665161.035 8  -2824199.33645  24342412.538    24342423.4464
  21489186.792   -19755453.279 9 -15217980.60247  21489186.096    21489194.8274
  21318423.459   -20971188.418 9 -15673574.38047  21318423.023    21318430.1734
  20696525.576   -22426577.276 9 -17466156.42447  20696525.024    20696532.2494
  24193540.136    -5325510.029 8  -3958099.79845  24193539.611    24193551.9754
 02  1 28  3  7 30.0000000  0 10 06 10 17 26 22 30 15 18 23 21
  20488750.940   -26731216.825 9 -19908263.26647  20488750.733    20488757.7914
  24372859.075    -3531843.796 7  -2743254.50245  24372858.172    24372868.5974
  21104935.770   -23990159.600 9 -18334321.19647  21104935.228    21104943.1084
  21815329.259   -16817044.286 8 -12941482.80346  21815329.312    21815336.8864
  23463334.644    -5950276.303 8  -4626979.04645  23463333.812    23463345.1034
  24361744.716    -3563569.241 7  -2745036.98445  24361744.855    24361755.8514
  21480155.768   -19802911.155 9 -15254960.67147  21480155.078    21480163.8004
  21306194.714   -21035450.359 9 -15723648.53447  21306194.289    21306201.4384
  20701868.358   -22398500.663 9 -17444278.51347  20701867.805    20701875.0284
  24177025.732    -5412292.673 8  -4025722.38345  24177025.184    24177037.5234
 02  1 28  3  8  0.0000000  0 10 06 10 17 26 22 30 15 18 23 21
  20495333.813   -26696623.477 9 -19881307.38647  20495333.616    20495340.6534
  24392721.744    -3427465.077 7  -2661920.47845  24392720.741    24392731.1234
  21099913.062   -24016553.742 9 -18354888.00647  21099912.515    21099920.4084
  21809138.599   -16849576.050 8 -12966832.14446  21809138.648    21809146.2164
  23460927.281    -5962926.587 8  -4636836.28545  23460926.438    23460937.7224
  24381064.171    -3462045.124 8  -2665927.36745  24381064.330    24381075.3144
  21471155.395   -19850208.091 9 -15291815.33147  21471154.709    21471163.4134
  21294043.155   -21099306.905 9 -15773406.79547  21294042.731    21294049.8594
  20707288.769   -22370016.071 9 -17422082.69647  20707288.213    20707295.4384
  24160547.782    -5498883.560 8  -4093195.55445  24160547.342    24160559.4864
 02  1 28  3  8 30.0000000  0 10 06 10 17 26 22 30 15 18 23 21
  20502008.561   -26661547.322 9 -19853975.29747  20502008.375    20502015.3784
  24412589.635    -3323058.537 7  -2580564.74945  24412588.647    24412599.0044
  21094919.356   -24042795.712 9 -18375336.23247  21094918.782    21094926.6854
  21803059.156   -16881523.392 8 -12991726.09147  21803059.196    21803066.7284
  23458621.410    -5975043.718 8  -4646278.09545  23458620.555    23458631.8664
  24400370.283    -3360591.195 7  -2586872.44745  24400370.465    24400381.4924
  21462185.692   -19897343.700 9 -15328544.29847  21462184.999    21462193.6944
  21281968.903   -21162757.169 9 -15822848.47647  21281968.480    21281975.6094
  20712786.491   -22341125.122 9 -17399570.24047  20712785.937    20712793.1614
  24144106.605    -5585281.368 8  -4160518.27445  24144106.164    24144118.1854
 02  1 28  3  9  0.0000000  0 10 06 10 17 26 22 30 15 18 23 21
  20508775.151   -26625988.595 9 -19826267.18147  20508774.951    20508781.9544
  24432462.489    -3218626.278 7  -2499188.99645  24432461.469    24432471.8164
  21089954.592   -24068885.565 9 -18395665.92747  21089954.019    21089961.9054
  21797091.303   -16912884.365 8 -13016163.12947  21797091.347    21797098.8634
  23456416.894    -5986627.913 8  -4655304.62645  23456416.101    23456427.3554
  24419662.494    -3259209.982 7  -2507874.17445  24419662.699    24419673.8314
  21453246.745   -19944317.960 9 -15365147.53447  21453246.047    21453254.7154
  21269972.180   -21225800.161 9 -15871972.79947  21269971.745    21269978.8654
  20718361.183   -22311829.733 9 -17376742.63547  20718360.627    20718367.8704
  24127702.267    -5671485.748 8  -4227690.28845  24127701.811    24127713.6904
 02  1 28  3  9 30.0000000  0 10 06 10 17 26 22 30 15 18 23 21
  20515633.596   -26589947.291 9 -19798183.02947  20515633.393    20515640.3724
  24452339.861    -3114170.135 7  -2417794.62545  24452338.818    24452349.2464
  21085018.779   -24094823.068 9 -18415876.90947  21085018.206    21085026.0844
  21791235.406   -16943656.957 8 -13040141.68247  21791235.452    21791242.9654
  23454313.772    -5997679.296 8  -4663915.98745  23454312.977    23454324.2704
  24438940.347    -3157904.125 8  -2428934.64945  24438940.563    24438951.8534
  21444338.491   -19991130.569 9 -15401624.80647  21444337.794    21444346.4474
  21258053.126   -21288434.828 9 -15920778.94647  21258052.676    21258059.7784
  20724012.541   -22282131.475 9 -17353601.10447  20724011.985    20724019.2234
  24111335.044    -5757494.773 8  -4294710.08045  24111334.641    24111346.4064
 02  1 28  3 10  0.0000000  0 10 06 10 17 26 22 30 15 18 23 21
  20522583.755   -26553423.811 9 -19769723.16047  20522583.551    20522590.5234
  24472221.318    -3009692.396 7  -2336383.43645  24472220.354    24472230.8324
  21080111.956   -24120608.236 9 -18435969.18847  21080111.393    21080119.2734
  21785491.773   -16973839.605 8 -13063660.54047  21785491.818    21785499.3174
  23452312.045    -6008198.279 8  -4672112.49045  23452311.223    23452322.4734
  24458203.426    -3056676.301 8  -2350055.90245  24458203.618    24458214.9814
  21435461.014   -20037781.754 9 -15437976.29247  21435460.330    21435468.9514
  21246211.933   -21350660.418 9 -15969266.33647  21246211.494    21246218.5564
  20729740.195   -22252032.268 9 -17330147.15047  20729739.640    20729746.8944
  24095005.304    -5843307.148 8  -4361576.64545  24095004.846    24095016.6404
 02  1 28  3 10 30.0000000  0 10 06 10 17 26 22 30 15 18 23 21
  20529625.638   -26516418.339 9 -19740887.71447  20529625.436    20529632.4094
  24492106.521    -2905195.066 7  -2254956.99245  24492105.688    24492116.0994
  21075234.104   -24146241.106 9 -18455942.79247  21075233.550    21075241.4684
  21779860.760   -17003430.429 8 -13086718.25247  21779860.806    21779868.2954
  23450411.568    -6018185.048 8  -4679894.28245  23450410.798    23450421.9304
  24477451.153    -2955529.150 7  -2271240.02145  24477451.283    24477462.6814
  21426614.262   -20084271.425 9 -15474201.92547  21426613.564    21426622.1724
  21234448.723   -21412476.052 9 -16017434.27947  21234448.287    21234455.3424
  20735543.808   -22221533.937 9 -17306382.18547  20735543.252    20735550.5184
  24078713.119    -5928922.332 8  -4428289.55045  24078712.615    24078724.3764
 02  1 28  3 11  0.0000000  0 10 06 10 17 26 22 30 15 18 23 21
  20536759.234   -26478931.005 9 -19711676.78647  20536759.038    20536766.0124
  24511995.128    -2800679.922 7  -2173516.63245  24511994.270    24512004.6304
  21070385.292   -24171721.493 9 -18475797.58047  21070384.726    21070392.6674
  21774342.747   -17032427.447 8 -13109313.24347  21774342.817    21774350.2734
  23448612.356    -6027639.716 8  -4687261.45245  23448611.594    23448622.4864
  24496683.097    -2854465.104 8  -2192488.92345  24496683.208    24496694.6604
  21417798.339   -20130599.255 9 -15510301.44747  21417797.637    21417806.2174
  21222763.712   -21473880.832 9 -16065282.07347  21222763.277    21222770.3314
  20741423.080   -22190638.076 9 -17282307.45547  20741422.512    20741429.7704
  24062458.717    -6014338.810 8  -4494847.61645  24062458.217    24062469.9014
 02  1 28  3 11 30.0000000  0 10 06 10 17 26 22 30 15 18 23 21
  20543984.441   -26440962.115 9 -19682090.62447  20543984.236    20543991.1834
  24531886.717    -2696149.319 7  -2092064.24245  24531885.729    24531896.1624
  21065565.468   -24197049.613 9 -18495533.71547  21065564.913    21065572.8224
  21768937.997   -17060829.247 8 -13131444.43647  21768938.048    21768945.5074
  23446914.248    -6036563.002 8  -4694214.55545  23446913.430    23446924.4254
  24515898.759    -2753487.041 8  -2113804.80045  24515898.956    24515910.2794
  21409013.150   -20176765.452 9 -15546275.02947  21409012.439    21409021.0054
  21211156.970   -21534874.244 9 -16112809.32347  21211156.532    21211163.5864
  20747377.567   -22159346.872 9 -17257924.66647  20747377.020    20747384.2494
  24046242.278    -6099555.905 8  -4561250.33245  24046241.734    24046253.5314
 02  1 28  3 12  0.0000000  0 10 06 10 17 26 22 30 15 18 23 21
  20551301.363   -26402511.405 9 -19652129.01647  20551301.150    20551308.0914
  24551780.833    -2591604.920 7  -2010601.09445  24551780.007    24551790.2854
  21060774.777   -24222224.677 9 -18515150.58547  21060774.209    21060782.0944
  21763646.970   -17088633.418 8 -13153109.94547  21763647.031    21763654.4884
  23445317.289    -6044954.675 8  -4700753.42145  23445316.456    23445327.4674
  24535097.627    -2652596.999 7  -2035189.27945  24535097.925    24535109.1234
  21400258.780   -20222769.475 9 -15582122.23947  21400258.080    21400266.6474
  21199628.794   -21595454.894 9 -16160014.94547  21199628.353    21199635.3964
  20753407.024   -22127661.804 9 -17233234.97047  20753406.456    20753413.6974
  24030064.066    -6184572.201 8  -4627496.58545  24030063.414    24030075.2454
 02  1 28  3 12 30.0000000  0 10 06 10 17 26 22 30 15 18 23 21
  20558709.857   -26363579.497 9 -19621792.45547  20558709.651    20558716.5824
  24571677.250    -2487048.911 7  -1929128.90345  24571676.392    24571686.7554
  21056013.101   -24247247.133 9 -18534648.53647  21056012.536    21056020.4004
  21758469.899   -17115838.839 8 -13174308.89047  21758469.965    21758477.3994
  23443821.353    -6052815.545 8  -4706878.67345  23443820.521    23443831.4774
  24554279.070    -2551798.027 8  -1956644.71345  24554279.366    24554290.5464
  21391535.253   -20268611.507 9 -15617843.21947  21391534.559    21391543.1334
  21188179.278   -21655622.332 9 -16206898.57847  21188178.839    21188185.8474
  20759511.013   -22095584.847 9 -17208239.90347  20759510.460    20759517.7044
  24013924.223    -6269386.677 8  -4693585.57545  24013923.657    24013935.4044
 02  1 28  3 13  0.0000000  0 10 06 10 17 26 22 30 15 18 23 21
  20566209.857   -26324166.604 9 -19591081.10847  20566209.649    20566216.5704
  24591575.484    -2382482.970 7  -1847648.97545  24591574.507    24591584.9814
  21051280.534   -24272116.760 9 -18554027.39747  21051279.972    21051287.8104
  21753407.182   -17142443.466 8 -13195039.69347  21753407.259    21753414.6634
  23442426.435    -6060145.611 8  -4712590.31845  23442425.526    23442436.4944
  24573442.805    -2451092.438 8  -1878172.93045  24573443.059    24573454.1964
  21382842.597   -20314291.334 9 -15653437.80747  21382841.897    21382850.4424
  21176808.526   -21715375.722 9 -16253459.58047  21176808.081    21176815.0714
  20765689.286   -22063117.665 9 -17182940.76447  20765688.743    20765695.9694
  23997822.978    -6353998.231 8  -4759516.43345  23997822.374    23997834.0364
 02  1 28  3 13 30.0000000  0 10 06 10 17 26 22 30 15 18 23 21
  20573801.390   -26284272.872 9 -19559995.07347  20573801.174    20573808.1074
  24611475.323    -2277909.035 7  -1766162.79645  24611474.510    24611484.7364
  21046577.097   -24296833.161 9 -18573286.86147  21046576.538    21046584.3584
  21748459.082   -17168445.622 8 -13215301.03447  21748459.165    21748466.5374
  23441132.384    -6066945.281 8  -4717888.65345  23441131.452    23441142.3764
  24592588.256    -2350482.564 7  -1799775.71845  24592588.555    24592599.6154
  21374180.911   -20359808.595 9 -15688905.72747  21374180.213    21374188.6994
  21165516.642   -21774714.413 9 -16299697.43347  21165516.208    21165523.1624
  20771941.486   -22030262.006 9 -17157338.91347  20771940.935    20771948.1414
  23981760.568    -6438405.780 8  -4825288.34545  23981759.983    23981771.5414
 02  1 28  3 14  0.0000000  0 10 06 10 17 26 22 30 15 18 23 21
  20581484.321   -26243898.694 9 -19528534.66647  20581484.115    20581491.0324
  24631376.212    -2173329.092 7  -1684671.96545  24631375.464    24631385.6524
  21041902.788   -24321396.384 9 -18592426.96647  21041902.234    21041910.0494
  21743625.933   -17193843.797 8 -13235091.74147  21743626.001    21743633.3824
  23439939.120    -6073214.946 8  -4722773.98445  23439938.259    23439949.2844
  24611714.923    -2249971.144 7  -1721455.22545  24611715.374    24611726.3614
  21365550.174   -20405163.334 9 -15724247.00447  21365549.458    21365557.8934
  21154303.892   -21833637.366 9 -16345611.33947  21154303.461    21154310.4144
  20778267.266   -21997019.811 9 -17131435.86947  20778266.705    20778273.8894
  23965737.126    -6522608.592 8  -4890900.70445  23965736.567    23965748.0434
 02  1 28  3 14 30.0000000  0 10 06 10 17 26 22 30 15 18 23 21
  20589258.655   -26203044.243 9 -19496700.02247  20589258.433    20589265.3574
  24651277.958    -2068745.030 7  -1603177.92345  24651277.286    24651287.4534
  21037257.692   -24345806.350 9 -18611447.65047  21037257.140    21037264.9314
  21738907.995   -17218636.328 8 -13254410.52047  21738908.057    21738915.4054
  23438846.680    -6078955.190 8  -4727246.80545  23438845.835    23438856.8974
  24630822.466    -2149560.774 7  -1643213.48345  24630822.797    24630833.9354
  21356950.340   -20450355.532 9 -15759461.62747  21356949.642    21356958.0304
  21143170.383   -21892143.990 9 -16391200.83247  21143169.948    21143176.8694
  20784666.238   -21963392.942 9 -17105233.07647  20784665.675    20784672.8434
  23949752.940    -6606605.230 8  -4956352.41245  23949752.342    23949763.8224
 02  1 28  3 15  0.0000000  0 10 06 10 17 26 22 30 15 18 23 21
  20597124.363   -26161709.766 9 -19464491.33047  20597124.148    20597131.0394
  24671180.020    -1964158.700 7  -1521682.09445  24671179.318    24671189.4494
  21032641.816   -24370062.698 9 -18630348.63347  21032641.266    21032649.0254
  21734305.645   -17242821.432 8 -13273255.97947  21734305.694    21734313.0574
  23437854.920    -6084166.254 8  -4731307.28245  23437854.081    23437865.1074
  24649910.362    -2049253.677 7  -1565052.18945  24649910.603    24649921.7734
  21348381.540   -20495384.670 9 -15794549.18647  21348380.834    21348389.2204
  21132116.301   -21950233.244 9 -16436465.10547  21132115.871    21132122.7714
  20791138.053   -21929383.181 9 -17078731.93147  20791137.495    20791144.6364
  23933808.168    -6690394.485 8  -5021642.52045  23933807.640    23933819.0564
 02  1 28  3 15 30.0000000  0 10 06 10 17 26 22 30 15 18 23 21
  20605081.266   -26119895.773 9 -19431908.98447  20605081.049    20605087.9634
  24691082.176    -1859572.428 7  -1440186.33545  24691081.231    24691091.4594
  21028055.134   -24394165.613 9 -18649130.06047  21028054.591    21028062.3324
  21729819.164   -17266397.725 8 -13291627.04147  21729819.199    21729826.5794
  23436963.785    -6088848.700 8  -4734955.84945  23436962.979    23436973.9584
  24668978.116    -1949052.490 7  -1486973.46645  24668978.302    24668989.6984
  21339843.733   -20540250.771 9 -15829509.69647  21339843.024    21339851.4034
  21121141.722   -22007904.682 9 -16481403.80347  21121141.288    21121148.1854
  20797682.341   -21894992.628 9 -17051934.06347  20797681.775    20797688.9224
  23917903.036    -6773975.370 8  -5086770.27045  23917902.541    23917913.9044
 02  1 28  3 16  0.0000000  0 10 06 10 17 26 22 30 15 18 23 21
  20613129.361   -26077602.847 9 -19398953.44847  20613129.138    20613136.0364
  24710983.900    -1754988.154 7  -1358692.10645  24710983.102    24710993.1954
  21023497.674   -24418114.897 9 -18667791.77747  21023497.136    21023504.8554
  21725448.749   -17289364.036 8 -13309522.79447  21725448.805    21725456.1364
  23436173.094    -6093003.411 8  -4738193.18045  23436172.305    23436183.1644
  24688025.107    -1848960.087 7  -1408979.49145  24688025.235    24688036.6674
  21331336.916   -20584954.038 9 -15864343.33047  21331336.223    21331344.5384
  21110246.722   -22065157.766 9 -16526016.51347  21110246.301    21110253.1654
  20804298.699   -21860223.233 9 -17024840.99547  20804298.134    20804305.2694
  23902037.717    -6857347.151 8  -5151735.07245  23902037.164    23902048.5524
 02  1 28  3 16 30.0000000  0 10 06 10 17 26 22 30 15 18 23 21
  20621268.550   -26034830.997 9 -19365624.72747  20621268.323    20621275.2344
  24730884.991    -1650407.194 7  -1277200.47545  24730884.176    24730894.4364
  21018969.519   -24441910.277 9 -18686333.56047  21018968.981    21018976.6804
  21721194.825   -17311718.309 8 -13326941.63947  21721194.900    21721202.1824
  23435482.774    -6096630.560 8  -4741019.42945  23435481.974    23435492.8354
  24707051.115    -1748978.394 7  -1331071.79345  24707051.315    24707062.6714
  21322861.231   -20629493.943 9 -15899049.66447  21322860.521    21322868.7794
  21099431.621   -22121991.330 9 -16570302.32647  21099431.188    21099438.0424
  20810986.892   -21825076.514 9 -16997453.91447  20810986.324    20810993.4434
  23886212.396    -6940508.717 8  -5216536.06645  23886211.920    23886223.2104
 02  1 28  3 17  0.0000000  0  8 06 17 26 22 15 18 23 21
  20629499.291   -25991578.050 9 -19331921.12347  20629499.075    20629506.0054
  21014471.198   -24465548.829 9 -18704753.14147  21014470.645    21014478.3464
  21717058.147   -17333456.435 8 -13343880.36147  21717058.203    21717065.4714
  23434893.307    -6099727.942 8  -4743432.88245  23434892.442    23434903.3674
  21314417.133   -20673867.804 9 -15933626.60947  21314416.417    21314424.6234
  21088696.915   -22178402.172 9 -16614258.73747  21088696.489    21088703.3294
  20817746.994   -21789551.806 9 -16969772.29147  20817746.424    20817753.5324
  23870427.794    -7023456.375 8  -5281170.38745  23870427.287    23870438.5004
 02  1 28  3 17 30.0000000  0  8 06 17 26 22 15 18 23 21
  20637821.306   -25947845.505 9 -19297843.81247  20637821.094    20637828.0324
  21010002.531   -24489031.525 9 -18723051.28047  21010001.978    21010009.6564
  21713038.769   -17354578.155 8 -13360338.78047  21713038.826    21713046.0584
  23434404.309    -6102297.212 8  -4745434.81445  23434403.450    23434414.3554
  21306004.456   -20718076.372 9 -15968074.76247  21306003.751    21306011.9074
  21078042.575   -22234390.834 9 -16657886.18247  21078042.155    21078048.9554
  20824578.459   -21753652.025 9 -16941798.40847  20824577.895    20824585.0064
  23854683.942    -7106189.925 8  -5345637.87745  23854683.516    23854694.5234
 02  1 28  3 18  0.0000000  0  8 06 17 26 22 15 18 23 21
  20646233.861   -25903637.168 9 -19263395.75947  20646233.660    20646240.6014
  21005562.926   -24512361.665 9 -18741230.54047  21005562.372    21005570.0114
  21709136.316   -17375085.536 8 -13376318.48547  21709136.368    21709143.5594
  23434015.002    -6104342.494 8  -4747028.44645  23434014.170    23434025.1214
  21297622.605   -20762122.821 9 -16002396.58447  21297621.903    21297630.0774
  21067468.041   -22289960.119 9 -16701186.84047  21067467.616    21067474.3784
  20831480.273   -21717382.589 9 -16913536.48147  20831479.707    20831486.8404
  23838980.428    -7188711.837 8  -5409940.45345  23838979.978    23838990.9324
 02  1 28  3 18 30.0000000  0  8 06 17 26 22 15 18 23 21
  20654737.011   -25858952.863 9 -19228576.80847  20654736.793    20654743.7574
  21001152.541   -24535538.207 9 -18759290.11947  21001151.985    21001159.5954
  21705351.189   -17394976.376 8 -13391817.77547  21705351.208    21705358.3804
  23433725.476    -6105863.677 8  -4748213.69045  23433724.640    23433735.5214
  21289271.780   -20806006.348 9 -16036591.45147  21289271.075    21289279.2374
  21056973.595   -22345108.578 9 -16744159.58047  21056973.161    21056979.8864
  20838452.214   -21680744.679 9 -16884987.43347  20838451.650    20838458.7894
  23823317.504    -7271020.566 8  -5474076.92045  23823316.971    23823327.8414
 02  1 28  3 19  0.0000000  0  8 06 17 26 22 15 18 23 21
  20663330.672   -25813792.812 9 -19193387.14847  20663330.464    20663337.4164
  20996771.433   -24558560.898 9 -18777229.81247  20996770.878    20996778.4764
  21701683.648   -17414249.076 8 -13406835.39747  21701683.677    21701690.8144
  23433535.598    -6106861.162 8  -4748990.86345  23433534.831    23433545.6214
  21280952.063   -20849726.600 9 -16070659.09547  21280951.354    21280959.4834
  21046559.389   -22399835.228 9 -16786803.64047  21046558.961    21046565.6444
  20845493.918   -21643739.902 9 -16856152.51247  20845493.365    20845500.5334
  23807695.371    -7353114.902 8  -5538046.32745  23807694.817    23807705.6264
 02  1 28  3 19 30.0000000  0  8 06 17 26 22 15 18 23 21
  20672014.897   -25768156.852 9 -19157826.65347  20672014.702    20672021.6544
  20992419.757   -24581428.806 9 -18795048.90047  20992419.211    20992426.7884
  21698134.126   -17432901.693 8 -13421369.84847  21698134.155    21698141.2794
  23433445.457    -6107334.890 8  -4749359.91745  23433444.634    23433455.3604
  21272663.555   -20893282.451 9 -16104598.62747  21272662.842    21272670.9674
  21036225.653   -22454139.012 9 -16829118.19247  21036225.225    21036231.8744
  20852605.254   -21606369.567 9 -16827032.74047  20852604.702    20852611.8724
  23792114.315    -7434993.168 8  -5601847.35945  23792113.762    23792124.5574
 02  1 28  3 20  0.0000000  0  8 06 17 26 22 15 18 23 21
  20680789.533   -25722045.736 9 -19121895.89747  20680789.347    20680796.3124
  20988097.518   -24604142.047 9 -18812747.47147  20988096.963    20988104.5294
  21694702.812   -17450932.983 8 -13435420.13647  21694702.850    21694709.9494
  23433454.745    -6107285.770 8  -4749321.56045  23433453.948    23433464.5764
  21264406.360   -20936673.943 9 -16138410.08347  21264405.649    21264413.7624
  21025972.479   -22508019.557 9 -16871102.94647  21025972.053    21025978.6634
  20859785.736   -21568635.698 9 -16797629.68747  20859785.181    20859792.3574
  23776574.540    -7516654.601 8  -5665479.44045  23776573.971    23776584.7184
 02  1 28  3 20 30.0000000  0  8 06 17 26 22 15 18 23 21
  20689654.575   -25675459.516 9 -19085594.93747  20689654.370    20689661.3744
  20983804.895   -24626699.674 9 -18830324.79047  20983804.335    20983811.8924
  21691390.086   -17468341.207 8 -13448984.92147  21691390.133    21691397.2034
  23433563.500    -6106713.950 8  -4748875.90145  23433562.642    23433573.2234
  21256180.517   -20979900.551 9 -16172093.06847  21256179.813    21256187.9204
  21015800.068   -22561475.649 9 -16912756.96547  21015799.635    21015806.2054
  20867035.137   -21530539.803 9 -16767944.53547  20867034.583    20867041.7314
  23761076.251    -7598097.816 8  -5728941.48145  23761075.750    23761086.3824
 02  1 28  3 21  0.0000000  0  8 06 17 26 22 15 18 23 21
  20698609.816   -25628399.265 9 -19048924.60447  20698609.631    20698616.6234
  20979541.818   -24649102.154 9 -18847781.21047  20979541.256    20979548.7904
  21688196.060   -17485125.720 8 -13462063.70747  21688196.124    21688203.1674
  23433771.477    -6105620.788 8  -4748024.01145  23433770.638    23433781.1044
  21247986.014   -21022962.622 9 -16205647.84047  21247985.306    21247993.3994
  21005708.450   -22614507.345 9 -16954080.28247  21005708.021    21005714.5294
  20874352.948   -21492084.286 9 -16737979.17147  20874352.387    20874359.5434
  23745619.542    -7679322.685 8  -5792233.39745  23745619.090    23745629.6414
 02  1 28  3 21 30.0000000  0  8 06 17 26 22 15 18 23 21
  20707655.251   -25580865.084 9 -19011884.96747  20707655.059    20707662.0774
  20975308.349   -24671348.929 9 -18865116.29947  20975307.787    20975315.3024
  21685121.061   -17501284.853 8 -13474655.17647  21685121.113    21685128.1354
  23434078.591    -6104006.618 8  -4746766.12645  23434077.726    23434088.1554
  21239822.923   -21065859.630 9 -16239073.98947  21239822.207    21239830.2904
  20995697.772   -22667113.598 9 -16995072.08747  20995697.331    20995703.8004
  20881738.916   -21453270.625 9 -16707734.72747  20881738.363    20881745.5004
  23730204.706    -7760327.298 8  -5855353.67145  23730204.252    23730214.7934
 02  1 28  3 22  0.0000000  0  8 06 17 26 22 15 18 23 21
  20716790.755   -25532857.663 9 -18974476.57647  20716790.554    20716797.5674
  20971104.539   -24693439.670 9 -18882329.80347  20971103.967    20971111.5104
  21682165.212   -17516817.592 8 -13486758.54647  21682165.260    21682172.2504
  23434484.746    -6101872.320 8  -4745102.97045  23434483.915    23434494.2374
  21231691.219   -21108591.613 9 -16272371.54947  21231690.497    21231698.5804
  20985768.069   -22719294.080 9 -17035732.12447  20985767.646    20985774.0774
  20889192.630   -21414100.880 9 -16677212.81647  20889192.073    20889199.2184
  23714831.902    -7841111.288 8  -5918302.04345  23714831.424    23714842.0094
